     2.10           OBSERVATION DATA    G (GPS)             RINEX VERSION / TYPE
teqc 2005May6 SOPAC 20050707 00:22:38UTC                    PGM / RUN BY / DATE
Linux 2.4.20-8|Pentium IV|gcc|Linux|486/DX+                 COMMENT
BIT 2 OF LLI FLAGS DATA COLLECTED UNDER A/S CONDITION       COMMENT
Musty                                                       MARKER NAME
MUST                                                        MARKER NUMBER
Dick Roper                                                  OBSERVER / AGENCY
0220158629 TRIMBLE 4700 1.30                                REC # / TYPE / VERS
0220159582 TRM33429.00+GP NONE                              ANT # / TYPE
 -2577476.0000 -4172789.0000  4064578.0000                  APPROX POSITION XYZ
        2.0000        0.0000        0.0000                  ANTENNA: DELTA H/E/N
     1     1                                                WAVELENGTH FACT L1/2
     6    L1    L2    C1    P2    P1    D1                  # / TYPES OF OBSERV
    15.0000                                                 INTERVAL
Northern California Height Modernization 2004               COMMENT
                                                            COMMENT
SOPAC - Scripps Orbit and Permanent Array Center            COMMENT
IGPP - Institute of Geophysics and Planetary Physics        COMMENT
SIO - Scripps Institution of Oceanography                   COMMENT
UCSD - University of California, San Diego                  COMMENT
                                                            COMMENT
email: archive@gpsmail.ucsd.edu                             COMMENT
ftp://garner.ucsd.edu                                       COMMENT
http://sopac.ucsd.edu                                       COMMENT
                                                            COMMENT
                                                            COMMENT
Approximate Lat, Lon : 39.838, -121.703                     COMMENT
                                                            COMMENT
SNR is mapped to RINEX snr flag value [0-9]                 COMMENT
L1 & L2: 2-19 dBHz = 1, 20-27 dBHz = 2, 28-31 dBHz = 3      COMMENT
32-35 dBHz = 4, 36-38 dBHz = 5, 39-41 dBHz = 6              COMMENT
42-44 dBHz = 7, 45-48 dBHz = 8, >= 49 dBHz = 9              COMMENT
  2004     9     3    14    45   30.0000000     GPS         TIME OF FIRST OBS
                                                            END OF HEADER
 04  9  3 14 45 30.0000000  0  5G11G14G15G19G22
    -82002.00858    -57247.34653  23379562.6334   23379557.5124
      2551.3914
     34669.77359     18351.17157  20395397.6334   20395392.5984
     -1095.0784
    103095.02458     64444.32756  21528198.5234   21528195.2074
     -3198.8594
     57595.33159     33132.73556  22498341.7114   22498335.2894
     -1814.2344
     68662.18959     40326.39557  21810614.3594   21810608.2974
     -2155.5164
 04  9  3 14 45 45.0000000  0  7G 3G11G14G15G19G22G25
    135395.27357     89745.49853  23869613.9924   23869611.4964
     -3355.5624
   -120230.78948    -87036.02143  23372287.8444   23372282.7814
      2545.4694
     51168.19249     31207.06447  20398537.0784   20398531.8594
     -1104.9374
    151140.18448    101882.07446  21537341.5634   21537337.8014
     -3207.4534
     84884.33949     54396.86245  22503534.0784   22503528.1294
     -1824.5624
    101029.23849     65547.44847  21816773.3204   21816767.4344
     -2160.3444
   -126906.08956    -86250.38453  23612356.0704   23612352.5704
      2900.3914
 04  9  3 14 46  0.0000000  0  7G 3G11G14G15G19G22G25
    185769.31447    128997.93243  23879199.9224   23879196.6134
     -3360.9534
   -158358.00448   -116745.55044  23365033.0554   23365027.6914
      2538.0784
     67826.88548     44187.86747  20401707.3054   20401702.0594
     -1116.3124
    199325.52148    139429.06846  21546510.7504   21546506.8244
     -3217.3754
    112339.80349     75790.71145  22508758.6644   22508752.5084
     -1836.2814
    133481.52948     90834.93247  21822949.1094   21822942.5664
     -2166.6874
   -170373.05346   -120120.77243  23604084.1254   23604080.9614
      2895.1094
 04  9  3 14 46 15.0000000  0  7G 3G11G14G15G19G22G25
    236232.88948    168320.18543  23888802.7504   23888799.6054
     -3367.5164
   -196365.78748   -146362.01043  23357800.3204   23357795.3204
      2529.5784
     84663.25749     57307.09647  20404911.0864   20404905.9344
     -1128.6254
    247668.39648    177098.82246  21555709.8284   21555706.6174
     -3228.4694
    139979.01849     97327.73146  22514018.0004   22514011.9494
     -1849.0784
    166036.53548    116202.43947  21829143.9304   21829138.0704
     -2174.0944
   -213751.46447   -153922.14443  23595829.5234   23595826.1214
      2888.6094
 04  9  3 14 46 30.0000000  0  7G 3G11G14G15G19G22G25
    286804.71547    207726.78642  23898426.0864   23898422.6954
     -3375.2504
   -234234.87748   -175870.39944  23350593.7194   23350589.0634
      2519.7194
    101696.14048     70579.46147  20408152.2814   20408147.0084
     -1142.3444
    296187.61249    214905.98346  21564942.9384   21564939.5354
     -3240.7504
    167820.77549    119022.58945  22519316.3834   22519309.8484
     -1863.0624
    198713.29349    141664.84047  21835362.2424   21835356.0434
     -2182.7344
   -257021.89546   -187639.36643  23587595.2664   23587592.5784
      2880.8284
 04  9  3 14 46 45.0000000  0  7G 3G11G14G15G19G22G25
    337497.41748    247227.55343  23908072.9224   23908069.6764
     -3383.9374
   -271952.01748   -205260.37843  23343416.1094   23343411.9344
      2508.9534
    118938.38748     84014.96247  20411433.0474   20411428.5784
     -1156.9224
    344896.01848    252860.55646  21574212.0164   21574208.2344
     -3253.8914
    195877.90849    140885.27346  22524655.7814   22524648.7974
     -1878.0314
    231524.75548    167232.19147  21841606.0474   21841599.6914
     -2192.2344
   -300170.99546   -221262.01243  23579384.0704   23579380.9964
      2872.1884
 04  9  3 14 47  0.0000000  0  7G 3G11G14G15G19G22G25
    388321.01548    286830.32243  23917744.4454   23917741.2194
     -3392.7814
   -309506.49748   -234523.61043  23336270.0554   23336265.6054
      2497.9534
    136400.12748     97621.50447  20414756.5474   20414750.9924
     -1171.5944
    393803.82149    290970.50546  21583519.1024   21583514.9964
     -3267.2664
    224160.41649    162923.57146  22530037.7274   22530031.1214
     -1893.2194
    264481.28349    192912.58247  21847877.4144   21847871.2464
     -2202.0944
   -343188.15646   -254781.91443  23571198.5944   23571194.8754
      2863.2664
 04  9  3 14 47 15.0000000  0  7G 3G11G14G15G19G22G25
    439280.73048    326539.16843  23927441.5784   23927438.5634
     -3401.7504
   -346892.49048   -263655.55943  23329155.2034   23329150.6174
      2486.9064
    154086.79949    111403.30847  20418122.4064   20418116.6374
     -1186.4534
    442916.42049    329240.04546  21592864.9454   21592860.7774
     -3280.9224
    252673.67249    185141.67446  22535463.3134   22535457.3444
     -1908.5004
    297588.38749    218710.29947  21854177.7344   21854171.5274
     -2212.0314
   -386067.35646   -288194.26143  23563039.3444   23563036.5944
      2854.1724
 04  9  3 14 47 30.0000000  0  7G 3G11G14G15G19G22G25
    490379.47147    366356.34542  23937164.8594   23937162.2974
     -3410.8444
   -384106.41848   -292653.41643  23322074.3364   23322069.3134
      2475.5634
    172001.44148    125362.76547  20421530.8204   20421525.8014
     -1201.6094
    492236.88549    367671.55546  21602249.8594   21602246.1254
     -3294.5784
    281420.60449    207541.85146  22540934.0554   22540927.5864
     -1923.8594
    330849.26949    244627.85247  21860506.9694   21860500.5704
     -2222.1254
   -428805.03546   -321496.34943  23554906.1884   23554903.1094
      2844.8914
 04  9  3 14 47 45.0000000  0  7G 3G11G14G15G19G22G25
    541614.22947    406279.49542  23946914.7664   23946911.6684
     -3420.2974
   -421150.61448   -321519.03244  23315024.8914   23315019.9734
      2463.8284
    190141.24048    139497.66747  20424982.9844   20424977.5474
     -1216.8914
    541762.35249    406262.80646  21611674.6174   21611670.5394
     -3308.6724
    310398.29149    230121.86146  22546448.3594   22546442.3484
     -1939.6564
    364261.31349    270663.20147  21866864.7894   21866859.0864
     -2232.5784
   -471403.49947   -354689.96443  23546800.5554   23546797.1294
      2835.1254
 04  9  3 14 48  0.0000000  0  7G 3G11G14G15G19G22G25
    592983.88447    446307.78742  23956690.3594   23956687.5234
     -3428.9694
   -458025.58148   -350252.76843  23308007.5864   23308002.8244
      2452.8134
    208505.31649    153807.32947  20428477.3444   20428472.0474
     -1231.6254
    591491.95449    445013.11546  21621137.6094   21621134.4574
     -3321.9694
    339605.88349    252881.01146  22552006.0944   22552000.8134
     -1954.6874
    397823.79449    296815.77147  21873251.7114   21873245.5394
     -2242.3124
   -513863.09847   -387775.36543  23538720.6724   23538717.2194
      2826.1564
 04  9  3 14 48 15.0000000  0  7G 3G11G14G15G19G22G25
    644482.43747    486436.49243  23966490.4144   23966487.6914
     -3437.7664
   -494736.69448   -378858.83744  23301022.2504   23301016.8954
      2441.6094
    227087.74149    168287.12347  20432013.7424   20432007.8094
     -1246.4064
    641419.82449    483917.92846  21630638.4844   21630634.9574
     -3335.4224
    369037.36149    275814.60446  22557607.0314   22557601.1914
     -1969.8284
    431531.05449    323081.14047  21879666.1254   21879659.7384
     -2252.3284
   -556189.08547   -420756.65843  23530665.6254   23530663.1804
      2816.9384
 04  9  3 14 48 30.0000000  0  7G 3G11G14G15G19G22G25
    696107.86247    526664.06643  23976313.7974   23976311.0274
     -3445.9534
   -531285.34748   -407338.30944  23294067.2974   23294062.2584
      2431.2034
    245886.65249    182935.61747  20435591.0634   20435585.7584
     -1260.3754
    691543.99749    522975.70846  21640176.9534   21640172.9184
     -3348.1094
    398690.74549    298921.12045  22563249.6644   22563243.5824
     -1984.2504
    465381.24849    349457.90547  21886107.4844   21886101.3794
     -2261.3594
   -598382.88747   -453634.93843  23522635.9144   23522632.9064
      2808.5944
 04  9  3 14 48 45.0000000  0  7G 3G11G14G15G19G22G25
    747854.93647    566986.39643  23986161.6414   23986158.6914
     -3453.7194
   -567676.09148   -435694.74643  23287142.1724   23287136.5474
      2420.8914
    264896.98149    197748.84847  20439208.6644   20439203.4184
     -1274.2974
    741859.50249    562182.56546  21649751.8594   21649747.8134
     -3360.5784
    428560.92149    322196.55345  22568933.8914   22568928.0274
     -1998.4844
    499369.64849    375942.35247  21892575.5394   21892569.3484
     -2270.3594
   -640448.79847   -486413.58243  23514632.1884   23514629.0004
      2800.3284
 04  9  3 14 49  0.0000000  0  7G 3G11G14G15G19G22G25
    799718.33247    607399.46043  23996030.8524   23996027.9024
     -3461.2974
   -603913.56648   -463931.73743  23280246.6334   23280240.9614
      2410.7664
    284113.61248    212722.83947  20442865.2814   20442859.7894
     -1287.8754
    792361.13949    601534.47346  21659362.0784   21659358.4574
     -3372.9224
    458642.66248    345636.85445  22574658.0474   22574652.6174
     -2012.4374
    533491.21249    402530.56546  21899068.5554   21899062.6294
     -2279.1254
   -682391.52947   -519096.21143  23506650.0634   23506647.3914
      2792.1724
 04  9  3 14 49 15.0000000  0  7G 3G11G14G15G19G22G25
    851701.48247    647905.77142  24005922.7194   24005919.5554
     -3469.7664
   -639993.74148   -492046.16743  23273380.0704   23273374.7154
      2399.8914
    303540.20749    227860.43647  20446561.8984   20446556.4414
     -1302.2974
    843052.49049    641034.20046  21669008.0234   21669004.2074
     -3385.9374
    488939.54349    369244.79045  22580423.4144   22580417.7974
     -2027.1414
    567749.79349    429225.54347  21905587.4844   21905581.4964
     -2288.6094
   -724206.98948   -551679.68443  23498693.3364   23498689.4534
      2783.2344
 04  9  3 14 49 30.0000000  0  7G 3G11G14G15G19G22G25
    903796.29147    688499.08742  24015835.6414   24015833.4534
     -3476.6254
   -675923.92648   -520043.73444  23266543.4384   23266537.9494
      2390.3444
    323168.84649    243155.47247  20450297.3834   20450291.9884
     -1315.2344
    893925.59849    680675.56946  21678689.0554   21678685.2194
     -3397.5474
    519443.60449    393014.17845  22586228.8054   22586222.1414
     -2040.4844
    602137.58549    456021.21147  21912131.2894   21912125.2154
     -2296.8284
   -765902.56547   -584169.71443  23490758.2114   23490755.7234
      2775.7344
 04  9  3 14 49 45.0000000  0  7G 3G11G14G15G19G22G25
    955993.86746    729172.49142  24025769.0164   24025765.9924
     -3483.0944
   -711712.43248   -547930.86844  23259732.9844   23259727.8714
      2381.3134
    342990.77548    258601.12447  20454069.1174   20454064.0314
     -1327.7814
    944971.89149    720451.88746  21688403.0004   21688399.0634
     -3408.7504
    550145.99149    416938.09545  22592070.4144   22592064.6054
     -2053.2664
    636646.00349    482910.87547  21918698.1954   21918691.6954
     -2304.4224
   -807486.45447   -616572.76943  23482846.1954   23482841.9344
      2768.6414
 04  9  3 14 50  0.0000000  0  7G 3G11G14G15G19G22G25
   1008290.44947    769923.03043  24035721.2274   24035718.2704
     -3489.7344
   -747362.47348   -575710.12943  23252949.1334   23252944.0944
      2372.0784
    363002.32848    274194.53947  20457877.4304   20457872.2464
     -1340.4224
    996187.63249    760360.22946  21698148.8834   21698145.0634
     -3420.0314
    581042.97449    441013.65145  22597950.1484   22597944.1024
     -2066.2664
    671271.55049    509891.80047  21925287.1884   21925281.2074
     -2312.2194
   -848961.75747   -648891.18843  23474953.1954   23474949.3714
      2761.3444
 04  9  3 14 50 15.0000000  0  7G 3G11G14G15G19G22G25
   1060682.53647    810748.00443  24045690.7974   24045688.0314
     -3496.0474
   -782876.79548   -603383.62044  23246190.9384   23246185.6564
      2362.9844
    383200.35148    289933.24447  20461721.2114   20461715.6954
     -1352.8284
   1047569.54949    800398.06846  21707926.9774   21707923.0274
     -3431.0624
    612131.33149    465238.32845  22603866.1804   22603860.0274
     -2079.0164
    706011.21748    536961.66547  21931897.8204   21931891.8444
     -2319.8284
   -890331.09747   -681127.02743  23467080.9384   23467077.7854
      2754.4064
 04  9  3 14 50 30.0000000  0  7G 3G11G14G15G19G22G25
   1113167.43247    851645.32342  24055678.3134   24055675.0084
     -3502.0624
   -818257.45148   -630952.96444  23239458.0474   23239452.8284
      2354.3284
    403582.19248    305815.19147  20465599.3444   20465594.3204
     -1364.8444
   1099115.08349    840563.39946  21717735.6804   21717731.6764
     -3441.7664
    643408.37349    489610.03545  22609817.5554   22609811.7704
     -2091.3754
    740862.64249    564118.59646  21938529.8834   21938524.2114
     -2327.0624
   -931596.47347   -713281.84843  23459227.9064   23459225.1094
      2747.6094
 04  9  3 14 50 45.0000000  0  7G 3G11G14G15G19G22G25
   1165743.89047    892613.93442  24065682.8984   24065679.9494
     -3508.1564
   -853505.04748   -658418.62344  23232750.5554   23232745.5044
      2345.4384
    424146.74648    321839.51447  20469512.6094   20469507.3914
     -1377.0164
   1150823.22849    880855.45446  21727575.0474   21727571.2074
     -3452.5944
    674872.81949    514127.76945  22615805.9534   22615799.0234
     -2103.8914
    775824.81348    591361.83247  21945183.2734   21945177.2854
     -2334.4534
   -972758.49048   -745356.11343  23451395.4454   23451392.2034
      2740.7194
 04  9  3 14 51  0.0000000  0  8G 3G11G14G15G19G22G25G 1
   1218405.11647    933648.65643  24075705.0234   24075701.3204
     -3513.6254
   -888625.82948   -685785.47744  23226067.3364   23226061.8634
      2337.1564
    444887.34248    338001.00947  20473459.7894   20473454.5434
     -1388.5944
   1202687.16149    921268.88146  21737444.6564   21737440.9064
     -3462.7664
    706517.93049    538786.28345  22621827.2664   22621821.3874
     -2115.6874
    810891.27849    618686.33847  21951856.0784   21951850.1954
     -2341.2344
  -1013823.28247   -777354.61143  23443581.0944   23443578.2194
      2734.4844
   -103141.15256    -77366.86152  24120359.6484   24120356.6564
      2734.0944
 04  9  3 14 51 15.0000000  0  8G 3G11G14G15G19G22G25G 1
   1271149.22847    974747.92543  24085740.9614   24085739.3484
     -3519.2504
   -923620.84748   -713054.32044  23219408.5084   23219402.6844
      2328.5784
    465802.42548    354298.46347  20477439.6334   20477434.1604
     -1400.3754
   1254705.18149    961802.37746  21747343.0234   21747339.2934
     -3473.2344
    738341.99649    563584.23745  22627883.1174   22627877.3444
     -2127.7814
    846060.71249    646091.06947  21958548.5784   21958542.2114
     -2348.2664
  -1054791.82447   -809278.14643  23435784.5084   23435781.1374
      2727.8284
   -144098.07246   -109281.33742  24112564.4304   24112562.8524
      2726.6414
 04  9  3 14 51 30.0000000  0  8G 3G11G14G15G19G22G25G 1
   1323974.75447   1015910.62443  24095793.9694   24095791.3954
     -3524.3594
   -958490.96248   -740225.85444  23212772.6254   23212767.1294
      2320.6414
    486890.48349    370730.71447  20481452.7034   20481447.3244
     -1411.5004
   1306875.92549   1002454.87746  21757271.1174   21757267.2704
     -3483.0314
    770343.64449    588520.57845  22633972.9694   22633966.6054
     -2139.2504
    881331.77749    673575.00647  21965260.6024   21965254.4884
     -2354.6724
  -1095665.03247   -841127.40643  23428006.8914   23428004.1724
      2721.8444
   -184948.98446   -141113.27642  24104791.5634   24104788.9104
      2719.9844
 04  9  3 14 51 45.0000000  0  8G 3G11G14G15G19G22G25G 1
   1376877.28847   1057133.34743  24105860.6884   24105857.6844
     -3529.4844
   -993239.93848   -767302.96844  23206160.1884   23206155.1174
      2312.4694
    508147.39449    387294.53847  20485497.5784   20485492.0514
     -1422.8284
   1359195.21249   1043223.14046  21767227.1804   21767223.5514
     -3492.9844
    802518.55549    613591.92045  22640095.6484   22640089.5354
     -2150.8754
    916700.43249    701134.98646  21971990.8364   21971984.8984
     -2361.2344
  -1136446.62747   -872905.25243  23420246.5634   23420243.7664
      2715.6564
   -225697.77846   -172865.56942  24097037.2344   24097034.8594
      2713.0634
 04  9  3 14 52  0.0000000  0  8G 3G11G14G15G19G22G25G 1
   1429854.61047   1098414.35442  24115942.0394   24115939.1054
     -3534.2814
  -1027869.43248   -794287.00044  23199569.8594   23199565.2154
      2304.6724
    529571.11048    403988.32747  20489574.4534   20489568.5164
     -1433.7664
   1411660.94948   1084105.51946  21777210.5474   21777207.1454
     -3502.5944
    834864.54549    638796.57545  22646250.8914   22646245.0354
     -2162.0944
    952164.81049    728769.55147  21978739.4774   21978733.2274
     -2367.4844
  -1177138.06648   -904612.83643  23412503.1334   23412499.6094
      2709.7344
   -266346.06447   -204539.57842  24089303.0474   24089299.2344
      2706.5004
 04  9  3 14 52 15.0000000  0  8G 3G11G14G15G19G22G25G 1
   1482905.70647   1139752.82242  24126036.9534   24126035.0984
     -3539.3594
  -1062379.79648   -821178.19344  23193003.0634   23192998.0164
      2296.6094
    551160.63749    420811.33147  20493682.7344   20493677.4884
     -1444.9064
   1464272.30949   1125101.35746  21787222.5314   21787218.6644
     -3512.3594
    867380.74448    664133.85345  22652438.4924   22652432.7734
     -2173.5474
    987724.09949    756478.06347  21985506.0394   21985499.5354
     -2373.8284
  -1217739.62348   -936250.40943  23404776.2894   23404773.2894
      2703.6724
   -306894.33147   -236135.65942  24081586.9774   24081583.6054
      2699.7974
 04  9  3 14 52 30.0000000  0  8G 3G11G14G15G19G22G25G 1
   1536026.56847   1181145.71442  24136145.7504   24136143.2424
     -3543.9064
  -1096774.29548   -847979.11744  23186458.1174   23186453.5744
      2288.8914
    572912.28648    437760.65547  20497822.1414   20497816.6994
     -1455.7504
   1517025.47849   1166207.69146  21797261.1484   21797257.6024
     -3521.7664
    900063.27149    689600.73945  22658657.8204   22658652.2074
     -2184.5474
   1023374.90449    784257.90046  21992290.3204   21992284.2154
     -2379.9534
  -1258254.68447   -967820.57043  23397066.8444   23397063.3554
      2697.9224
   -347346.05146   -267656.48142  24073888.7194   24073886.1414
      2693.3754
 04  9  3 14 52 45.0000000  0  8G 3G11G14G15G19G22G25G 1
   1589217.79247   1222593.38943  24146268.0704   24146265.2544
     -3548.2344
  -1131051.69448   -874688.76144  23179935.3674   23179930.7734
      2281.5004
    594826.83049    454836.92547  20501992.1804   20501987.0984
     -1466.2664
   1569921.21949   1207425.15246  21807326.9844   21807323.2624
     -3531.0474
    932912.64249    715197.63845  22664908.9064   22664902.6644
     -2195.3444
   1059118.03349    812109.68746  21999092.1024   21999085.4104
     -2385.7974
  -1298681.78047   -999322.19743  23389373.9454   23389370.3754
      2692.2814
   -387700.17246   -299101.23542  24066209.4144   24066207.2934
      2687.1564
 04  9  3 14 53  0.0000000  0  8G 3G11G14G15G19G22G25G 1
   1642476.01846   1264093.23742  24156402.4384   24156399.8014
     -3552.6564
  -1165214.75648   -901309.33444  23173434.7034   23173429.5004
      2273.7814
    616900.96648    472037.53647  20506192.9064   20506187.6024
     -1476.8594
   1622956.24048   1248751.11846  21817418.9614   21817415.5944
     -3540.2664
    965925.60548    740922.00545  22671191.2344   22671185.2894
     -2206.2664
   1094950.43149    840031.01546  22005910.9304   22005904.5664
     -2391.6874
  -1339023.75847  -1030757.47543  23381696.8674   23381694.2854
      2686.7034
   -427959.52846   -330472.16842  24058548.5554   24058546.2154
      2680.8284
 04  9  3 14 53 15.0000000  0  8G 3G11G14G15G19G22G25G 1
   1695798.23846   1305643.01842  24166549.0164   24166547.2234
     -3556.8914
  -1199265.96948   -927842.76244  23166954.7424   23166949.9184
      2266.3594
    639131.78848    489360.24847  20510423.2584   20510417.8284
     -1487.1874
   1676127.75348   1290183.44346  21827537.5234   21827534.0044
     -3549.2504
    999099.30449    766771.62045  22677504.0164   22677497.5204
     -2216.8914
   1130869.34749    868019.76247  22012745.9844   22012739.1174
     -2397.4064
  -1379282.79047  -1062128.14143  23374036.2274   23374032.7114
      2681.2344
   -468126.51446   -361771.11342  24050904.9534   24050902.3634
      2674.7664
 04  9  3 14 53 30.0000000  0  8G 3G11G14G15G19G22G25G 1
   1749185.18646   1347243.21042  24176709.2974   24176705.9884
     -3561.1874
  -1233203.78448   -954287.80844  23160496.3754   23160491.5314
      2258.8134
    661520.23149    506805.78947  20514683.6724   20514678.6214
     -1497.7664
   1729436.61748   1331722.80046  21837681.3914   21837678.2624
     -3558.4374
   1032434.51049    792747.08645  22683847.5704   22683841.1994
     -2227.5944
   1166875.98549    896076.86846  22019597.9774   22019591.8204
     -2403.3594
  -1419457.43547  -1093433.04343  23366391.6724   23366387.5824
      2675.5474
   -508199.85446   -392997.04042  24043279.3674   24043277.1174
      2668.5474
 04  9  3 14 53 45.0000000  0  8G 3G11G14G15G19G22G25G 1
   1802633.04546   1388890.86342  24186880.1804   24186876.4964
     -3565.0944
  -1267031.47848   -980647.05144  23154059.3364   23154054.2074
      2251.5944
    684062.60848    524371.26347  20518973.3364   20518968.0864
     -1507.8914
   1782879.00848   1373366.19646  21847851.6564   21847848.1604
     -3567.2194
   1065927.37249    818845.40445  22690221.1564   22690214.7584
     -2238.1094
   1202966.85949    924199.60946  22026465.9534   22026459.6094
     -2408.8124
  -1459550.98548  -1124674.74243  23358761.5004   23358758.4494
      2670.2814
   -548182.92746   -424152.73642  24035670.7344   24035668.3484
      2662.5634
 04  9  3 14 54  0.0000000  0  8G 3G11G14G15G19G22G25G 1
   1856141.28346   1430585.55142  24197062.1564   24197058.6954
     -3569.2664
  -1300748.84048  -1006920.33444  23147643.1334   23147638.1024
      2244.1884
    706758.61649    542056.46047  20523292.0314   20523287.5124
     -1518.1724
   1836454.69748   1415113.47046  21858046.5944   21858042.9064
     -3576.1094
   1099577.57848    845066.32045  22696624.4844   22696618.2704
     -2248.5624
   1239141.80049    952387.86647  22033349.4384   22033343.5354
     -2414.3754
  -1499562.91948  -1155852.87143  23351147.5634   23351143.9064
      2664.7504
   -588075.62046   -455237.98042  24028079.4064   24028076.2584
      2656.5634
 04  9  3 14 54 15.0000000  0  8G 3G11G14G15G19G22G25G 1
   1909709.31346   1472326.82542  24207254.9304   24207252.5594
     -3573.1094
  -1334355.77648  -1033107.55344  23141247.2664   23141242.6764
      2236.9064
    729607.78449    559860.99847  20527640.0784   20527634.9924
     -1528.2664
   1890163.20149   1456964.23346  21868267.0704   21868263.5354
     -3584.8914
   1133384.56748    871409.41845  22703057.8054   22703051.6564
     -2258.8754
   1275400.50949    980641.38847  22040249.1174   22040243.2304
     -2419.9224
  -1539493.31647  -1186967.43243  23343548.9924   23343545.5664
      2659.3594
   -627878.02346   -486252.82842  24020505.4454   24020503.1054
      2650.5474
 04  9  3 14 54 30.0000000  0  8G 3G11G14G15G19G22G25G 1
   1963337.21946   1514114.77642  24217460.7274   24217458.0904
     -3577.5314
  -1367851.66748  -1059208.23844  23134873.5864   23134868.3674
      2228.9224
    752610.40048    577785.11047  20532017.7194   20532012.0164
     -1538.9694
   1944004.66248   1498918.60946  21878512.7974   21878508.9304
     -3594.2664
   1167348.44148    897874.76545  22709520.9064   22709514.7034
     -2269.8594
   1311743.42749   1008960.53246  22047165.4694   22047159.1454
     -2426.0314
  -1579341.41047  -1218017.88643  23335966.5554   23335962.1684
      2653.3594
   -667589.66146   -517196.93442  24012948.0944   24012945.9614
      2644.0314
 04  9  3 14 54 45.0000000  0  8G 3G11G14G15G19G22G25G 1
   2017026.59247   1555950.64542  24227678.2344   24227674.6884
     -3581.0164
  -1401234.18248  -1085220.60244  23128521.2894   23128515.9964
      2222.0164
    775768.27449    595830.19047  20536424.2194   20536419.0664
     -1548.7344
   1997980.93249   1540978.01446  21888783.9064   21888780.1914
     -3602.5944
   1201470.83649    924463.61445  22716014.3364   22716007.9534
     -2279.7974
   1348172.48749   1037346.79246  22054097.3594   22054091.0784
     -2431.1724
  -1619104.84847  -1249002.34643  23328399.1094   23328396.1294
      2648.3914
   -707208.28346   -548068.57142  24005408.2424   24005407.3404
      2638.5474
 04  9  3 14 55  0.0000000  0  8G 3G11G14G15G19G22G25G 1
   2070769.60146   1597828.26542  24237904.9844   24237902.0124
     -3584.2194
  -1434510.48248  -1111150.18844  23122189.0394   23122184.0204
      2215.3594
    799073.54949    613990.14847  20540859.3054   20540853.8954
     -1558.0944
   2052084.40049   1583136.53646  21899079.4774   21899076.1484
     -3610.6254
   1235744.05049    951170.00845  22722536.2274   22722529.7544
     -2289.4064
   1384680.17649   1065794.32746  22061044.7584   22061038.1764
     -2436.0624
  -1658790.71547  -1279926.38544  23320847.0554   23320843.4454
      2643.6254
   -746741.08946   -578873.34442  23997886.1724   23997883.9304
      2633.0784
 04  9  3 14 55 15.0000000  0  8G 3G11G14G15G19G22G25G 1
   2124562.03446   1639744.43242  24248141.0004   24248137.3914
     -3588.0004
  -1467684.30949  -1136999.91944  23115876.6174   23115871.1954
      2208.1094
    822522.13848    632261.77047  20545321.3204   20545315.9024
     -1568.1414
   2106310.91249   1625390.94046  21909398.6954   21909395.0514
     -3619.3914
   1270163.95448    977990.70445  22729085.3054   22729080.1094
     -2299.7034
   1421262.60349   1094300.09947  22068006.2504   22068000.0084
     -2441.4064
  -1698402.51048  -1310792.71644  23313309.5864   23313306.0944
      2638.1724
   -786191.89547   -609614.21742  23990379.2814   23990376.5434
      2627.0784
 04  9  3 14 55 30.0000000  0  8G 3G11G14G15G19G22G25G 1
   2178406.85546   1681701.39442  24258387.1884   24258384.4494
     -3591.2344
  -1500751.90749  -1162766.88044  23109584.0394   23109578.7814
      2201.1254
    846117.20249    650647.53347  20549811.1804   20549805.7584
     -1577.7034
   2160663.43849   1667743.53846  21919741.2974   21919738.1094
     -3627.5474
   1304733.52448   1004928.01545  22735664.5474   22735658.4344
     -2309.5314
   1457923.10749   1122866.71446  22074982.3054   22074976.0784
     -2446.5004
  -1737936.60548  -1341598.46643  23305786.9844   23305783.5744
      2633.1724
   -825557.19747   -640288.46743  23982888.0784   23982886.0044
      2621.6254
 04  9  3 14 55 45.0000000  0  8G 3G11G14G15G19G22G25G 1
   2232299.42846   1723695.60042  24268642.1954   24268639.9884
     -3594.7344
  -1533717.35848  -1188454.24444  23103310.8284   23103305.3594
      2194.0474
    869854.19049    669143.86947  20554328.4534   20554322.7854
     -1587.4064
   2215137.51649   1710190.85046  21930107.7344   21930104.0124
     -3635.8914
   1339448.03348   1031978.26045  22742269.8134   22742263.9224
     -2319.3594
   1494657.30149   1151490.74046  22081972.4614   22081966.1684
     -2451.6724
  -1777397.02947  -1372346.84743  23298277.5634   23298274.0004
      2627.9534
   -864841.20146   -670899.39142  23975413.7114   23975410.0044
      2616.0474
 04  9  3 14 56  0.0000000  0  8G 3G11G14G15G19G22G25G 1
   2286241.50446   1765728.32242  24278906.7664   24278904.9184
     -3597.3444
  -1566578.20848  -1214060.09544  23097057.6564   23097052.4804
      2187.6254
    893735.12849    687752.38647  20558872.5864   20558867.3594
     -1596.4064
   2269735.18249   1752734.45946  21940497.1884   21940493.5664
     -3643.5314
   1374309.54548   1059143.06545  22748904.2194   22748898.6414
     -2328.5944
   1531467.48649   1180173.98546  22088977.2034   22088971.0554
     -2456.0944
  -1816781.28947  -1403035.86143  23290782.8594   23290779.7504
      2623.4694
   -904041.50447   -701445.07542  23967953.3444   23967950.3634
      2611.0004
 04  9  3 14 56 15.0000000  0  8G 3G11G14G15G19G22G25G 1
   2340230.78747   1807797.85942  24289181.7424   24289178.8714
     -3600.9064
  -1599335.97248  -1239585.63644  23090823.9384   23090818.3484
      2180.3914
    917758.02749    706471.52547  20563444.0004   20563438.5164
     -1606.3444
   2324454.30549   1795372.71246  21950910.3204   21950906.3674
     -3652.0004
   1409315.93648   1086420.74545  22755565.9454   22755560.1214
     -2338.6094
   1568351.69049   1208914.91246  22095996.6254   22095990.0354
     -2461.4534
  -1856090.80447  -1433666.65244  23283302.6254   23283299.1724
      2618.0944
   -943159.88046   -731926.90742  23960509.1884   23960505.9264
      2605.1094
 04  9  3 14 56 30.0000000  0  8G 3G11G14G15G19G22G25G 1
   2394270.23346   1849906.46842  24299464.2734   24299462.4734
     -3604.3594
  -1631987.21748  -1265028.18144  23084609.7974   23084604.8954
      2173.0944
    941925.88949    725303.61347  20568042.7814   20568037.8284
     -1616.0624
   2379297.86149   1838107.94146  21961346.7114   21961342.6684
     -3660.5004
   1444469.95248   1113813.45245  22762255.3364   22762249.4924
     -2348.6724
   1605313.08249   1237715.98147  22103030.1334   22103023.3364
     -2466.7664
  -1895322.12148  -1464236.46344  23275837.0084   23275833.2894
      2612.7034
   -982192.91946   -762342.25042  23953080.7274   23953078.7034
      2599.1884
 04  9  3 14 56 45.0000000  0  8G 3G11G14G15G19G22G25G 1
   2448359.50946   1892053.95242  24309757.8594   24309755.4964
     -3607.1564
  -1664531.61948  -1290387.44344  23078417.4924   23078412.5164
      2166.5004
    966238.35648    744248.38447  20572669.4144   20572664.5004
     -1625.1724
   2434265.56848   1880939.88946  21971806.0704   21971802.8914
     -3668.2664
   1479771.26548   1141320.95945  22768973.0004   22768967.1914
     -2357.8914
   1642351.57149   1266577.12846  22110078.0704   22110072.0984
     -2471.3124
  -1934474.79847  -1494745.02644  23268386.4454   23268382.8324
      2608.0164
  -1021140.36846   -792690.88642  23945670.3834   23945666.8244
      2594.1564
 04  9  3 14 57  0.0010000  0  8G 3G11G14G15G19G22G25G 1
   2502496.07946   1934238.29442  24320059.1064   24320057.2554
     -3610.2504
  -1696976.83149  -1315669.42544  23072243.1144   23072238.3564
      2159.5474
    990691.11349    763302.47947  20577322.6774   20577317.4234
     -1634.6564
   2489355.19049   1923866.85746  21982289.6694   21982286.3254
     -3676.3124
   1515216.36548   1168940.51445  22775718.0054   22775711.7714
     -2367.4694
   1679464.03349   1295495.91446  22117140.2784   22117134.1034
     -2476.3284
  -1973556.81848  -1525198.53444  23260949.3414   23260946.0484
      2602.8594
  -1060010.43747   -822979.27743  23938273.4194   23938270.7674
      2588.4844
 04  9  3 14 57 15.0010000  0  8G 3G11G14G15G19G22G25G 1
   2556673.42746   1976454.34842  24330368.8414   24330366.4354
     -3613.2664
  -1729317.23148  -1340869.74644  23066089.5524   23066084.3104
      2152.6094
   1015281.62849    782463.90547  20582002.1534   20581996.8104
     -1644.0314
   2544560.05348   1966883.60246  21992794.5914   21992791.3334
     -3684.2974
   1550801.05948   1196668.81145  22782489.7004   22782483.4624
     -2377.0004
   1716646.41949   1324469.18646  22124215.8104   22124209.1654
     -2481.2814
  -2012561.80147  -1555592.01744  23253526.8334   23253523.4464
      2597.8284
  -1098796.77247   -853202.41143  23930892.5284   23930890.0874
      2582.9694
 04  9  3 14 57 30.0010000  0  8G 3G11G14G15G19G22G25G 1
   2610894.79446   2018704.72042  24340686.3964   24340684.3064
     -3616.5474
  -1761554.63348  -1365989.81144  23059954.7314   23059949.4784
      2145.3754
   1040011.49249    801733.91847  20586708.4034   20586702.7674
     -1653.6094
   2599883.72448   2009992.93845  22003322.5524   22003319.1464
     -3692.5314
   1586527.52148   1224507.60645  22789288.0444   22789281.9544
     -2386.7974
   1753901.16849   1353498.83346  22131305.3024   22131298.9784
     -2486.3754
  -2051491.78748  -1585927.05244  23246119.0444   23246115.5914
      2592.5784
  -1137501.75046   -883362.16142  23923527.1614   23923524.2084
      2577.2664
 04  9  3 14 57 45.0010000  0  8G 3G11G14G15G19G22G25G 1
   2665162.51446   2060991.22143  24351014.3414   24351011.9854
     -3619.1724
  -1793686.14648  -1391027.34944  23053840.4034   23053835.6344
      2138.7814
   1064883.17049    821114.43847  20591441.2784   20591436.3254
     -1662.6254
   2655328.67648   2053196.77546  22013873.4034   22013869.5484
     -3700.1254
   1622398.18548   1252458.74245  22796113.7634   22796107.6224
     -2396.0624
   1791230.97149   1382586.98746  22138408.9424   22138402.8534
     -2490.8914
  -2090343.66048  -1616201.20244  23238725.8724   23238721.8764
      2587.6884
  -1176122.59346   -913456.27843  23916177.8104   23916175.3414
      2572.1724
 04  9  3 14 58  0.0010000  0  8G 3G11G14G15G19G22G25G 1
   2719473.83547   2103311.69642  24361348.8724   24361346.7244
     -3622.0314
  -1825713.84448  -1415984.00044  23047745.4584   23047740.8724
      2132.0944
   1089893.97049    840603.36547  20596200.3104   20596195.2674
     -1671.7664
   2710892.27249   2096493.06846  22024446.7394   22024443.0444
     -3707.8914
   1658410.25548   1280520.09545  22802967.4664   22802961.0054
     -2405.2344
   1828633.37849   1411731.70446  22145526.4504   22145520.2084
     -2495.5944
  -2129119.59548  -1646416.21744  23231347.3494   23231343.5794
      2582.8444
  -1214661.56546   -943486.66342  23908843.7784   23908840.7124
      2566.8754
 04  9  3 14 58 15.0010000  0  8G 3G11G14G15G19G22G25G 1
   2773823.13747   2145661.75342  24371691.2714   24371689.1774
     -3624.7034
  -1857642.63749  -1440863.57344  23041669.8724   23041664.5444
      2125.0634
   1115038.51649    860196.51347  20600985.3254   20600980.0914
     -1681.0004
   2766569.03948   2139877.53246  22035041.8414   22035038.1064
     -3715.7194
   1694558.18648   1308687.28145  22809845.4894   22809839.3334
     -2414.5944
   1866103.23549   1440928.97746  22152656.6924   22152650.4584
     -2500.4694
  -2167824.36648  -1676575.76644  23223981.4744   23223978.0014
      2577.7974
  -1253123.61247   -973457.08542  23901525.1464   23901521.8214
      2561.2974
 04  9  3 14 58 30.0010000  0  8G 3G11G14G15G19G22G25G 1
   2828213.54646   2188043.88542  24382041.9354   24382039.3134
     -3627.5004
  -1889468.79549  -1465663.18644  23035613.4584   23035608.4584
      2118.2034
   1140319.88349    879896.26947  20605796.0364   20605790.9854
     -1690.0784
   2822362.21248   2183352.71046  22045658.6614   22045655.0284
     -3723.5164
   1730845.18748   1336962.84645  22816751.2474   22816744.7864
     -2423.8754
   1903643.93249   1470181.44246  22159800.3724   22159794.1654
     -2505.1874
  -2206454.36048  -1706677.05844  23216630.2784   23216626.9814
      2572.7344
  -1291505.22247  -1003364.85243  23894221.2944   23894218.4194
      2556.0004
 04  9  3 14 58 45.0010000  0  8G 3G11G14G15G19G22G25G 1
   2882647.43446   2230459.83842  24392399.3414   24392397.4544
     -3630.3754
  -1921189.32248  -1490380.47144  23029577.2004   23029572.5244
      2111.2034
   1165740.70249    899704.69547  20610633.7394   20610628.2944
     -1699.3594
   2878274.29949   2226920.55245  22056298.2474   22056295.2744
     -3731.3914
   1767273.59048   1365348.61045  22823682.9274   22823676.5174
     -2433.2034
   1941258.13649   1499491.20546  22166958.1384   22166951.7514
     -2510.0314
  -2245006.46248  -1736717.63144  23209293.8494   23209291.0244
      2567.6254
  -1329803.40746  -1033207.61043  23886933.2394   23886930.2674
      2550.4844
 04  9  3 14 59  0.0010000  0  8G 3G11G14G15G19G22G25G 1
   2937118.47846   2272904.83342  24402764.7164   24402763.0954
     -3632.4694
  -1952809.82448  -1515019.81644  23023559.6694   23023554.9934
      2104.9224
   1191294.80348    919616.96847  20615496.3724   20615490.8604
     -1707.8754
   2934299.16948   2270576.28246  22066959.6304   22066956.3254
     -3738.5474
   1803837.19848   1393839.72145  22830640.5994   22830634.5794
     -2441.8444
   1978939.88349   1528853.59046  22174128.5134   22174122.3294
     -2514.2034
  -2283486.24348  -1766701.86844  23201971.8104   23201968.6884
      2563.0784
  -1368024.00047  -1062989.85643  23879659.4894   23879657.6734
      2545.6094
 04  9  3 14 59 15.0010000  0  8G 3G11G14G15G19G22G25G 1
   2991627.08346   2315379.02542  24413137.9894   24413135.9814
     -3634.9374
  -1984329.28249  -1539580.44044  23017562.1924   23017556.6774
      2098.1884
   1216982.75049    939633.54447  20620384.6924   20620379.9744
     -1716.7664
   2990437.32148   2314320.27145  22077642.0604   22077638.7394
     -3746.0164
   1840536.42448   1422436.50345  22837624.1304   22837618.1814
     -2450.9224
   2016690.02849   1558269.27146  22181312.7474   22181306.5994
     -2518.7344
  -2321892.45748  -1796628.78944  23194663.3724   23194660.1264
      2558.1884
  -1406166.06646  -1092710.95743  23872401.9584   23872399.6694
      2540.3594
 04  9  3 14 59 30.0010000  0  8G 3G11G14G15G19G22G25G 1
   3046168.23446   2357878.59742  24423516.6384   24423514.6694
     -3637.2504
  -2015752.15949  -1564065.79644  23011582.3494   23011577.2084
      2091.5164
   1242799.61349    959750.57847  20625297.8494   20625292.1464
     -1725.5314
   3046683.80348   2358148.67745  22088346.2634   22088342.1924
     -3753.4694
   1877366.26448   1451135.05945  22844632.4974   22844626.9934
     -2459.7814
   2054503.72449   1587734.47346  22188508.1144   22188502.0324
     -2523.0944
  -2360229.62648  -1826501.88344  23187368.1534   23187364.4194
      2553.3594
  -1444234.12747  -1122374.39542  23865158.3644   23865155.1964
      2535.2974
 04  9  3 14 59 45.0010000  0  8G 3G11G14G15G19G22G25G 1
   3100749.99347   2400409.81042  24433904.0364   24433901.0914
     -3640.0944
  -2047069.75248  -1588469.13144  23005622.9424   23005617.7394
      2084.3284
   1268753.60049    979974.45647  20630236.1774   20630231.5324
     -1734.7974
   3103046.88848   2402067.94345  22099071.4424   22099067.8294
     -3761.4224
   1914334.87548   1479941.74445  22851667.7474   22851661.7554
     -2469.1724
   2092389.50649   1617255.83846  22195717.4194   22195711.3064
     -2528.0944
  -2398488.80648  -1856314.22044  23180087.4034   23180084.0604
      2547.9694
  -1482219.58246  -1151973.43243  23857929.7394   23857927.0994
      2529.5314
 04  9  3 15  0  0.0010000  0  8G 3G11G14G15G19G22G25G 1
   3155369.90947   2442970.72242  24444296.7314   24444295.2674
     -3642.6414
  -2078283.84548  -1612791.78744  22999682.9894   22999677.7864
      2077.3754
   1294842.36549   1000303.34647  20635200.6614   20635195.7394
     -1743.8444
   3159524.24648   2446076.24545  22109818.6614   22109815.1344
     -3769.1094
   1951439.82348   1508854.67845  22858728.5134   22858722.9664
     -2478.3124
   2130345.14049   1646831.64446  22202940.1064   22202933.9274
     -2532.8754
  -2436671.85948  -1886067.24244  23172821.2164   23172818.2634
      2542.8284
  -1520124.43046  -1181509.66042  23850716.0914   23850713.3104
      2524.1884
 04  9  3 15  0 15.0010000  0  8G 3G11G14G15G19G22G25G 1
   3210027.06247   2485560.66442  24454697.9274   24454696.5954
     -3645.0944
  -2109394.52448  -1637033.88644  22993762.6384   22993757.6224
      2070.4844
   1321065.20849   1020736.72647  20640191.0214   20640185.2514
     -1752.7814
   3216115.02348   2490172.93245  22120587.6144   22120584.3534
     -3776.5784
   1988680.25648   1537873.16545  22865815.3724   22865809.5324
     -2487.2974
   2168370.12249   1676461.48446  22210176.3884   22210170.1924
     -2537.4224
  -2474778.91248  -1915761.04544  23165569.9504   23165566.4814
      2537.8284
  -1557948.96847  -1210983.34143  23843519.0914   23843515.8104
      2518.7664
 04  9  3 15  0 30.0010000  0  8G 3G11G14G15G19G22G25G 1
   3264722.31547   2528180.33442  24465105.9194   24465104.0634
     -3647.3594
  -2140400.37249  -1661194.29144  22987862.5364   22987857.5324
      2063.8444
   1347423.08949   1041275.32347  20645206.9584   20645201.8994
     -1761.4064
   3272820.22748   2534358.78545  22131378.4114   22131374.5564
     -3783.8914
   2026057.10448   1566997.96545  22872927.5994   22872922.2244
     -2496.0944
   2206465.76749   1706146.38246  22217425.0834   22217419.2944
     -2541.8124
  -2512808.51948  -1945394.49444  23158332.8254   23158329.5994
      2533.0314
  -1595691.87247  -1240393.38543  23836337.1304   23836333.7554
      2513.7194
 04  9  3 15  0 45.0010000  0  8G 3G11G14G15G19G22G25G 1
   3319449.29646   2570824.66542  24475520.6924   24475518.3294
     -3649.5164
  -2171307.17449  -1685277.51744  22981981.2084   22981976.2634
      2057.1414
   1373909.77449   1061914.29547  20650246.8254   20650241.7744
     -1769.9844
   3329633.60748   2578628.93145  22142189.4974   22142186.0914
     -3791.0624
   2063564.11947   1596224.19145  22880065.2554   22880058.6774
     -2504.8124
   2244625.92749   1735881.55146  22224687.2244   22224680.9504
     -2546.1094
  -2550766.33047  -1974972.01644  23151109.6614   23151105.9744
      2528.1414
  -1633358.99647  -1269744.41943  23829168.5674   23829165.9354
      2508.6564
 04  9  3 15  1  0.0010000  0  8G 3G11G14G15G19G22G25G 1
   3374208.09247   2613493.86942  24485942.2004   24485938.5244
     -3651.6414
  -2202114.12649  -1709282.93244  22976118.9114   22976113.7674
      2050.5004
   1400525.50549   1082653.81647  20655311.7554   20655306.3174
     -1778.7034
   3386555.33049   2622983.49445  22153021.3334   22153017.8994
     -3798.3914
   2101201.23947   1625551.80545  22887227.2944   22887222.0404
     -2513.3754
   2282851.09148   1765667.38246  22231961.2944   22231955.0484
     -2550.4694
  -2588651.57447  -2004492.98844  23143900.3804   23143897.5564
      2523.2664
  -1670949.70347  -1299035.85143  23822015.1144   23822012.3564
      2503.3284
 04  9  3 15  1 15.0010000  0  8G 3G11G14G15G19G22G25G 1
   3428999.27347   2656188.25242  24496367.3724   24496365.3104
     -3654.0474
  -2232820.15349  -1733209.71044  22970275.7714   22970270.2864
      2043.4384
   1427270.92949   1103494.39647  20660401.0754   20660395.5524
     -1787.6094
   3443586.04349   2667422.98846  22163874.3644   22163870.6694
     -3805.8914
   2138969.13847   1654981.30745  22894414.2714   22894409.0834
     -2522.4064
   2321142.07448   1795504.49146  22239247.8104   22239241.7784
     -2555.2504
  -2626462.93048  -2033956.35444  23136705.2714   23136701.4354
      2517.9694
  -1708462.97846  -1328266.98143  23814876.6534   23814874.2004
      2497.9694
 04  9  3 15  1 30.0010000  0  7G11G14G15G19G22G25G 1
  -2263423.88748  -1757056.78244  22964451.8254   22964447.0484
      2037.0634
   1454147.08449   1124436.84147  20665515.4194   20665510.1884
     -1795.8754
   3500726.81648   2711948.24745  22174747.5754   22174743.9544
     -3812.8594
   2176868.61148   1684513.33745  22901626.6224   22901620.4704
     -2530.8444
   2359500.03849   1825393.80446  22246546.8564   22246540.8024
     -2559.1724
  -2664198.88048  -2063361.00044  23129524.3644   23129520.9974
      2513.4224
  -1745897.42747  -1357436.66843  23807753.5444   23807750.1424
      2493.2194
 04  9  3 15  1 45.0010000  0  7G11G14G15G19G22G25G 1
  -2293928.20549  -1780826.39244  22958647.3174   22958642.0014
      2030.2814
   1481150.30649   1145478.30647  20670653.8884   20670648.6574
     -1804.4534
   3557973.96749   2756556.38945  22185641.0134   22185637.7354
     -3820.0314
   2214896.00448   1714145.05245  22908863.2634   22908857.5214
     -2539.4224
   2397921.58549   1855332.65246  22253858.7004   22253851.9894
     -2563.5314
  -2701862.60348  -2092709.35144  23122357.1614   23122353.9354
      2508.5004
  -1783256.31246  -1386547.47543  23800644.1694   23800641.2944
      2487.9694
 04  9  3 15  2  0.0010000  0  7G11G14G15G19G22G25G 1
  -2324328.88149  -1804515.21844  22952862.0754   22952857.2164
      2023.2344
   1508284.28749   1166621.66947  20675817.5284   20675812.8454
     -1813.2504
   3615331.16249   2801250.28945  22196555.7084   22196552.7244
     -3827.4374
   2253054.99848   1743879.32545  22916124.0054   22916118.2824
     -2548.2504
   2436410.67349   1885324.13846  22261182.5914   22261176.5014
     -2568.2194
  -2739449.57148  -2121997.88344  23115204.5054   23115201.4354
      2503.1724
  -1820535.55546  -1415596.23543  23793550.3964   23793547.6384
      2482.5784
 04  9  3 15  2 15.0010000  0  7G11G14G15G19G22G25G 1
  -2354628.98849  -1828125.70044  22947096.5834   22947091.5054
      2016.8754
   1535545.41449   1187864.08947  20681005.2314   20680999.5874
     -1821.5314
   3672794.80948   2846027.13445  22207491.2864   22207488.0954
     -3834.2504
   2291341.84148   1773713.19645  22923409.9894   22923404.3534
     -2556.5944
   2474963.90449   1915365.59446  22268518.9974   22268513.0324
     -2572.1874
  -2776962.87048  -2151229.03244  23108066.1694   23108062.6104
      2498.6564
  -1857738.40147  -1444585.47643  23786471.2004   23786467.8684
      2477.7034
 04  9  3 15  2 30.0010000  0  7G11G14G15G19G22G25G 1
  -2384828.22249  -1851657.56544  22941349.1224   22941344.5834
      2009.8134
   1562933.54149   1209205.47947  20686217.1064   20686211.9314
     -1830.1414
   3730364.83548   2890886.87345  22218446.4354   22218442.5134
     -3841.5624
   2329756.29248   1803646.52745  22930720.0604   22930714.0054
     -2565.2814
   2513581.31349   1945457.07146  22275867.8884   22275861.8994
     -2576.7194
  -2814402.01648  -2180402.37244  23100941.1464   23100938.2634
      2493.3754
  -1894864.49047  -1473514.91143  23779406.1144   23779402.6064
      2472.3754
 04  9  3 15  2 45.0010000  0  7G11G14G15G19G22G25G 1
  -2414923.09849  -1875108.11044  22935622.6774   22935617.6424
      2002.8444
   1590451.67149   1230648.17747  20691453.4034   20691448.1884
     -1838.9534
   3788044.10448   2935831.74645  22229422.6144   22229419.0994
     -3848.9694
   2368301.24748   1833681.54545  22938054.7474   22938048.7434
     -2574.0784
   2552266.02449   1975600.98746  22283229.3334   22283223.1884
     -2581.2504
  -2851763.57748  -2209515.28144  23093831.9744   23093828.3724
      2488.1094
  -1931910.57246  -1502381.98543  23772355.9354   23772353.4234
      2466.9844
 04  9  3 15  3  0.0010000  0  7G11G14G15G19G22G25G 1
  -2444912.75649  -1898476.68444  22929915.8334   22929910.9154
      1995.6094
   1618100.19949   1252192.46947  20696714.9814   20696709.6854
     -1847.7974
   3845833.04449   2980862.05345  22240419.3494   22240416.1654
     -3856.5474
   2406976.91548   1863818.40045  22945414.7784   22945408.8294
     -2583.0164
   2591018.74049   2005797.87846  22290603.5134   22290597.5524
     -2586.0164
  -2889046.52448  -2238566.91544  23086737.2314   23086733.7204
      2482.6254
  -1968875.87646  -1531186.09543  23765321.8104   23765319.3104
      2461.5004
 04  9  3 15  3 15.0010000  0  7G11G14G15G19G22G25G 1
  -2474800.56449  -1921765.87944  22924228.8334   22924223.2434
      1989.1414
   1645875.32549   1273835.41947  20702000.4424   20701994.7784
     -1855.8284
   3903727.89549   3025974.90945  22251435.9274   22251432.7714
     -3863.1414
   2445779.49648   1894054.17045  22952798.6924   22952792.0214
     -2591.1564
   2629835.82349   2036044.94046  22297990.4504   22297984.0014
     -2589.9224
  -2926254.07948  -2267559.81344  23079657.0284   23079653.6964
      2478.0164
  -2005763.74347  -1559929.88243  23758302.3174   23758300.0604
      2456.5314
 04  9  3 15  3 30.0010000  0  7G11G14G15G19G22G25G 1
  -2504587.70048  -1944976.64244  22918560.7004   22918555.1814
      1982.3134
   1673775.21449   1295575.58847  20707309.4354   20707304.1264
     -1864.2814
   3961726.77249   3071168.81645  22262473.1534   22262469.5564
     -3870.1724
   2484706.97348   1924387.24845  22960205.5834   22960200.2904
     -2599.3914
   2668715.72449   2066340.95346  22305388.8964   22305383.0094
     -2594.1874
  -2963387.53448  -2296494.96844  23072590.8024   23072587.1424
      2472.9534
  -2042575.69246  -1588614.51243  23751296.6924   23751294.9544
      2451.5164
 04  9  3 15  3 45.0010000  0  7G11G14G15G19G22G25G 1
  -2534271.04949  -1968106.53044  22912911.9274   22912906.3724
      1975.2814
   1701802.51649   1317415.04647  20712642.7474   20712637.8414
     -1872.8914
   4019832.22449   3116445.77545  22273530.5364   22273527.0794
     -3877.3594
   2523761.92648   1954819.65745  22967637.8644   22967632.3104
     -2608.0004
   2707661.30949   2096688.15346  22312799.9194   22312794.1224
     -2598.7344
  -3000443.69448  -2325369.89944  23065538.5284   23065535.6064
      2467.6884
  -2079308.66746  -1617237.61343  23744307.1464   23744304.6104
      2446.1414
 04  9  3 15  4  0.0010000  0  7G11G14G15G19G22G25G 1
  -2563850.47149  -1991155.43445  22907283.2314   22907277.6694
      1968.3754
   1729956.87249   1339353.48447  20718000.4354   20717995.4194
     -1881.3124
   4078043.95848   3161805.54045  22284607.8024   22284604.4234
     -3884.4374
   2562943.95048   1985351.08245  22975094.4034   22975088.5484
     -2616.4844
   2746672.32049   2127086.31846  22320223.5604   22320217.9934
     -2603.0944
  -3037422.31748  -2354184.38944  23058502.3254   23058498.8374
      2462.5004
  -2115962.62347  -1645799.11143  23737332.3414   23737329.1264
      2440.8134
 04  9  3 15  4 15.0010000  0  7G11G14G15G19G22G25G 1
  -2593327.06849  -2014124.21544  22901673.9424   22901668.7284
      1961.8444
   1758236.61949   1361389.65547  20723381.9504   20723376.6264
     -1889.2814
   4136360.41449   3207246.89545  22295705.2784   22295701.3644
     -3891.0624
   2602251.24748   2015980.12845  22982574.0914   22982568.5874
     -2624.5624
   2785747.42049   2157534.42846  22327659.3254   22327653.5174
     -2607.0004
  -3074324.42848  -2382939.27544  23051479.9034   23051476.5484
      2457.7664
  -2152538.81547  -1674300.06043  23730372.1304   23730368.9704
      2435.9844
 04  9  3 15  4 30.0010000  0  7G11G14G15G19G22G25G 1
  -2622701.44549  -2037013.34144  22896083.8964   22896078.4354
      1955.1254
   1786640.67449   1383522.67347  20728786.9584   20728781.8494
     -1897.5004
   4194780.30049   3252768.87045  22306822.3174   22306818.3374
     -3897.8124
   2641682.56048   2046705.79145  22990077.9114   22990072.0284
     -2632.6094
   2824885.61549   2188031.70146  22335107.2634   22335101.2284
     -2611.0474
  -3111150.73048  -2411635.06844  23044472.2474   23044468.5754
      2452.7974
  -2189038.03346  -1702741.00742  23723426.0524   23723423.7004
      2430.9224
 04  9  3 15  4 45.0010000  0  7G11G14G15G19G22G25G 1
  -2651972.46349  -2059821.93644  22890514.1854   22890508.2674
      1948.0164
   1815169.72149   1405753.08747  20734215.7244   20734210.3764
     -1906.0314
   4253304.39549   3298372.03345  22317958.4114   22317955.1654
     -3904.9374
   2681238.55748   2077528.63945  22997604.6384   22997599.1814
     -2641.0784
   2864087.88349   2218578.90846  22342567.2084   22342561.1064
     -2615.4534
  -3147899.93248  -2440270.79144  23037479.6534   23037475.5244
      2447.5474
  -2225459.20446  -1731121.12643  23716495.6384   23716492.4074
      2425.5164
 04  9  3 15  5  0.0010000  0  7G11G14G15G19G22G25G 1
  -2681141.25449  -2082550.85545  22884963.4504   22884958.0754
      1941.0474
   1843821.96149   1428079.50347  20739668.1774   20739663.4544
     -1914.4224
   4311930.98148   3344055.06445  22329114.4894   22329111.1384
     -3912.0474
   2720917.44448   2108447.23345  23005156.0674   23005149.6734
     -2649.5314
   2903352.76849   2249174.91246  22350039.2634   22350032.9934
     -2619.8444
  -3184573.13148  -2468847.29644  23030500.5994   23030496.6694
      2442.2344
  -2261803.63246  -1759441.45743  23709579.6774   23709576.2744
      2420.2664
 04  9  3 15  5 15.0010000  0  7G11G14G15G19G22G25G 1
  -2710208.98749  -2105201.03745  22879431.6774   22879426.7864
      1934.3284
   1872595.67849   1450500.57647  20745143.7944   20745138.3414
     -1922.4534
   4370658.18449   3389816.49545  22340290.1854   22340286.8214
     -3918.7344
   2760717.32047   2139460.10645  23012729.2004   23012723.8104
     -2657.5314
   2942678.70948   2279818.47746  22357522.5524   22357516.5324
     -2624.0474
  -3221171.49848  -2497365.47744  23023536.3414   23023532.4034
      2437.1414
  -2298072.65146  -1787703.00343  23702677.9114   23702675.1964
      2415.1884
 04  9  3 15  5 30.0010000  0  7G11G14G15G19G22G25G 1
  -2739174.60049  -2127771.65244  22873919.9664   22873914.7904
      1927.6724
   1901491.60449   1473016.87547  20750642.4354   20750637.3024
     -1930.4694
   4429486.70948   3435656.87845  22351484.8644   22351481.7674
     -3925.2814
   2800638.69247   2170567.64345  23020326.5604   23020320.5014
     -2665.4694
   2982066.42548   2310510.19446  22365017.4504   22365011.7434
     -2627.9064
  -3257693.80847  -2525824.38844  23016585.7474   23016582.6224
      2432.2504
  -2334265.27347  -1815905.04643  23695790.5834   23695788.2244
      2410.3284
 04  9  3 15  5 45.0010000  0  7G11G14G15G19G22G25G 1
  -2768037.49749  -2150262.21044  22868427.3964   22868421.8764
      1920.4534
   1930509.68449   1495628.35347  20756164.5834   20756159.2744
     -1938.8754
   4488416.51748   3481576.18545  22362698.9894   22362695.4384
     -3932.2664
   2840681.49648   2201769.81545  23027945.9744   23027940.0324
     -2673.7974
   3021516.23449   2341250.27846  22372524.7004   22372518.4424
     -2632.3444
  -3294139.41747  -2554223.54744  23009650.6694   23009646.7084
      2426.9064
  -2370381.09646  -1844047.25043  23688918.2394   23688915.4544
      2404.8914
 04  9  3 15  6  0.0010000  0  7G11G14G15G19G22G25G 1
  -2796796.32549  -2172671.69745  22862954.9114   22862949.5444
      1914.0784
   1959651.02549   1518335.89447  20761710.1064   20761704.8964
     -1946.6094
   4547448.60848   3527575.18845  22373932.4504   22373929.3294
     -3938.6254
   2880846.58448   2233067.27545  23035588.9194   23035583.2314
     -2681.4844
   3061029.30149   2372039.66646  22380043.9354   22380037.5634
     -2636.0624
  -3330506.81247  -2582561.74144  23002729.9814   23002727.0134
      2422.1724
  -2406418.79947  -1872128.56343  23682060.4814   23682058.0014
      2400.1094
 04  9  3 15  6 15.0010000  0  7G11G14G15G19G22G25G 1
  -2825451.62649  -2195000.50345  22857502.1774   22857497.0524
      1906.5164
   1988914.23249   1541138.38147  20767277.9744   20767273.3804
     -1955.2504
   4606581.70548   3573652.89945  22385185.1534   22385181.9974
     -3945.9064
   2921132.64148   2264458.98545  23043255.6304   23043249.6814
     -2690.0784
   3100604.74449   2402877.65246  22387574.8334   22387568.8294
     -2640.7504
  -3366796.64248  -2610839.50744  22995824.2314   22995820.5484
      2416.3914
  -2442379.20147  -1900149.66543  23675217.1224   23675214.4464
      2394.4694
 04  9  3 15  6 30.0010000  0  7G11G14G15G19G22G25G 1
  -2854004.18749  -2217249.24845  22852068.0914   22852063.6184
      1900.2814
   2018298.19749   1564034.97547  20772870.2004   20772864.7434
     -1962.7194
   4665814.65848   3619808.41845  22396456.8254   22396453.4664
     -3952.0474
   2961538.41448   2295943.98845  23050944.2314   23050938.4194
     -2697.5474
   3140241.47749   2433763.40546  22395117.4354   22395111.6224
     -2644.2344
  -3403009.64848  -2639057.40044  22988933.4114   22988930.0054
      2411.8444
  -2478263.08547  -1928111.10343  23668388.5054   23668386.2984
      2389.8594
 04  9  3 15  6 45.0010000  0  7G11G14G15G19G22G25G 1
  -2882452.89949  -2239417.06845  22846654.7164   22846649.7714
      1892.9694
   2047803.37149   1587026.01147  20778484.6464   20778479.4704
     -1971.2034
   4725147.90348   3666042.10145  22407747.4034   22407744.2164
     -3959.0164
   3002064.27048   2327522.56145  23058655.9744   23058650.7554
     -2705.8594
   3179940.23349   2464697.48546  22402671.9114   22402666.2284
     -2648.7814
  -3439144.58948  -2667214.47244  22982056.3884   22982053.3684
      2406.2974
  -2514069.68347  -1956012.32543  23661575.1534   23661572.2394
      2384.4534
 04  9  3 15  7  0.0010000  0  7G11G14G15G19G22G25G 1
  -2910797.93449  -2261504.11445  22841261.0214   22841256.1424
      1886.2664
   2077429.16949   1610111.04247  20784122.4894   20784117.4974
     -1978.9534
   4784580.79848   3712353.41545  22419057.3804   22419053.3254
     -3965.4844
   3042709.52648   2359194.15745  23066390.9974   23066385.6064
     -2713.7034
   3219700.65849   2495679.61846  22410237.8104   22410231.8644
     -2652.7034
  -3475201.44248  -2695310.67844  22975195.5674   22975191.7554
      2401.2504
  -2549799.18046  -1983853.49243  23654775.4504   23654773.0134
      2379.3594
 04  9  3 15  7 15.0010000  0  7G11G14G15G19G22G25G 1
  -2939040.11749  -2283511.00745  22835886.6854   22835881.3844
      1879.3914
   2107174.21349   1633288.99047  20789782.5604   20789777.4034
     -1986.9844
   4844111.98548   3758741.33345  22430385.7394   22430382.3964
     -3972.1254
   3083472.67448   2390957.62745  23074147.6614   23074141.9854
     -2721.4534
   3259521.63849   2526708.91846  22417815.8254   22417810.0404
     -2656.7504
  -3511181.17047  -2723346.81544  22968348.7314   22968344.9894
      2396.0314
  -2585452.59346  -2011635.36443  23647990.5834   23647988.1264
      2374.3444
 04  9  3 15  7 30.0010000  0  7G11G14G15G19G22G25G 1
  -2967177.60449  -2305436.33844  22830532.4894   22830527.1104
      1872.4534
   2137039.82849   1656560.89047  20795466.2164   20795460.2674
     -1995.0004
   4903742.80948   3805206.88545  22441733.1224   22441729.6614
     -3978.6094
   3124354.94248   2422813.92045  23081928.0524   23081922.1734
     -2729.3124
   3299404.67249   2557786.60146  22425405.5054   22425399.7714
     -2660.8284
  -3547081.84948  -2751321.34144  22961516.6854   22961512.9274
      2390.7974
  -2621028.11546  -2039356.53943  23641220.4114   23641218.4194
      2369.3134
 04  9  3 15  7 45.0010000  0  7G11G14G15G19G22G25G 1
  -2995210.48249  -2327280.13645  22825197.9664   22825192.5674
      1865.2974
   2167025.42949   1679926.28347  20801172.2004   20801167.1304
     -2003.0784
   4963472.56048   3851749.51845  22453099.3174   22453095.7004
     -3985.2814
   3165355.56648   2454762.43345  23089730.1224   23089723.9934
     -2737.3594
   3339349.28249   2588912.25046  22433006.4114   22433000.4744
     -2665.0474
  -3582903.53548  -2779234.31044  22954700.3964   22954696.8964
      2385.4064
  -2656526.09547  -2067017.29343  23634466.4354   23634463.1964
      2363.9534
 04  9  3 15  8  0.0010000  0  7G11G14G15G19G22G25G 1
  -3023137.42049  -2349041.38945  22819883.4354   22819878.3724
      1858.2194
   2197131.91349   1703385.87947  20806901.0524   20806896.1964
     -2011.2344
   5023302.21448   3898370.00445  22464484.5604   22464481.3844
     -3992.0164
   3206475.31848   2486803.78845  23097554.7394   23097549.1384
     -2745.3594
   3379356.63549   2620086.79646  22440619.6304   22440613.6304
     -2669.3754
  -3618644.73148  -2807084.55144  22947899.0914   22947895.8064
      2380.0314
  -2691945.26947  -2094616.63443  23627726.1924   23627723.7164
      2358.5474
 04  9  3 15  8 15.0010000  0  7G11G14G15G19G22G25G 1
  -3050957.20849  -2370719.14445  22814589.5994   22814584.7284
      1851.0944
   2227359.90949   1726940.15147  20812653.1774   20812648.5444
     -2019.2344
   5083232.44448   3945068.85745  22475888.9744   22475885.5284
     -3998.6874
   3247714.77748   2518938.41345  23105402.3104   23105396.2474
     -2753.2974
   3419427.63549   2651310.94046  22448244.9354   22448238.9034
     -2673.4374
  -3654304.15748  -2834871.09144  22941113.2244   22941109.7514
      2374.5784
  -2727284.48147  -2122153.68843  23621001.3414   23620998.6264
      2353.2664
 04  9  3 15  8 30.0010000  0  7G11G14G15G19G22G25G 1
  -3078673.93849  -2392316.59745  22809315.0834   22809310.1184
      1844.1564
   2257704.75049   1750585.46847  20818427.9664   20818422.7824
     -2027.0314
   5143258.48348   3991842.35245  22487310.9894   22487307.8724
     -4005.0944
   3289069.17448   2551162.60045  23113271.7164   23113266.0834
     -2760.9694
   3459557.89249   2682581.25146  22455881.4354   22455875.4854
     -2677.5004
  -3689885.88648  -2862597.08444  22934342.4974   22934339.2864
      2369.3284
  -2762548.04147  -2149631.76343  23614291.0604   23614288.2434
      2348.2504
 04  9  3 15  8 45.0010000  0  7G11G14G15G19G22G25G 1
  -3106285.88749  -2413832.40245  22804061.0834   22804055.5714
      1837.3134
   2288167.69949   1774322.82347  20824224.6144   20824219.4664
     -2034.7814
   5203381.54648   4038691.46845  22498752.5444   22498749.4584
     -4011.3914
   3330539.84648   2583477.38545  23121163.3414   23121156.7554
     -2768.6094
   3499748.77049   2713898.79346  22463529.4274   22463523.2824
     -2681.3914
  -3725388.12148  -2890261.14044  22927586.5524   22927582.7164
      2364.1254
  -2797734.28347  -2177049.59843  23607594.9354   23607592.5714
      2343.2034
 04  9  3 15  9  0.0010000  0  7G11G14G15G19G22G25G 1
  -3133789.16449  -2435263.52845  22798827.1064   22798822.1104
      1829.9064
   2318752.07549   1798154.79247  20830044.8964   20830039.7744
     -2043.0314
   5263604.88848   4085618.72745  22510212.7394   22510209.6144
     -4018.1254
   3372129.80348   2615885.12744  23129077.3334   23129071.9274
     -2776.6414
   3540003.76749   2745266.29946  22471189.8334   22471183.8724
     -2685.8124
  -3760807.01748  -2917860.24444  22920846.4424   22920843.2714
      2358.4694
  -2832839.54847  -2204404.32943  23600915.0834   23600912.1774
      2337.5944
 04  9  3 15  9 15.0010000  0  7G11G14G15G19G22G25G 1
  -3161184.21349  -2456610.33045  22793613.9974   22793609.2204
      1822.7034
   2349456.96149   1822080.66547  20835887.6694   20835882.3494
     -2051.0944
   5323927.73348   4132623.50445  22521691.7314   22521688.4384
     -4024.8914
   3413837.96948   2648384.97144  23137014.3334   23137008.3804
     -2784.5474
   3580322.27548   2776683.29946  22478862.2244   22478856.1384
     -2690.0474
  -3796142.79748  -2945394.59544  22914122.6534   22914118.4934
      2352.8444
  -2867864.40147  -2231696.40843  23594249.5214   23594247.4274
      2332.2344
 04  9  3 15  9 30.0010000  0  7G11G14G15G19G22G25G 1
  -3188471.47649  -2477873.13245  22788421.5994   22788416.7044
      1815.3914
   2380281.42049   1846099.71747  20841753.2784   20841748.1304
     -2059.1094
   5384349.06748   4179705.03345  22533189.6774   22533185.7674
     -4031.4844
   3455663.40148   2680976.18744  23144973.0444   23144967.6884
     -2792.2974
   3620703.60149   2808149.25346  22486546.7474   22486540.9034
     -2694.2974
  -3831395.76548  -2972864.40344  22907413.7864   22907410.2354
      2347.2974
  -2902809.35147  -2258926.21643  23587599.9194   23587597.3334
      2327.0314
 04  9  3 15  9 45.0010000  0  7G11G14G15G19G22G25G 1
  -3215650.37749  -2499051.49445  22783249.2554   22783244.4314
      1808.6094
   2411225.53449   1870212.00347  20847641.8254   20847636.7634
     -2066.7034
   5444868.89148   4226863.31145  22544705.9664   22544703.1344
     -4037.6094
   3497606.00448   2713658.71944  23152954.9424   23152949.3994
     -2799.8444
   3661147.99049   2839664.34746  22494242.7474   22494236.7904
     -2698.1254
  -3866565.57648  -3000269.42644  22900720.9114   22900717.6854
      2342.1414
  -2937674.03647  -2286093.49343  23580965.3254   23580962.5444
      2321.9224
 04  9  3 15 10  0.0010000  0  7G11G14G15G19G22G25G 1
  -3242722.63748  -2520146.76145  22778097.5284   22778092.7354
      1801.1884
   2442287.03249   1894415.75747  20853552.5134   20853547.2864
     -2074.7814
   5505484.97948   4274096.58845  22556240.7474   22556237.8534
     -4044.2974
   3539663.50348   2746430.76445  23160958.8254   23160952.5244
     -2807.6724
   3701653.46149   2871227.02846  22501950.9114   22501944.6964
     -2702.4374
  -3901653.77748  -3027610.85745  22894043.7784   22894040.5054
      2336.5004
  -2972460.31447  -2313199.68743  23574346.6614   23574342.3964
      2316.3914
 04  9  3 15 10 15.0010000  0  7G11G14G15G19G22G25G 1
  -3269689.50049  -2541159.89045  22772966.0054   22772961.2674
      1794.4224
   2473464.09349   1918709.56547  20859485.4274   20859480.2824
     -2082.1564
   5566195.52348   4321403.48445  22567793.9504   22567790.7944
     -4050.3594
   3581833.94448   2779290.84145  23168983.0364   23168977.0714
     -2814.8914
   3742218.44149   2902836.09746  22509669.9664   22509663.9704
     -2706.1874
  -3936661.35048  -3054889.45345  22887382.4664   22887379.4464
      2331.2974
  -3007169.48947  -2340245.77243  23567740.7864   23567737.8494
      2311.5784
 04  9  3 15 10 30.0010000  0  7G11G14G15G19G22G25G 1
  -3296549.92249  -2562090.09545  22767854.7944   22767849.4544
      1787.0474
   2504756.96749   1943093.60947  20865440.4354   20865435.1464
     -2090.1724
   5627000.76548   4368784.14445  22579364.7244   22579361.2744
     -4056.9374
   3624117.45548   2812238.99145  23177029.1774   23177023.2514
     -2822.8284
   3782843.36149   2934491.85046  22517400.6534   22517395.0794
     -2710.5164
  -3971587.58548  -3082104.67245  22880735.7944   22880732.5174
      2325.5164
  -3041800.98847  -2367231.33243  23561150.2554   23561148.1464
      2305.9694
 04  9  3 15 10 45.0010000  0  7G11G14G15G19G22G25G 1
  -3323303.26449  -2582936.85345  22762763.9814   22762758.5014
      1780.0474
   2536166.23949   1967568.35947  20871417.4504   20871412.2164
     -2097.7194
   5687901.16548   4416238.98345  22590953.7474   22590950.3214
     -4063.1094
   3666514.43648   2845275.58745  23185097.5754   23185091.7554
     -2830.1564
   3823528.91749   2966194.86846  22525143.0754   22525137.0794
     -2714.3914
  -4006431.56948  -3109255.81245  22874105.6304   22874101.9894
      2320.3444
  -3076353.97047  -2394155.71543  23554575.5834   23554572.8764
      2301.0004
 04  9  3 15 11  0.0010000  0  7G11G14G15G19G22G25G 1
  -3349947.74049  -2603698.79845  22757693.5134   22757688.3724
      1772.5784
   2567693.18649   1992134.79747  20877416.4194   20877411.2984
     -2105.7974
   5748897.99048   4463768.94545  22602561.0284   22602557.5214
     -4069.7664
   3709026.14248   2878401.56645  23193187.0604   23193181.1344
     -2838.0164
   3864276.59948   2997946.28446  22532897.0134   22532890.9274
     -2718.6254
  -4041191.30247  -3136341.30044  22867490.7554   22867487.4704
      2314.3754
  -3110826.73047  -2421017.57843  23548015.8254   23548012.9384
      2295.4384
 04  9  3 15 11 15.0010000  0  7G11G14G15G19G22G25G 1
  -3376484.48549  -2624376.77245  22752643.6464   22752638.7284
      1765.5004
   2599335.94949   2016791.48847  20883438.2244   20883433.3064
     -2113.4064
   5809989.43948   4511372.63945  22614186.4274   22614182.7744
     -4075.9534
   3751650.50348   2911615.34944  23201297.7314   23201292.0794
     -2845.4694
   3905084.99449   3029745.01646  22540662.3964   22540656.5364
     -2722.5944
  -4075868.07048  -3163362.12445  22860891.8964   22860888.7864
      2309.0004
  -3145220.73248  -2447818.09143  23541470.3564   23541467.8924
      2290.2814
 04  9  3 15 11 30.0010000  0  7G11G14G15G19G22G25G 1
  -3402912.10949  -2644969.73245  22747614.6854   22747609.3294
      1758.2194
   2631095.51049   2041539.19347  20889481.8804   20889476.2354
     -2121.1874
   5871176.42648   4559050.77145  22625829.7634   22625826.6184
     -4082.3284
   3794388.37648   2944917.57245  23209430.9974   23209425.1144
     -2853.0164
   3945955.23649   3061591.94946  22548440.3174   22548433.9664
     -2726.7194
  -4110460.29748  -3190317.09245  22854309.0134   22854305.8414
      2303.2664
  -3179534.60647  -2474556.14543  23534940.5834   23534937.5634
      2284.9224
 04  9  3 15 11 45.0010000  0  7G11G14G15G19G22G25G 1
  -3429231.96549  -2665478.71145  22742606.0524   22742601.1144
      1750.7814
   2662969.96749   2066376.42047  20895547.3804   20895542.1104
     -2129.0784
   5932457.11448   4606801.93645  22637491.6924   22637487.7124
     -4088.7034
   3837237.82048   2978306.72644  23217584.7474   23217579.3764
     -2860.5474
   3986885.52249   3093485.65146  22556229.0284   22556223.3334
     -2730.9224
  -4144969.40248  -3217207.28545  22847742.4584   22847738.7124
      2297.6254
  -3213769.87248  -2501232.96743  23528426.3024   23528423.3884
      2279.4064
 04  9  3 15 12  0.0010000  0  7G11G14G15G19G22G25G 1
  -3455442.01149  -2685902.11045  22737618.3024   22737613.1884
      1743.6724
   2694960.87249   2091304.39047  20901634.9584   20901629.7044
     -2136.5474
   5993832.95948   4654627.23545  22649170.4114   22649167.6224
     -4094.9064
   3880200.29448   3011783.95645  23225759.8414   23225755.3494
     -2867.9694
   4027877.71349   3125427.59146  22564029.4664   22564023.2434
     -2734.8594
  -4179393.15448  -3244030.97545  22841191.6924   22841188.1924
      2292.0634
  -3247924.64748  -2527847.07943  23521926.6224   23521922.9544
      2274.2974
 04  9  3 15 12 15.0010000  0  7G11G14G15G19G22G25G 1
  -3481545.61149  -2706242.58245  22732650.9034   22732645.8924
      1736.5474
   2727064.31949   2116320.05647  20907743.3254   20907738.6734
     -2144.0624
   6055300.00248   4702523.61245  22660867.6304   22660864.1264
     -4100.9844
   3923271.73748   3045346.08444  23233956.2164   23233950.5794
     -2875.2034
   4068928.01949   3157414.83046  22571840.7784   22571834.9464
     -2738.7504
  -4213735.01648  -3270790.84045  22834657.0444   22834653.3334
      2286.6094
  -3282002.46248  -2554401.20743  23515442.1464   23515438.7354
      2269.1254
 04  9  3 15 12 30.0010000  0  7G11G14G15G19G22G25G 1
  -3507533.56049  -2726492.93745  22727705.9114   22727700.7944
      1728.6564
   2759288.92649   2141430.13447  20913875.7244   20913871.1224
     -2152.3444
   6116866.86248   4750497.75944  22672583.5134   22672579.9154
     -4107.7974
   3966460.51448   3078999.67044  23242175.2394   23242169.5364
     -2883.0944
   4110045.39049   3189454.32446  22579665.0284   22579659.3804
     -2743.4064
  -4247985.75948  -3297479.70745  22828139.1224   22828135.8724
      2280.2664
  -3315994.39247  -2580888.42343  23508973.3884   23508970.3024
      2263.2974
 04  9  3 15 12 45.0010000  0  7G11G14G15G19G22G25G 1
  -3533409.57849  -2746656.07745  22722782.3494   22722777.4314
      1721.7814
   2791630.31449   2166631.19447  20920030.5994   20920025.1534
     -2159.5624
   6178529.19448   4798546.29645  22684317.6774   22684314.2594
     -4113.5474
   4009762.43248   3112741.40644  23250415.4584   23250408.9814
     -2890.0784
   4151225.81949   3221542.94946  22587501.9114   22587496.3414
     -2747.0624
  -4282148.89248  -3324100.31345  22821638.1854   22821634.7354
      2275.0474
  -3349904.26647  -2607311.66343  23502520.2864   23502517.3174
      2258.4844
 04  9  3 15 13  0.0010000  0  7G11G14G15G19G22G25G 1
  -3559179.20649  -2766736.30145  22717878.1304   22717873.3764
      1714.2974
   2824082.68849   2191918.75447  20926205.9584   20926201.1464
     -2167.3914
   6240281.11848   4846664.64844  22696067.9894   22696064.8494
     -4119.9064
   4053171.38048   3146566.53844  23258675.7084   23258669.9074
     -2897.6874
   4192463.59949   3253676.26346  22595349.3334   22595343.4974
     -2751.2814
  -4316229.90748  -3350656.93745  22815152.7084   22815148.8534
      2269.1414
  -3383737.59548  -2633675.28643  23496082.5524   23496079.5914
      2252.7814
 04  9  3 15 13 15.0010000  0  7G11G14G15G19G22G25G 1
  -3584840.05149  -2786731.76345  22712994.9744   22712990.5134
      1707.1724
   2856647.83049   2217294.19147  20932402.9194   20932397.7514
     -2174.6874
   6302124.51448   4894854.28544  22707836.3174   22707833.6534
     -4125.8914
   4096689.17448   3180476.49344  23266956.8964   23266951.2554
     -2904.7344
   4233760.81449   3285855.89846  22603208.0674   22603201.7284
     -2755.0314
  -4350226.29848  -3377147.60745  22808683.9814   22808679.5604
      2263.7034
  -3417492.11847  -2659977.50043  23489659.6924   23489656.2474
      2247.7504
 04  9  3 15 13 30.0010000  0  7G11G14G15G19G22G25G 1
  -3610389.59149  -2806640.50745  22708133.1464   22708128.1184
      1699.3444
   2889327.62149   2242758.94247  20938621.7164   20938616.7124
     -2182.7664
   6364061.22148   4943116.61344  22719622.9114   22719620.2434
     -4132.5004
   4140317.53948   3214472.59044  23275259.2084   23275253.2864
     -2912.5314
   4275119.45749   3318083.39646  22611078.0754   22611072.3294
     -2759.5784
  -4384135.69448  -3403570.49745  22802229.8884   22802226.8924
      2257.4694
  -3451165.58847  -2686216.56643  23483251.2864   23483248.1854
      2241.9064
 04  9  3 15 13 45.0010000  0  7G11G14G15G19G22G25G 1
  -3635829.53549  -2826463.84645  22703292.2394   22703286.8294
      1692.2974
   2922119.90249   2268311.37247  20944861.8104   20944856.6264
     -2189.8914
   6426088.98648   4991449.89744  22731426.3024   22731423.3214
     -4138.3284
   4184054.09648   3248553.00944  23283582.0054   23283576.1264
     -2919.4844
   4316537.56549   3350357.22746  22618959.6924   22618953.8564
     -2763.1724
  -4417959.82548  -3429926.94345  22795793.7944   22795790.7204
      2252.1414
  -3484759.96547  -2712393.98343  23476858.5674   23476854.8294
      2236.9064
 04  9  3 15 14  0.0010000  0  7G11G14G15G19G22G25G 1
  -3661162.09349  -2846203.50545  22698471.4424   22698466.2084
      1684.9224
   2955022.05949   2293949.40447  20951123.0914   20951117.6264
     -2197.5164
   6488205.26948   5039852.16645  22743247.2714   22743243.8964
     -4144.3914
   4227896.31948   3282715.75944  23291924.9744   23291919.1964
     -2926.6724
   4358012.98749   3382675.70946  22626852.1694   22626846.1924
     -2767.3284
  -4451700.35348  -3456218.25145  22789372.9974   22789369.9114
      2246.2814
  -3518277.32847  -2738511.41143  23470481.1614   23470477.4544
      2231.6724
 04  9  3 15 14 15.0010000  0  7G11G14G15G19G22G25G 1
  -3686380.76149  -2865854.42745  22693672.5364   22693667.1854
      1677.4224
   2988040.10149   2319677.74947  20957405.8804   20957400.5484
     -2205.0784
   6550415.89448   5088327.96044  22755085.3024   22755082.1304
     -4150.4374
   4271849.92048   3316965.30144  23300289.1304   23300283.3804
     -2933.9064
   4399551.71749   3415043.54246  22634756.9194   22634751.3214
     -2771.3124
  -4485351.00748  -3482439.52345  22782969.4584   22782966.1734
      2240.3914
  -3551711.35347  -2764563.89943  23464118.2244   23464114.6494
      2226.2034
 04  9  3 15 14 30.0010000  0  7G11G14G15G19G22G25G 1
  -3711490.37449  -2885420.34345  22688894.1924   22688889.3684
      1670.2034
   3021168.74249   2345492.26147  20963710.3884   20963705.0834
     -2212.3444
   6612715.58948   5136873.13844  22766940.3414   22766937.0674
     -4156.4374
   4315909.49748   3351297.42144  23308673.2244   23308667.9974
     -2940.9064
   4441148.64749   3447456.71646  22642672.3104   22642666.3334
     -2775.1724
  -4518916.42648  -3508594.38345  22776582.8024   22776578.4974
      2234.7344
  -3585066.99248  -2790555.27643  23457770.9034   23457767.6224
      2220.9534
 04  9  3 15 14 45.0010000  0  7G11G14G15G19G22G25G 1
  -3736489.26749  -2904899.99945  22684137.3104   22684132.1854
      1663.3134
   3054409.05649   2371393.79347  20970035.6304   20970030.6344
     -2219.2814
   6675105.39548   5185488.54644  22778813.1614   22778809.5634
     -4161.8754
   4360075.95348   3385712.80444  23317077.6534   23317071.9234
     -2947.5624
   4482805.20749   3479916.35446  22650599.3564   22650593.7514
     -2778.6564
  -4552395.04848  -3534681.59045  22770212.0994   22770208.1424
      2229.3444
  -3618342.82748  -2816484.51443  23451438.5674   23451435.3764
      2216.2344
 04  9  3 15 15  0.0010000  0  7G11G14G15G19G22G25G 1
  -3761379.21449  -2924294.76545  22679400.9814   22679395.7244
      1655.1724
   3087758.69049   2397380.51447  20976382.0054   20976376.7634
     -2227.5004
   6737583.10448   5234172.43544  22790701.9814   22790698.2204
     -4168.5474
   4404346.92148   3420209.64944  23325502.4664   23325496.7864
     -2955.2664
   4524519.34849   3512420.85946  22658537.2004   22658530.9784
     -2783.3284
  -4585788.65448  -3560702.58645  22763857.5134   22763853.4744
      2222.9064
  -3651540.73948  -2842352.99743  23445121.0604   23445118.1694
      2210.0944
 04  9  3 15 15 15.0010000  0  7G11G14G15G19G22G25G 1
  -3786156.62049  -2943601.82245  22674685.8254   22674681.0214
      1648.1094
   3121220.62949   2423454.73947  20982749.6534   20982744.6884
     -2234.5004
   6800151.63848   5282927.11444  22802608.1464   22802605.0834
     -4174.2344
   4448725.31448   3454790.19644  23333947.4274   23333942.0834
     -2962.1414
   4566294.25249   3544972.71446  22666487.0604   22666481.1304
     -2786.9064
  -4619093.52549  -3586654.40945  22757519.3334   22757515.3294
      2217.3754
  -3684657.42348  -2868158.22244  23438819.4814   23438816.2084
      2205.1254
 04  9  3 15 15 30.0010000  0  7G11G14G15G19G22G25G 1
  -3810824.70849  -2962823.71945  22669991.4584   22669986.6614
      1641.1254
   3154791.19449   2449613.61747  20989137.6924   20989132.4034
     -2241.5004
   6862807.24548   5331749.61744  22814531.6064   22814528.7984
     -4179.7504
   4493207.28648   3489451.44444  23342411.5994   23342406.3964
     -2968.7194
   4608126.38849   3577569.16446  22674447.0524   22674441.5994
     -2790.5624
  -4652312.68949  -3612539.45845  22751198.1464   22751194.2474
      2212.0164
  -3717696.13848  -2893902.64743  23432531.9034   23432529.5874
      2200.2034
 04  9  3 15 15 45.0010000  0  7G11G14G15G19G22G25G 1
  -3835382.41549  -2981959.58645  22665318.5604   22665313.4194
      1633.5944
   3188470.97649   2475857.58947  20995546.6384   20995541.8024
     -2248.8754
   6925550.45748   5380640.40844  22826471.2864   22826468.2514
     -4185.7194
   4537793.18548   3524193.67644  23350896.2314   23350890.9974
     -2975.7664
   4650016.50549   3610210.78546  22682418.8884   22682412.8104
     -2794.4374
  -4685445.17549  -3638356.96545  22744892.7004   22744889.8414
      2206.0164
  -3750656.06448  -2919585.71043  23426259.2314   23426257.0994
      2194.7814
 04  9  3 15 16  0.0010000  0  7G11G14G15G19G22G25G 1
  -3859830.56549  -3001010.09545  22660666.2244   22660661.1424
      1626.3284
   3222258.70449   2502185.68547  21001976.5754   21001971.4544
     -2256.0474
   6988379.94448   5429598.42445  22838427.0604   22838423.5874
     -4191.4374
   4582481.76248   3559015.92044  23359401.1384   23359395.2284
     -2982.6094
   4691963.85249   3642897.02146  22690400.9354   22690394.4854
     -2798.3914
  -4718491.68949  -3664107.47545  22738604.9424   22738600.7904
      2200.3134
  -3783538.02748  -2945208.02243  23420002.8564   23419999.1534
      2189.5944
 04  9  3 15 16 15.0010000  0  7G11G14G15G19G22G25G 1
  -3884165.02449  -3019972.00945  22656035.2784   22656030.5994
      1618.7504
   3256158.06749   2528600.76447  21008427.3494   21008421.9624
     -2263.4534
   7051299.48548   5478626.59444  22850400.1924   22850397.0484
     -4197.4224
   4627276.53348   3593920.93044  23367924.5364   23367918.5714
     -2989.6414
   4733972.09249   3675630.69646  22698394.7864   22698388.9314
     -2802.3754
  -4751447.89748  -3689787.63745  22732333.2554   22732329.3724
      2194.2504
  -3816337.99548  -2970766.43443  23413760.6304   23413758.2354
      2184.0944
 04  9  3 15 16 30.0010000  0  7G11G14G15G19G22G25G 1
  -3908387.34349  -3038846.55445  22651425.7944   22651421.0134
      1611.0314
   3290166.66749   2555100.96147  21014898.7784   21014894.2284
     -2270.9374
   7114306.66848   5527723.06544  22862390.0444   22862386.9074
     -4203.5004
   4672175.10048   3628906.80544  23376468.5444   23376462.8254
     -2996.7504
   4776039.27149   3708410.29246  22706400.2004   22706394.1034
     -2806.5944
  -4784315.56349  -3715398.78545  22726079.0834   22726074.8414
      2188.1724
  -3849057.86148  -2996262.43744  23407534.9114   23407531.2164
      2178.5784
 04  9  3 15 16 45.0010000  0  7G11G14G15G19G22G25G 1
  -3932495.43049  -3057632.07045  22646838.5214   22646833.2824
      1603.2664
   3324286.22349   2581687.61847  21021391.6924   21021386.8884
     -2278.4844
   7177403.25248   5576889.20744  22874397.2244   22874393.8724
     -4209.5004
   4717179.08748   3663974.82244  23385032.3804   23385027.3724
     -3003.9224
   4818167.23949   3741237.26246  22714416.9034   22714411.0714
     -2810.6254
  -4817092.33148  -3740939.10845  22719841.3254   22719837.8884
      2181.9064
  -3881695.51448  -3021694.38044  23401324.3804   23401320.4234
      2172.9224
 04  9  3 15 17  0.0010000  0  7G11G14G15G19G22G25G 1
  -3956488.96649  -3076328.33045  22642272.7944   22642267.9314
      1595.8594
   3358516.52849   2608360.58147  21027905.4424   21027900.1774
     -2285.5624
   7240588.89448   5626124.72844  22886421.0134   22886417.8604
     -4215.1874
   4762287.99648   3699124.60644  23393616.4504   23393610.8024
     -3010.6414
   4860355.96449   3774111.57646  22722445.0914   22722439.3454
     -2814.4064
  -4849777.91648  -3766408.38345  22713621.7474   22713617.6774
      2176.1884
  -3914250.89048  -3047062.21644  23395129.3964   23395125.7474
      2167.7504
 04  9  3 15 17 15.0010000  0  7G11G14G15G19G22G25G 1
  -3980373.09049  -3094939.33645  22637727.6224   22637722.8374
      1588.4844
   3392852.08149   2635115.55047  21034439.1384   21034434.4074
     -2292.7034
   7303858.05548   5675425.34844  22898460.8024   22898457.4974
     -4220.9224
   4807496.36448   3734351.87144  23402219.3724   23402213.4934
     -3017.3124
   4902600.18349   3807029.12946  22730484.0284   22730477.6774
     -2818.2814
  -4882377.27049  -3791810.45445  22707418.2004   22707414.5564
      2170.2504
  -3946729.17348  -3072369.93943  23388948.4504   23388945.3924
      2162.5314
 04  9  3 15 17 30.0010000  0  7G11G14G15G19G22G25G 1
  -4004142.13649  -3113460.66445  22633204.4814   22633199.7984
      1580.7194
   3427297.90849   2661956.43247  21040993.8494   21040989.0244
     -2300.0784
   7367215.76148   5724794.95544  22910517.1064   22910514.5754
     -4226.7974
   4852808.92848   3769660.33944  23410841.9194   23410836.1924
     -3024.2814
   4944905.10349   3839993.98346  22738534.2244   22738528.3884
     -2822.3914
  -4914884.85548  -3817141.02745  22701231.9974   22701228.3534
      2164.0474
  -3979124.98848  -3097613.42244  23382783.3804   23382780.7864
      2156.9534
 04  9  3 15 17 45.0010000  0  7G11G14G15G19G22G25G 1
  -4027796.01449  -3131892.26645  22628703.3174   22628698.2434
      1573.1094
   3461853.60249   2688882.93947  21047569.5994   21047564.6344
     -2307.3914
   7430661.60648   5774233.24244  22922590.8564   22922587.8064
     -4232.6724
   4898225.09648   3805049.53344  23419484.2244   23419479.1734
     -3031.2034
   4987270.58249   3873006.03346  22746595.8644   22746589.6924
     -2826.4844
  -4947300.48548  -3842399.94745  22695063.5444   22695060.0994
      2157.9694
  -4011438.31848  -3122792.63544  23376634.8564   23376631.4854
      2151.4844
 04  9  3 15 18  0.0010000  0  7G11G14G15G19G22G25G 1
  -4051333.90049  -3150233.48345  22624223.9894   22624219.1574
      1565.2504
   3496519.48649   2715895.30047  21054166.5754   21054161.1964
     -2314.8284
   7494195.72648   5823740.30444  22934680.8804   22934677.5524
     -4238.6094
   4943745.17348   3840519.69844  23428147.2004   23428141.2284
     -3038.1254
   5029697.13649   3906065.65946  22754669.5834   22754663.6144
     -2830.5314
  -4979623.30248  -3867586.54145  22688912.6224   22688908.6854
      2151.7194
  -4043668.44147  -3147907.00344  23370501.4504   23370498.9504
      2145.7504
 04  9  3 15 18 15.0010000  0  7G11G14G15G19G22G25G 1
  -4074756.92649  -3168485.19145  22619766.9194   22619762.2474
      1557.5474
   3531293.90349   2742992.25047  21060783.9114   21060778.6924
     -2322.0944
   7557816.57348   5873314.94644  22946787.6774   22946784.5244
     -4244.4534
   4989367.42448   3876069.47944  23436828.2314   23436822.3454
     -3045.0944
   5072183.49049   3939171.88446  22762754.5754   22762748.8064
     -2834.5474
  -5011854.30648  -3892701.60145  22682779.1854   22682775.6034
      2145.4694
  -4075816.59748  -3172957.51444  23364384.2474   23364380.8024
      2140.3134
 04  9  3 15 18 30.0010000  0  7G11G14G15G19G22G25G 1
  -4098061.31849  -3186644.45845  22615331.8964   22615327.3334
      1549.7194
   3566180.17149   2770176.34647  21067422.6384   21067417.1144
     -2329.4064
   7621527.41448   5922959.73144  22958911.6534   22958908.0634
     -4250.3594
   5035094.98748   3911701.32844  23445529.7714   23445523.5754
     -3051.9534
   5114733.12449   3972327.42246  22770851.7714   22770845.6854
     -2838.7034
  -5043989.74248  -3917742.19545  22676664.1064   22676660.5794
      2139.1884
  -4107879.17948  -3197941.34644  23358282.8564   23358279.7784
      2134.7194
 04  9  3 15 18 45.0010000  0  7G11G14G15G19G22G25G 1
  -4121250.42449  -3204713.89945  22610919.4814   22610914.0874
      1541.9694
   3601174.37249   2797444.54547  21074081.7634   21074076.4784
     -2336.6564
   7685324.27048   5972671.53144  22971051.5444   22971048.2124
     -4256.0624
   5080923.80948   3947412.09744  23454250.6064   23454245.2594
     -3058.7194
   5157342.27249   4005529.34746  22778960.1464   22778953.5364
     -2842.7034
  -5076032.84448  -3942710.82745  22670566.8964   22670563.0674
      2133.0164
  -4139859.79048  -3222861.28244  23352197.0834   23352194.5364
      2129.2504
 04  9  3 15 19  0.0010000  0  7G11G14G15G19G22G25G 1
  -4144318.95049  -3222689.37045  22606529.7784   22606524.5014
      1534.1094
   3636281.37149   2824800.63647  21080762.2634   21080757.3254
     -2343.9534
   7749211.95848   6022454.11044  22983208.8804   22983206.3724
     -4261.9374
   5126858.49748   3983205.32344  23462991.9584   23462986.4664
     -3065.5944
   5200016.02248   4038781.60046  22787080.1144   22787074.2674
     -2846.8444
  -5107978.28148  -3967603.34845  22664488.0364   22664484.0564
      2126.7034
  -4171753.17948  -3247713.27444  23346128.1064   23346124.8214
      2123.6094
 04  9  3 15 19 15.0010000  0  7G11G14G15G19G22G25G 1
  -4167271.53549  -3240574.50745  22602161.8254   22602156.9464
      1526.2034
   3671495.82549   2852240.46447  21087463.5834   21087458.5874
     -2351.3124
   7813185.30448   6072303.42644  22995382.3964   22995379.9624
     -4267.8444
   5172893.91648   4019077.05044  23471752.1464   23471746.9854
     -3072.4844
   5242749.50748   4072080.39946  22795212.4424   22795206.4814
     -2850.9844
  -5139830.65148  -3992423.37845  22658426.5054   22658422.8604
      2120.3444
  -4203564.15148  -3272501.01544  23340074.2394   23340071.3724
      2117.8914
 04  9  3 15 19 30.0010000  0  7G11G14G15G19G22G25G 1
  -4190101.10849  -3258363.79845  22597817.6224   22597812.7714
      1518.0164
   3706824.30049   2879769.13247  21094186.3724   21094181.2164
     -2358.7974
   7877250.81048   6122224.56844  23007574.3414   23007571.7004
     -4273.9374
   5219036.47148   4055032.26344  23480532.6224   23480527.2744
     -3079.5314
   5285549.38248   4105430.93246  22803356.7554   22803351.0244
     -2855.3914
  -5171582.85248  -4017165.33545  22652384.5134   22652379.9314
      2113.6414
  -4235285.85347  -3297219.22044  23334037.9504   23334034.8454
      2111.9384
 04  9  3 15 19 45.0010000  0  7G11G14G15G19G22G25G 1
  -4212811.69849  -3276060.35045  22593496.1534   22593490.9974
      1510.2974
   3742262.31949   2907383.16547  21100930.0754   21100925.2554
     -2365.9064
   7941403.95148   6172214.00044  23019782.0444   23019779.2244
     -4279.5624
   5265281.39348   4091067.23344  23489333.1774   23489326.7594
     -3086.1564
   5328411.37648   4138829.86945  22811513.2554   22811506.7244
     -2859.2974
  -5203238.79648  -4041832.29445  22646360.1534   22646356.7474
      2107.3594
  -4266922.48647  -3321871.12944  23328018.2634   23328014.7084
      2106.4694
 04  9  3 15 20  0.0010000  0  7G11G14G15G19G22G25G 1
  -4235404.87149  -3293665.43245  22589197.0054   22589191.9854
      1502.1094
   3777807.86549   2935080.98447  21107693.9814   21107689.0564
     -2373.3754
   8005642.66448   6222270.10444  23032006.2164   23032003.4974
     -4285.6254
   5311626.59348   4127180.36644  23498152.3414   23498146.0444
     -3093.1564
   5371333.71448   4172275.82746  22819680.9424   22819675.2474
     -2863.6564
  -5234799.99648  -4066425.43045  22640354.4744   22640350.6654
      2100.7974
  -4298475.68447  -3346457.99544  23322012.8564   23322010.4624
      2100.6094
 04  9  3 15 20 15.0010000  0  7G11G14G15G19G22G25G 1
  -4257876.02649  -3311175.42545  22584920.6694   22584915.7984
      1494.0314
   3813465.15649   2962865.87547  21114479.3494   21114474.3254
     -2380.8444
   8069971.12348   6272396.13744  23044247.8564   23044244.6304
     -4291.4534
   5358076.21448   4163374.84344  23506991.4274   23506985.6814
     -3100.0944
   5414320.91148   4205772.32646  22827861.4744   22827855.6734
     -2867.8914
  -5266261.48148  -4090940.85245  22634367.2474   22634363.5444
      2094.1884
  -4329940.76248  -3370976.24244  23316025.6614   23316022.7164
      2094.8134
 04  9  3 15 20 30.0010000  0  7G11G14G15G19G22G25G 1
  -4280225.78949  -3328590.82345  22580667.5214   22580662.4424
      1486.2344
   3849232.89049   2990736.82347  21121285.7554   21121280.6384
     -2387.9534
   8134388.04848   6322591.12744  23056505.9194   23056502.7674
     -4297.1094
   5404628.75848   4199649.52744  23515849.4354   23515844.5134
     -3106.7034
   5457371.90048   4239318.53046  22836053.4584   22836047.3724
     -2871.9224
  -5297624.06648  -4115379.21445  22628399.3724   22628395.8644
      2087.8444
  -4361318.70247  -3395426.57244  23310054.4744   23310051.5094
      2089.2344
 04  9  3 15 20 45.0010000  0  7G11G14G15G19G22G25G 1
  -4302458.05849  -3345914.67145  22576436.7474   22576431.6384
      1478.1724
   3885106.54249   3018690.31147  21128112.6694   21128107.1384
     -2395.1874
   8198888.90148   6372851.47444  23068779.8334   23068777.1304
     -4302.8914
   5451279.66148   4236000.86444  23524727.6464   23524721.7164
     -3113.4224
   5500482.25348   4272910.98446  22844257.2394   22844251.4664
     -2876.0784
  -5328891.81448  -4139743.67945  22622449.2164   22622445.0014
      2081.2814
  -4392613.64448  -3419812.20844  23304099.7244   23304096.7554
      2083.5164
 04  9  3 15 21  0.0010000  0  7G11G14G15G19G22G25G 1
  -4324564.78849  -3363140.70145  22572230.0054   22572224.5134
      1469.4694
   3921093.84849   3046732.35847  21134960.4974   21134955.5364
     -2403.0624
   8263481.24248   6423183.14044  23081071.6384   23081068.3564
     -4309.2974
   5498036.41348   4272434.68144  23533624.8804   23533619.2394
     -3120.6414
   5543659.96648   4306555.94046  22852473.8334   22852468.1034
     -2880.8284
  -5360056.47448  -4164027.82745  22616518.4034   22616515.0174
      2074.1564
  -4423817.53948  -3444126.92644  23298161.3724   23298158.6924
      2077.1564
 04  9  3 15 21 15.0010000  0  7G11G14G15G19G22G25G 1
  -4346548.68649  -3380271.01045  22568046.8334   22568041.7004
      1461.6414
   3957191.51449   3074860.39347  21141829.7164   21141825.1184
     -2410.0944
   8328161.85748   6473583.57344  23093379.9664   23093376.8924
     -4314.8594
   5544895.79048   4308948.45244  23542541.9974   23542536.6224
     -3127.2194
   5586902.12248   4340251.10546  22860702.3414   22860696.7474
     -2884.7504
  -5391120.69148  -4188233.68945  22610607.6304   22610603.2284
      2067.7664
  -4454933.23648  -3468372.92244  23292240.3804   23292237.6534
      2071.5634
 04  9  3 15 21 30.0010000  0  7G11G14G15G19G22G25G 1
  -4368414.07949  -3397308.96945  22563886.0284   22563880.6964
      1453.6884
   3993394.63449   3103070.61447  21148718.8334   21148713.5524
     -2417.1094
   8392925.80348   6524048.94944  23105704.2244   23105701.0674
     -4320.5164
   5591852.64348   4345538.17744  23551477.3884   23551471.5404
     -3133.8284
   5630203.92249   4373992.75346  22868942.5834   22868936.6494
     -2888.8594
  -5422088.77848  -4212364.65245  22604714.0524   22604710.3644
      2061.2664
  -4485965.37848  -3492553.78044  23286335.4274   23286331.9274
      2065.9064
 04  9  3 15 21 45.0010000  0  7G11G14G15G19G22G25G 1
  -4390155.37549  -3414250.23945  22559748.8174   22559743.3764
      1445.2814
   4029708.24849   3131366.91947  21155629.2084   21155624.0564
     -2424.5624
   8457778.10348   6574583.18244  23118045.2164   23118041.8374
     -4326.4534
   5638911.87448   4382207.69044  23560432.4974   23560426.7284
     -3140.6874
   5673570.59548   4407784.94746  22877195.0134   22877189.2434
     -2893.2504
  -5452955.09748  -4236416.32145  22598840.7784   22598837.2084
      2054.3594
  -4516908.48847  -3516665.29444  23280446.6854   23280443.2784
      2059.8914
 04  9  3 15 22  0.0010000  0  7G11G14G15G19G22G25G 1
  -4411771.29949  -3431093.82645  22555635.0284   22555630.1344
      1436.8134
   4066133.32049   3159750.09447  21162560.6534   21162555.6694
     -2432.0624
   8522719.64948   6625186.94344  23130402.7784   23130400.1924
     -4332.4534
   5686074.22348   4418957.55044  23569407.0214   23569401.6304
     -3147.5784
   5717003.49248   4441628.73946  22885459.8414   22885454.3414
     -2897.7344
  -5483718.09748  -4260387.47245  22592986.5994   22592983.2784
      2047.3444
  -4547761.31948  -3540706.42944  23274575.5054   23274571.8884
      2053.8754
 04  9  3 15 22 15.0010000  0  7G11G14G15G19G22G25G 1
  -4433264.77949  -3447841.99945  22551545.6464   22551540.3064
      1428.7664
   4102666.33549   3188217.35847  21169512.6854   21169507.6104
     -2439.2034
   8587746.88348   6675857.47744  23142777.3334   23142774.9784
     -4338.0474
   5733336.10048   4455784.95844  23578400.5994   23578395.6534
     -3154.2814
   5760499.20148   4475521.48046  22893736.6064   22893731.1924
     -2901.8754
  -5514380.73548  -4284280.42645  22587151.2554   22587147.8454
      2040.7504
  -4578526.98048  -3564679.65244  23268720.8174   23268718.1464
      2048.0944
 04  9  3 15 22 30.0010000  0  7G11G14G15G19G22G25G 1
  -4454632.96649  -3464492.53445  22547478.9584   22547474.1694
      1420.3914
   4139309.52749   3216770.48247  21176485.6384   21176480.4194
     -2446.4844
   8652861.99248   6726596.48644  23155168.3804   23155165.2044
     -4343.8914
   5780699.63048   4492691.58544  23587413.6694   23587408.4504
     -3160.9064
   5804060.21749   4509465.10146  22902026.2864   22902020.4784
     -2906.2504
  -5544940.29749  -4308093.06345  22581336.8564   22581332.9154
      2033.9224
  -4609202.96648  -3588582.99744  23262883.6774   23262880.7864
      2042.1094
 04  9  3 15 22 45.0010000  0  7G11G14G15G19G22G25G 1
  -4475877.82949  -3481046.97446  22543436.2864   22543431.3254
      1411.9224
   4176060.49749   3245407.59547  21183478.9664   21183473.9314
     -2453.9064
   8718062.58048   6777402.09644  23167575.5284   23167572.4854
     -4349.8594
   5828162.23648   4529675.38344  23596445.7164   23596440.7394
     -3167.8124
   5847684.33749   4543457.90446  22910327.8724   22910321.6734
     -2910.6254
  -5575398.63749  -4331826.82045  22575540.4814   22575536.3764
      2026.9224
  -4639791.28748  -3612418.05544  23257063.0134   23257060.4894
      2036.0004
 04  9  3 15 23  0.0010000  0  7G11G14G15G19G22G25G 1
  -4496995.64049  -3497502.41445  22539417.5994   22539412.6464
      1403.7974
   4212922.54549   3274131.25947  21190493.8564   21190489.0094
     -2460.9064
   8783351.90148   6828276.87244  23179999.8254   23179996.6384
     -4355.4064
   5875727.16748   4566738.95744  23605497.7164   23605491.4624
     -3174.1564
   5891375.15849   4577502.68046  22918641.9424   22918636.0794
     -2914.7344
  -5605751.82849  -4355478.65245  22569764.3804   22569760.7984
      2020.2034
  -4670288.28248  -3636181.92444  23251259.7314   23251256.6534
      2030.3444
 04  9  3 15 23 15.0010000  0  7G11G14G15G19G22G25G 1
  -4517991.66749  -3513862.94646  22535422.2084   22535417.0914
      1395.2034
   4249889.83749   3302936.93047  21197528.4744   21197523.2514
     -2468.4534
   8848724.19948   6879216.27344  23192439.8254   23192436.5214
     -4361.4064
   5923388.56248   4603877.67444  23614566.2864   23614560.9894
     -3181.1414
   5935127.19649   4611595.16045  22926967.2554   22926961.4974
     -2919.2664
  -5636004.92748  -4379052.47345  22564007.3494   22564003.7394
      2013.0474
  -4700699.31548  -3659878.82344  23245472.4424   23245469.3334
      2024.1414
 04  9  3 15 23 30.0010000  0  7G11G14G15G19G22G25G 1
  -4538862.05549  -3530125.58646  22531450.7164   22531445.6034
      1387.7194
   4286965.53849   3331827.07347  21204583.6694   21204578.5174
     -2474.8124
   8914182.62148   6930222.79744  23204896.1304   23204893.1034
     -4366.2504
   5971149.42948   4641093.90944  23623655.9274   23623649.9314
     -3186.7974
   5978943.80649   4645737.95446  22935305.4894   22935299.7984
     -2922.8444
  -5666154.26049  -4402545.45445  22558270.0834   22558266.5284
      2006.9534
  -4731020.86348  -3683506.00044  23239702.5444   23239699.4704
      2018.9224
 04  9  3 15 23 45.0010000  0  7G11G14G15G19G22G25G 1
  -4559609.39949  -3546292.35145  22527502.7314   22527497.5714
      1379.0634
   4324146.75749   3360799.44247  21211658.8644   21211653.7784
     -2482.2344
   8979724.12748   6981294.07244  23217368.0284   23217365.1144
     -4372.1254
   6019006.68748   4678385.27144  23632762.3414   23632756.9314
     -3193.6724
   6022822.26949   4679928.94545  22943655.6384   22943649.6424
     -2927.3284
  -5696202.32449  -4425959.50345  22552551.8414   22552548.2784
      1999.8134
  -4761255.57048  -3707065.49044  23233948.5834   23233946.3964
      2012.6724
 04  9  3 15 24  0.0010000  0  7G11G14G15G19G22G25G 1
  -4580232.35549  -3562362.19445  22523578.2554   22523573.1774
      1370.9384
   4361434.48949   3389854.80447  21218754.5754   21218749.7434
     -2489.1094
   9045349.63948   7032430.80744  23229856.2314   23229853.8254
     -4377.5624
   6066961.09948   4715752.31444  23641887.8724   23641882.3644
     -3199.9064
   6066763.72049   4714169.00745  22952017.2714   22952011.5714
     -2931.2664
  -5726147.60548  -4449293.47445  22546853.3414   22546849.9154
      1993.1884
  -4791402.13048  -3730556.31244  23228212.5284   23228209.6884
      2007.0634
 04  9  3 15 24 15.0010000  0  7G11G14G15G19G22G25G 1
  -4600734.47249  -3578337.87946  22519677.0994   22519671.5674
      1362.8284
   4398824.26249   3418989.68947  21225869.6694   21225864.5834
     -2496.0164
   9111054.90648   7083629.67044  23242359.7634   23242356.5754
     -4382.9374
   6115008.19248   4753191.59344  23651030.8494   23651025.0874
     -3206.1254
   6110764.14749   4748455.04045  22960390.2314   22960384.4624
     -2935.2664
  -5755993.85849  -4472550.28645  22541174.1144   22541170.5674
      1986.5164
  -4821464.50148  -3753981.54144  23222491.8964   23222488.5794
      2001.4384
 04  9  3 15 24 30.0010000  0  7G11G14G15G19G22G25G 1
  -4621112.01549  -3594216.48546  22515799.3494   22515794.0954
      1354.1724
   4436319.54349   3448206.77847  21233004.5524   21232999.6034
     -2503.3754
   9176843.19048   7134893.24044  23254878.5054   23254876.0954
     -4388.7974
   6163151.24448   4790705.62244  23660192.5524   23660186.4464
     -3212.9534
   6154827.14849   4782789.82645  22968775.1464   22968769.2204
     -2939.8284
  -5785737.19949  -4495726.90445  22535514.3724   22535510.2004
      1979.2814
  -4851438.99348  -3777338.27344  23216787.8104   23216784.8064
      1995.2664
 04  9  3 15 24 45.0010000  0  7G11G14G15G19G22G25G 1
  -4641363.05549  -3609996.51245  22511945.1534   22511940.2434
      1346.1564
   4473921.68449   3477507.13347  21240160.1144   21240155.3924
     -2509.9694
   9242715.90948   7186222.59644  23267413.4814   23267410.9154
     -4393.9694
   6211391.57648   4828295.46744  23669372.3254   23669366.5284
     -3218.9064
   6198954.28749   4817174.58145  22977172.4354   22977166.5874
     -2943.5944
  -5815375.64649  -4518821.77946  22529874.4194   22529870.5054
      1972.7504
  -4881323.79848  -3800625.12244  23211100.3494   23211097.7474
      1989.7034
 04  9  3 15 25  0.0010000  0  7G11G14G15G19G22G25G 1
  -4661491.83249  -3625681.27946  22508115.2314   22508109.7594
      1337.7814
   4511626.00149   3506887.10247  21247334.9664   21247329.8564
     -2517.1414
   9308668.18648   7237613.93544  23279963.9504   23279961.8174
     -4399.5624
   6259724.24848   4865957.25844  23678569.5994   23678563.4504
     -3225.3754
   6243141.01449   4851605.77246  22985580.8254   22985575.5524
     -2947.8594
  -5844913.28849  -4541838.11046  22524253.2164   22524249.8214
      1965.7194
  -4911123.32548  -3823845.53744  23205429.8964   23205426.8804
      1983.7034
 04  9  3 15 25 15.0010000  0  7G11G14G15G19G22G25G 1
  -4681496.30349  -3641269.17846  22504308.0914   22504303.2824
      1329.7194
   4549434.09149   3536347.93547  21254530.0054   21254524.8804
     -2523.7974
   9374701.68848   7289068.56044  23292530.3174   23292527.4424
     -4404.7504
   6308150.65148   4903692.09544  23687784.3884   23687779.2674
     -3231.4224
   6287389.28949   4886084.92445  22994001.0914   22993995.3564
     -2951.8124
  -5874348.05648  -4564774.27946  22518651.7474   22518648.4154
      1959.0944
  -4940835.53748  -3846997.89644  23199776.1614   23199772.6614
      1978.0474
 04  9  3 15 25 30.0010000  0  7G11G14G15G19G22G25G 1
  -4701378.54149  -3656761.83745  22500524.8254   22500519.9424
      1321.4844
   4587343.34949   3565887.61347  21261743.6304   21261738.6494
     -2530.5944
   9440813.73848   7340584.41844  23305110.9274   23305107.9704
     -4410.0004
   6356668.19148   4941497.93544  23697017.7164   23697011.5874
     -3237.4534
   6331696.65049   4920610.11745  23002432.5994   23002426.8024
     -2955.6874
  -5903681.97848  -4587631.87145  22513069.7714   22513065.7594
      1952.2664
  -4970462.69347  -3870083.99644  23194137.9974   23194135.4274
      1972.4064
 04  9  3 15 25 45.0010000  0  7G11G14G15G19G22G25G 1
  -4721136.06849  -3672157.31346  22496764.8884   22496760.1264
      1312.8444
   4625355.78149   3595507.68547  21268977.3024   21268972.4544
     -2537.7814
   9507006.33048   7392163.02144  23317706.8804   23317703.9464
     -4415.6564
   6405278.64248   4979376.19144  23706268.1854   23706261.4354
     -3243.9064
   6376065.31049   4955183.07745  23010875.6534   23010869.5914
     -2960.1094
  -5932912.48148  -4610408.87646  22507507.7944   22507504.2434
      1945.1564
  -5000002.43947  -3893101.96444  23188516.9584   23188514.2514
      1966.2664
 04  9  3 15 26  0.0010000  0  7G11G14G15G19G22G25G 1
  -4740764.28649  -3687452.02445  22493029.9974   22493024.6184
      1304.4844
   4663475.30649   3625211.20147  21276231.0134   21276226.1534
     -2544.5784
   9573283.37248   7443807.41644  23330318.9744   23330316.3494
     -4421.0784
   6453985.92148   5017329.88644  23715536.3564   23715530.7284
     -3250.1564
   6420499.49649   4989807.10645  23019331.5994   23019325.4784
     -2964.2034
  -5962034.89848  -4633101.65545  22501965.7314   22501962.1494
      1938.0944
  -5029450.49648  -3916048.48644  23182913.0674   23182910.2284
      1960.3754
 04  9  3 15 26 15.0010000  0  7G11G14G15G19G22G25G 1
  -4760271.93949  -3702652.79446  22489317.8414   22489312.7394
      1296.2504
   4701692.77349   3654991.02547  21283503.7244   21283498.8684
     -2551.2974
   9639635.65048   7495510.45944  23342945.6304   23342942.5874
     -4426.1874
   6502780.65648   5055351.71144  23724821.2714   23724816.9664
     -3256.0624
   6464990.39249   5024475.30445  23027797.4504   23027791.9584
     -2968.1724
  -5991057.90949  -4655716.96945  22496442.7244   22496439.3104
      1931.3594
  -5058815.68248  -3938930.44644  23177324.8334   23177322.0244
      1954.7504
 04  9  3 15 26 30.0010000  0  7G11G14G15G19G22G25G 1
  -4779659.01149  -3717759.61045  22485628.5364   22485623.4274
      1288.6564
   4740007.56949   3684846.69547  21290794.6304   21290789.6694
     -2557.3754
   9706062.50248   7547271.61744  23355586.1774   23355583.3214
     -4430.8124
   6551662.17348   5093441.18944  23734123.2474   23734118.6144
     -3261.4224
   6509537.56149   5059187.36045  23036274.5604   23036268.7354
     -2971.4844
  -6019981.64349  -4678254.92245  22490938.9974   22490935.0134
      1925.1724
  -5088098.25848  -3961748.02344  23171753.1694   23171749.8884
      1949.6254
 04  9  3 15 26 45.0010000  0  7G11G14G15G19G22G25G 1
  -4798923.79149  -3732771.12146  22481962.6694   22481957.5564
      1280.3594
   4778421.08449   3714779.30047  21298104.5214   21298099.5284
     -2564.0004
   9772565.26048   7599091.90044  23368240.8964   23368238.3604
     -4435.9374
   6600631.62748   5131599.18044  23743441.7944   23743437.3174
     -3267.4534
   6554142.57849   5093944.49845  23044762.6224   23044756.8994
     -2975.4534
  -6048804.16249  -4700714.02246  22485453.7474   22485450.4784
      1918.2504
  -5117296.48148  -3984499.88644  23166196.5134   23166193.1774
      1943.8444
 04  9  3 15 27  0.0010000  0  7G11G14G15G19G22G25G 1
  -4818065.45049  -3747686.70945  22478320.0914   22478315.1304
      1272.2504
   4816933.59749   3744789.03747  21305433.2084   21305428.5954
     -2570.6094
   9839144.24348   7650971.59744  23380910.5914   23380907.9744
     -4440.8594
   6649689.23148   5169825.83744  23752777.3964   23752772.0094
     -3273.1724
   6598805.97649   5128747.12245  23053261.7784   23053256.1144
     -2979.2504
  -6077524.58749  -4723093.56046  22479988.7864   22479985.2204
      1911.4844
  -5146409.62048  -4007185.44244  23160656.9584   23160653.9424
      1938.2814
 04  9  3 15 27 15.0010000  0  7G11G14G15G19G22G25G 1
  -4837084.27549  -3762506.58646  22474700.9194   22474695.8214
      1263.9534
   4855544.32049   3774875.30047  21312780.5524   21312775.3684
     -2577.1874
   9905798.50448   7702909.92844  23393594.6534   23393591.9544
     -4446.0164
   6698834.04448   5208120.48744  23762129.2084   23762123.7864
     -3278.9844
   6643527.21649   5163594.82145  23061772.0834   23061765.7474
     -2983.1874
  -6106143.13149  -4745393.71746  22474543.1144   22474539.5524
      1904.6884
  -5175438.17048  -4029805.07844  23155132.7474   23155129.6734
      1932.5474
 04  9  3 15 27 30.0010000  0  7G11G14G15G19G22G25G 1
  -4855979.03949  -3777229.78046  22471105.5284   22471100.3684
      1255.3284
   4894253.94049   3805038.63147  21320146.9034   21320141.6464
     -2584.1414
   9972528.76648   7754907.49544  23406292.9034   23406290.5834
     -4451.4374
   6748066.62748   5246483.51644  23771498.7164   23771492.5794
     -3285.2344
   6688307.22149   5198488.29345  23070293.4424   23070287.4504
     -2987.4844
  -6134658.56949  -4767613.52246  22469116.6774   22469112.7714
      1897.4224
  -5204381.08548  -4052357.99144  23149624.6384   23149622.0324
      1926.4384
 04  9  3 15 27 45.0010000  0  7G11G14G15G19G22G25G 1
  -4874749.85649  -3791856.39246  22467533.3024   22467528.2354
      1247.2814
   4933061.81249   3835278.51747  21327531.8494   21327526.6774
     -2590.4374
  10039334.42548   7806963.80343  23419005.2554   23419003.1304
     -4456.1874
   6797386.31848   5284914.43944  23780883.9974   23780878.2394
     -3290.8444
   6733145.50849   5233427.21945  23078825.7004   23078819.9274
     -2991.1564
  -6163070.93249  -4789753.01546  22463709.7004   22463705.9854
      1890.7504
  -5233238.71549  -4074844.44444  23144133.7944   23144130.8134
      1921.0164
 04  9  3 15 28  0.0010000  0  7G11G14G15G19G22G25G 1
  -4893398.33549  -3806387.67646  22463984.8334   22463979.5014
      1239.1094
   4971965.98149   3865593.44747  21334935.1224   21334930.1184
     -2596.8594
  10106213.50848   7859077.34444  23431732.2864   23431729.7394
     -4461.0944
   6846790.89948   5323411.47644  23790285.3884   23790278.8804
     -3296.4374
   6778040.45049   5268410.25945  23087369.2554   23087362.6384
     -2994.9224
  -6191381.59549  -4811813.25746  22458322.3174   22458318.3024
      1883.9694
  -5262012.65548  -4097265.68544  23138657.9744   23138655.3964
      1915.4694
 04  9  3 15 28 15.0010000  0  7G11G14G15G19G22G25G 1
  -4911924.38849  -3820823.56346  22460459.1224   22460454.2164
      1230.7034
   5010966.03949   3895983.09247  21342356.4894   21342351.6924
     -2603.4694
  10173165.46948   7911247.66744  23444473.6694   23444470.4274
     -4466.0944
   6896279.78748   5361974.21344  23799702.9814   23799697.2204
     -3302.3754
   6822991.81749   5303437.29145  23095923.2554   23095917.4504
     -2998.8754
  -6219590.43949  -4833794.17446  22452954.7084   22452950.4424
      1876.9534
  -5290703.02048  -4119621.80044  23133198.2084   23133195.4704
      1909.6414
 04  9  3 15 28 30.0010000  0  7G11G14G15G19G22G25G 1
  -4930327.25349  -3835163.46146  22456957.4974   22456952.6774
      1223.0164
   5050062.04849   3926447.50747  21349795.9974   21349791.2984
     -2609.4224
  10240190.46748   7963474.89844  23457227.9894   23457224.9814
     -4470.4534
   6945853.04948   5400602.70544  23809135.5994   23809130.7784
     -3307.4844
   6867999.97449   5338508.55845  23104488.0444   23104482.1614
     -3002.2194
  -6247696.84449  -4855695.25146  22447606.1614   22447602.3924
      1870.6094
  -5319309.33348  -4141912.42644  23127754.8024   23127751.6064
      1904.4694
 04  9  3 15 28 45.0010000  0  7G11G14G15G19G22G25G 1
  -4948608.86449  -3849408.87546  22453478.6614   22453473.3294
      1214.6564
   5089251.70449   3956984.88647  21357253.8174   21357248.6614
     -2615.8124
  10307286.13048   8015757.19943  23469995.1694   23469992.5994
     -4475.4844
   6995508.14748   5439294.95444  23818584.4424   23818579.5284
     -3313.1254
   6913062.82849   5373622.43645  23113062.9744   23113056.9314
     -3006.0784
  -6275702.65749  -4877517.94746  22442276.9424   22442272.8924
      1863.6414
  -5347833.55649  -4164139.08644  23122326.5134   23122323.8884
      1898.8594
 04  9  3 15 29  0.0010000  0  7G11G14G15G19G22G25G 1
  -4966764.59649  -3863556.20146  22450023.7474   22450018.9744
      1206.2034
   5128539.21049   3987598.51647  21364729.8804   21364724.7354
     -2622.4064
  10374456.61548   8068097.78444  23482778.2084   23482775.2634
     -4480.4374
   7045249.08248   5478054.11044  23828050.3804   23828045.6144
     -3318.9224
   6958184.87949   5408782.45045  23121649.2634   23121643.7204
     -3010.0944
  -6303603.05349  -4899258.50646  22436967.4744   22436963.2944
      1856.4844
  -5376271.05448  -4186298.17244  23116914.9814   23116912.0714
      1892.9224
 04  9  3 15 29 15.0010000  0  7G11G14G15G19G22G25G 1
  -4984799.18149  -3877609.11746  22446591.7004   22446586.4744
      1198.1724
   5167919.20249   4018284.21647  21372223.5214   21372218.5874
     -2628.4694
  10441696.43148   8120492.39443  23495572.8414   23495570.3804
     -4485.0004
   7095070.56448   5516876.00444  23837531.5284   23837526.3024
     -3324.2814
   7003360.95849   5443984.57445  23130246.4354   23130240.6614
     -3013.5944
  -6331402.87749  -4920920.69446  22431677.4424   22431673.1884
      1849.9534
  -5404626.91248  -4208393.62644  23111519.0914   23111516.4854
      1887.5784
 04  9  3 15 29 30.0010000  0  7G11G14G15G19G22G25G 1
  -5002708.83149  -3891564.68546  22443183.4274   22443179.0714
      1189.8754
   5207394.98149   4049044.55747  21379735.8174   21379730.5134
     -2634.8444
  10509008.85748   8172943.60544  23508382.3724   23508379.6734
     -4489.8914
   7144975.55848   5555762.97744  23847028.1694   23847022.8024
     -3329.7194
   7048594.52049   5479231.48645  23138853.9424   23138848.1614
     -3017.5004
  -6359098.20748  -4942501.46846  22426407.3104   22426403.3764
      1842.9224
  -5432897.49548  -4230422.63444  23106139.4424   23106136.8374
      1881.9384
 04  9  3 15 29 45.0010000  0  7G11G14G15G19G22G25G 1
  -5020493.54249  -3905422.90246  22439799.2634   22439794.0994
      1181.6094
   5246966.12249   4079879.20447  21387265.5914   21387260.3924
     -2641.1724
  10576393.47148   8225451.05843  23521204.8174   23521202.6304
     -4494.6414
   7194963.53348   5594714.61444  23856540.7394   23856535.1614
     -3335.1254
   7093885.33749   5514523.01745  23147472.2944   23147466.4704
     -3021.2034
  -6386689.10948  -4964000.84646  22421156.7164   22421153.0484
      1836.0004
  -5461082.90747  -4252385.29244  23100776.4114   23100773.6534
      1876.3914
 04  9  3 15 30  0.0010000  0  7G11G14G15G19G22G25G 1
  -5038155.35349  -3919185.35346  22436438.3414   22436433.2004
      1173.1884
   5286630.11549   4110786.19347  21394813.5524   21394808.5604
     -2647.5624
  10643847.73748   8278012.77944  23534040.8104   23534038.2674
     -4499.5164
   7245031.88048   5633728.86744  23866068.2394   23866061.9974
     -3340.7814
   7139231.23249   5549857.44845  23156101.7944   23156096.0834
     -3025.0784
  -6414177.25948  -4985420.17846  22415925.7244   22415922.3294
      1828.8444
  -5489185.27348  -4274283.22544  23095428.5674   23095425.5794
      1870.5474
 04  9  3 15 30 15.0010000  0  7G11G14G15G19G22G25G 1
  -5055688.22249  -3932847.33746  22433101.8804   22433096.6814
      1164.8914
   5326392.39249   4141769.78547  21402380.1774   21402375.3214
     -2653.7194
  10711377.00248   8330632.94543  23546891.5604   23546889.3024
     -4504.1724
   7295185.86148   5672809.88744  23875612.3964   23875606.3604
     -3346.1564
   7184637.74849   5585239.12945  23164742.1144   23164736.3334
     -3028.7814
  -6441556.77749  -5006754.85646  22410715.5214   22410711.7244
      1822.0634
  -5517198.90048  -4296112.01444  23090097.6064   23090095.2474
      1864.8754
 04  9  3 15 30 30.0010000  0  7G11G14G15G19G22G25G 1
  -5073102.05149  -3946416.56146  22429788.4194   22429783.0094
      1156.7974
   5366242.56649   4172821.85447  21409963.5754   21409958.6654
     -2659.7664
  10778970.85148   8383303.42343  23559754.1304   23559751.7784
     -4508.5474
   7345414.95448   5711949.41044  23885169.5284   23885164.1464
     -3351.2814
   7230094.91349   5620660.27845  23173392.2314   23173386.5634
     -3032.2974
  -6468837.44948  -5028012.51546  22405524.3334   22405520.2004
      1815.2814
  -5545133.79547  -4317879.45944  23084782.0524   23084778.8684
      1859.5474
 04  9  3 15 30 45.0010000  0  7G11G14G15G19G22G25G 1
  -5090390.93849  -3959888.42146  22426498.5364   22426493.1384
      1148.4844
   5406186.15949   4203946.71647  21417564.5054   21417559.5244
     -2665.9694
  10846634.76448   8436028.50743  23572630.8254   23572627.6064
     -4513.1724
   7395724.62548   5751151.72943  23894743.3334   23894738.3494
     -3356.5784
   7275608.38649   5656125.29945  23182053.3254   23182047.3564
     -3036.0784
  -6496013.42248  -5049188.59146  22400352.6924   22400348.9544
      1808.2504
  -5572984.09648  -4339580.96844  23079482.0444   23079479.1774
      1853.9064
 04  9  3 15 31  0.0010000  0  7G11G14G15G19G22G25G 1
  -5107555.75049  -3973263.60246  22423232.1694   22423226.7244
      1140.3754
   5446221.74249   4235143.27447  21425182.8884   21425177.9974
     -2671.8594
  10914367.30048   8488807.06443  23585519.4894   23585516.5794
     -4517.5784
   7446113.28748   5790415.59243  23904332.4894   23904326.6854
     -3361.6564
   7321177.03249   5691633.31245  23190724.4814   23190718.9464
     -3039.5474
  -6523085.30449  -5070283.55746  22395201.1614   22395197.1494
      1801.5004
  -5600750.76548  -4361217.33344  23074198.2714   23074195.3334
      1848.5784
 04  9  3 15 31 15.0010000  0  7G11G14G15G19G22G25G 1
  -5124597.10549  -3986542.58446  22419989.1924   22419983.9314
      1132.0004
   5486348.30749   4266410.71547  21432818.8414   21432813.8994
     -2678.1094
  10982167.41448   8541638.27343  23598421.8024   23598418.8294
     -4522.2664
   7496579.64248   5829740.00244  23913936.1924   23913930.1104
     -3367.0314
   7366800.00749   5727183.65445  23199406.5914   23199400.5714
     -3043.3124
  -6550053.64249  -5091297.83046  22390069.4194   22390065.7474
      1794.4384
  -5628434.58548  -4382789.12944  23068930.1694   23068927.4894
      1842.8444
 04  9  3 15 31 30.0010000  0  7G11G14G15G19G22G25G 1
  -5141511.63949  -3999722.73346  22416770.1064   22416765.0754
      1123.3754
   5526568.58849   4297751.18247  21440472.6694   21440467.4114
     -2684.4694
  11050037.81948   8594524.28643  23611336.8024   23611333.8534
     -4526.9844
   7547126.47548   5869127.11344  23923554.9424   23923549.2394
     -3372.4224
   7412480.42649   5762778.76445  23208099.0214   23208093.2284
     -3047.2504
  -6576915.20749  -5112228.91046  22384957.7554   22384954.3414
      1787.1724
  -5656032.44749  -4404293.93944  23063678.4274   23063675.6694
      1837.0634
 04  9  3 15 31 45.0010000  0  7G11G14G15G19G22G25G 1
  -5158302.17149  -4012806.28246  22413575.4664   22413570.3104
      1115.2344
   5566879.20549   4329162.04447  21448143.2554   21448138.5914
     -2690.3914
  11117975.18348   8647462.42843  23624264.4034   23624262.3644
     -4531.4844
   7597750.25948   5908574.19144  23933188.2394   23933182.8414
     -3377.4694
   7458215.05049   5798416.10945  23216802.4114   23216796.4854
     -3050.7194
  -6603672.82449  -5133078.99646  22379865.9584   22379861.6854
      1780.3914
  -5683547.30448  -4425734.08544  23058442.6534   23058439.1464
      1831.5474
 04  9  3 15 32  0.0010000  0  7G11G14G15G19G22G25G 1
  -5174964.92649  -4025790.25246  22410404.3494   22410399.3884
      1106.8134
   5607283.56049   4360645.94147  21455832.1224   21455826.8214
     -2696.4374
  11185982.77248   8700455.31943  23637205.8644   23637203.4194
     -4535.9064
   7648454.21448   5948083.73844  23942836.9814   23942831.7004
     -3382.7814
   7504007.56549   5834098.55345  23225516.3254   23225510.4744
     -3054.5004
  -6630322.55549  -5153845.00646  22374794.5914   22374790.8564
      1773.2504
  -5710975.51848  -4447106.72045  23053223.1924   23053219.7514
      1825.9224
 04  9  3 15 32 15.0010000  0  7G11G14G15G19G22G25G 1
  -5191503.24549  -4038677.25246  22407257.3564   22407252.4744
      1098.4384
   5647777.85649   4392199.93447  21463537.7864   21463533.0364
     -2702.5784
  11254056.78948   8753499.97144  23650160.4894   23650158.2164
     -4540.4534
   7699234.30648   5987652.61644  23952500.2784   23952494.7284
     -3387.9064
   7549854.40649   5869823.36045  23234240.6464   23234234.7784
     -3058.2504
  -6656867.58749  -5174529.44246  22369743.3724   22369739.4354
      1766.2034
  -5738320.46248  -4468414.45044  23048019.6694   23048016.6104
      1820.1724
 04  9  3 15 32 30.0020000  0  7G11G14G15G19G22G25G 1
  -5207915.39649  -4051465.93546  22404134.0574   22404128.8814
      1089.7974
   5688367.08249   4423827.88847  21471261.9324   21471257.0024
     -2708.7974
  11322204.00448   8806601.62743  23663128.2754   23663125.6934
     -4545.1874
   7750096.22948   6027285.24144  23962178.4244   23962173.7444
     -3393.1414
   7595761.02349   5905594.72145  23242976.5644   23242970.9204
     -3062.1094
  -6683306.84049  -5195131.45246  22364711.9794   22364707.6784
      1758.9064
  -5765581.41748  -4489656.74244  23042831.6504   23042829.3144
      1814.4694
 04  9  3 15 32 45.0020000  0  7G11G14G15G19G22G25G 1
  -5224199.35649  -4064154.73746  22401035.1274   22401030.6744
      1081.2814
   5729045.26249   4455525.16647  21479002.2914   21478997.8614
     -2715.0784
  11390414.62848   8859752.73443  23676108.4554   23676106.1394
     -4549.7344
   7801032.37448   6066975.70743  23971871.4864   23971866.4754
     -3398.4374
   7641720.91849   5941407.60245  23251722.4004   23251716.2754
     -3066.0314
  -6709636.97949  -5215648.42746  22359701.7364   22359697.8614
      1751.6564
  -5792755.10649  -4510831.04145  23037661.3464   23037658.0534
      1808.5314
 04  9  3 15 33  0.0020000  0  7G11G14G15G19G22G25G 1
  -5240358.54749  -4076746.32146  22397960.0104   22397955.5534
      1072.9844
   5769812.20249   4487291.59547  21486760.1894   21486754.9164
     -2720.9224
  11458690.26648   8912954.49243  23689100.9554   23689098.2484
     -4554.0624
   7852043.12348   6106724.32844  23981578.9634   23981572.8734
     -3403.4534
   7687734.55149   5977262.36145  23260478.3544   23260472.4244
     -3069.4844
  -6735862.00449  -5236083.50846  22354711.1504   22354707.4594
      1744.6724
  -5819845.84149  -4531940.68644  23032505.6584   23032502.9474
      1803.0784
 04  9  3 15 33 15.0020000  0  7G11G14G15G19G22G25G 1
  -5256392.19249  -4089240.07446  22394909.5254   22394904.4284
      1064.7974
   5810668.30849   4519127.50947  21494535.1354   21494529.6864
     -2726.6414
  11527031.36848   8966207.25743  23702105.7054   23702103.4554
     -4558.0944
   7903128.76848   6146531.29943  23991300.0334   23991294.6974
     -3408.1094
   7733802.73449   6013159.61945  23269244.9244   23269239.2604
     -3072.9534
  -6761980.95849  -5256435.91946  22349740.9864   22349737.2484
      1737.7664
  -5846852.74848  -4552985.02944  23027366.5964   23027363.3694
      1797.7664
 04  9  3 15 33 30.0020000  0  7G11G14G15G19G22G25G 1
  -5272299.38849  -4101635.29146  22391882.1354   22391876.7834
      1056.0784
   5851613.86649   4551033.13647  21502326.6434   21502321.9434
     -2732.8754
  11595438.25048   9019511.28043  23715123.1974   23715120.9434
     -4562.8284
   7954289.43748   6186396.73243  24001035.7054   24001029.9004
     -3413.4064
   7779925.98149   6049099.78645  23278022.1664   23278016.2364
     -3076.8914
  -6787992.80949  -5276704.88446  22344791.0414   22344787.3184
      1730.3914
  -5873775.17748  -4573963.53344  23022243.5964   23022240.2484
      1791.7814
 04  9  3 15 33 45.0020000  0  7G11G14G15G19G22G25G 1
  -5288077.03749  -4113929.56546  22388879.9864   22388874.7714
      1047.7504
   5892651.53549   4583010.52947  21510135.8544   21510131.1544
     -2738.7034
  11663913.39848   9072868.46843  23728152.6354   23728150.7094
     -4567.0944
   8005527.62448   6226322.57144  24010785.6894   24010780.3894
     -3418.2664
   7826107.03649   6085084.99745  23286809.9324   23286804.1354
     -3080.5164
  -6813894.63149  -5296888.11746  22339862.1434   22339858.2134
      1723.2974
  -5900610.26049  -4594873.98144  23017137.0494   23017133.6624
      1786.2344
 04  9  3 15 34  0.0020000  0  7G11G14G15G19G22G25G 1
  -5303728.03149  -4126125.14746  22385901.9634   22385896.1314
      1039.2034
   5933777.89649   4615057.03247  21517961.8774   21517956.9514
     -2744.6874
  11732453.42248   9126276.26143  23741196.0884   23741193.9244
     -4571.4694
   8056839.82348   6266306.07644  24020550.4554   24020544.5614
     -3423.2664
   7872342.70749   6121112.76845  23295608.5964   23295602.1464
     -3084.1874
  -6839689.20949  -5316987.78046  22334953.3544   22334949.4044
      1716.0784
  -5927361.03949  -4615718.73844  23012046.2754   23012043.1154
      1780.6094
 04  9  3 15 34 15.0020000  0  7G11G14G15G19G22G25G 1
  -5319249.71449  -4138219.96146  22382947.6894   22382942.8034
      1030.6414
   5974995.38949   4647174.55047  21525805.1824   21525800.4244
     -2750.6254
  11801060.61948   9179736.35343  23754251.3694   23754249.6194
     -4575.8284
   8108228.16048   6306348.91144  24030329.0184   24030323.8854
     -3428.1724
   7918635.54949   6157185.09645  23304417.4324   23304411.7524
     -3087.8914
  -6865373.74849  -5337001.69846  22330066.0494   22330061.8184
      1708.8284
  -5954024.84049  -4636495.71644  23006972.4324   23006968.9284
      1774.8444
 04  9  3 15 34 30.0020000  0  7G11G14G15G19G22G25G 1
  -5334642.66849  -4150214.47746  22380018.5644   22380013.4554
      1021.8444
   6016302.62049   4679361.99547  21533665.5644   21533660.9244
     -2756.9224
  11869733.67048   9233247.78143  23767320.0644   23767318.0574
     -4580.5164
   8159691.34448   6346450.04844  24040122.1824   24040116.7644
     -3433.5004
   7964984.68449   6193301.30045  23313237.5964   23313231.5254
     -3091.9534
  -6890948.84149  -5356930.33346  22325199.1114   22325195.4434
      1701.2664
  -5980602.54849  -4657205.61045  23001914.7994   23001911.6194
      1768.9064
 04  9  3 15 34 45.0020000  0  7G11G14G15G19G22G25G 1
  -5349904.92649  -4162107.13846  22377114.3304   22377109.4634
      1013.4694
   6057701.10049   4711620.54147  21541543.8854   21541538.6864
     -2762.5314
  11938474.11648   9286811.72943  23780400.6194   23780398.3144
     -4584.6094
   8211230.68848   6386610.55444  24049929.9474   24049924.7714
     -3438.1564
   8011391.74649   6229462.60445  23322068.2444   23322062.6624
     -3095.3284
  -6916412.47649  -5376772.10946  22320353.3544   22320349.5144
      1694.2194
  -6007092.36748  -4677846.99945  22996873.6434   22996870.9634
      1763.4064
 04  9  3 15 35  0.0020000  0  7G11G14G15G19G22G25G 1
  -5365039.30449  -4173900.15946  22374234.1894   22374229.6974
      1004.7814
   6099187.62449   4743947.68747  21549438.4394   21549433.2174
     -2768.5474
  12007278.60448   9340425.55343  23793494.5414   23793491.4634
     -4588.9374
   8262842.78448   6426827.74344  24059750.8774   24059746.0804
     -3443.1414
   8057853.67249   6265666.69245  23330909.6504   23330904.4364
     -3099.1724
  -6941767.39049  -5396529.17946  22315528.7754   22315524.9554
      1686.8754
  -6033497.26449  -4698422.23745  22991849.2054   22991846.3074
      1757.6094
 04  9  3 15 35 15.0020000  0  7G11G14G15G19G22G25G 1
  -5380045.98749  -4185593.68946  22371378.9714   22371373.7604
       996.0634
   6140761.54449   4776342.93247  21557349.4864   21557344.6114
     -2774.6414
  12076146.37248   9394088.72643  23806599.1504   23806596.9984
     -4593.4064
   8314526.80348   6467100.96043  24069587.1824   24069581.1824
     -3448.1874
   8104370.16149   6301913.27245  23339761.8384   23339755.7174
     -3103.0944
  -6967013.70749  -5416201.63446  22310724.2294   22310720.3774
      1679.3594
  -6059817.49049  -4718931.50345  22986840.5724   22986837.4284
      1751.7344
 04  9  3 15 35 30.0020000  0  7G11G14G15G19G22G25G 1
  -5394920.76249  -4197184.42346  22368548.1664   22368543.4634
       987.4534
   6182426.58449   4808809.18847  21565278.5024   21565273.8074
     -2780.4374
  12145081.21748   9447804.14143  23819716.9794   23819714.8074
     -4597.6874
   8366286.36148   6507433.06443  24079435.9244   24079431.1744
     -3452.8594
   8150945.18149   6338205.46845  23348624.4794   23348619.1314
     -3106.7034
  -6992147.13649  -5435786.11046  22305941.7364   22305937.7954
      1672.0784
  -6086048.94448  -4739371.58145  22981849.1434   22981845.7094
      1746.0784
 04  9  3 15 35 45.0020000  0  7G11G14G15G19G22G25G 1
  -5409666.98149  -4208674.98946  22365742.1974   22365736.6894
       978.9224
   6224178.97749   4841343.51047  21573223.2524   21573218.3464
     -2786.2344
  12214079.29748   9501568.82643  23832847.2134   23832844.3224
     -4601.8594
   8418117.64048   6547821.04743  24089299.3774   24089293.6744
     -3457.6414
   8197575.11049   6374540.45345  23357498.0334   23357492.6624
     -3110.3594
  -7017170.93349  -5455285.17146  22301179.5964   22301175.6824
      1664.6884
  -6112195.09149  -4759745.20545  22976873.4864   22976870.3574
      1740.3594
 04  9  3 15 36  0.0020000  0  7G11G14G15G19G22G25G 1
  -5424283.95949  -4220064.84746  22362960.6974   22362955.7054
       970.0164
   6266018.74949   4873945.92247  21581185.3224   21581180.4944
     -2792.3284
  12283140.56448   9555382.77843  23845989.1584   23845986.4124
     -4606.3914
   8470020.49448   6588264.80943  24099175.8544   24099170.4944
     -3462.6564
   8244260.26949   6410918.47445  23366381.7754   23366376.9204
     -3114.3754
  -7042084.47049  -5474698.31146  22296438.9554   22296435.0334
      1657.0634
  -6138255.58249  -4780052.07645  22971914.5964   22971911.0494
      1734.3594
 04  9  3 15 36 15.0020000  0  7G11G14G15G19G22G25G 1
  -5438770.61549  -4231353.15546  22360203.9634   22360198.8034
       961.3754
   6307946.63749   4906616.99347  21589163.7754   21589158.9364
     -2798.1414
  12352265.76648   9609246.51343  23859143.0804   23859140.8964
     -4610.5474
   8521995.45248   6628764.75143  24109066.6354   24109060.4284
     -3467.3914
   8291001.59949   6447340.27145  23375276.3304   23375271.4394
     -3117.9694
  -7066886.49849  -5494024.55446  22291719.2214   22291715.5884
      1649.7194
  -6164229.33448  -4800291.34944  22966972.0644   22966968.9794
      1728.6724
 04  9  3 15 36 30.0020000  0  7G11G14G15G19G22G25G 1
  -5453127.83249  -4242540.59646  22357471.9324   22357466.9394
       952.9064
   6349961.29349   4939355.67347  21597158.9554   21597153.9364
     -2803.7974
  12421453.42048   9663158.92443  23872308.3224   23872306.6394
     -4614.5004
   8574040.91148   6669319.61243  24118971.0724   24118964.9864
     -3471.9374
   8337797.88849   6483804.88645  23384181.3464   23384175.8144
     -3121.5164
  -7091577.93149  -5513264.62246  22287020.5724   22287017.0724
      1642.4384
  -6190117.40649  -4820463.86745  22962045.3144   22962042.0764
      1723.1254
 04  9  3 15 36 45.0020000  0  7G11G14G15G19G22G25G 1
  -5467356.44749  -4253627.83546  22354764.0414   22354759.0374
       944.1254
   6392061.35649   4972160.89247  21605170.6434   21605165.5844
     -2809.7344
  12490702.14748   9717118.93743  23885486.4864   23885484.2254
     -4618.7664
   8626155.53348   6709928.40243  24128887.2994   24128881.8774
     -3476.7814
   8384648.13048   6520311.53945  23393096.9164   23393091.4474
     -3125.4064
  -7116159.46749  -5532419.06646  22282342.8934   22282339.0334
      1634.9064
  -6215920.77448  -4840570.37745  22957135.2364   22957132.2364
      1717.2664
 04  9  3 15 37  0.0020000  0  7G11G14G15G19G22G25G 1
  -5481451.03149  -4264610.63146  22352081.9634   22352076.5254
       935.3594
   6434251.73449   5005036.50147  21613198.9394   21613194.0684
     -2815.4694
  12560016.81748   9771130.31343  23898677.1504   23898674.2524
     -4622.9064
   8678344.02548   6750594.71943  24138818.8224   24138813.6004
     -3481.4694
   8431557.47448   6556864.25845  23402023.6354   23402017.7134
     -3129.0784
  -7140625.78949  -5551483.72046  22277686.8774   22277683.4944
      1627.4694
  -6241634.24349  -4860606.84845  22952242.3144   22952238.6584
      1711.4844
 04  9  3 15 37 15.0020000  0  7G11G14G15G19G22G25G 1
  -5495418.51449  -4275494.39046  22349424.1744   22349418.5214
       926.8284
   6476525.17049   5037976.82847  21621243.3774   21621238.9594
     -2821.1874
  12629390.01748   9825187.32443  23911877.9554   23911875.5724
     -4626.8444
   8730598.95647   6791312.80843  24148762.2214   24148757.7794
     -3486.0474
   8478518.82148   6593457.48945  23410959.9084   23410954.7364
     -3132.6414
  -7164983.64849  -5570463.86346  22273051.8934   22273047.6114
      1620.0944
  -6267264.81448  -4880578.71745  22947364.3934   22947361.5294
      1705.8594
 04  9  3 15 37 30.0020000  0  7G11G14G15G19G22G25G 1
  -5509251.14649  -4286273.06146  22346792.1114   22346786.7954
       917.5634
   6518888.84049   5070987.47747  21629304.9714   21629300.3694
     -2827.2974
  12698829.07848   9879295.63743  23925092.2134   23925089.9554
     -4631.4224
   8782927.42048   6832088.20943  24158720.5804   24158715.4244
     -3491.0314
   8525539.63948   6630097.07544  23419907.1824   23419901.7954
     -3136.7664
  -7189225.20849  -5589353.38946  22268438.9554   22268434.8504
      1612.1724
  -6292804.85148  -4900480.02045  22942504.7684   22942500.9634
      1699.5634
 04  9  3 15 37 45.0020000  0  7G11G14G15G19G22G25G 1
  -5522954.38649  -4296950.92546  22344184.4084   22344179.6974
       909.4694
   6561336.87449   5104063.85047  21637382.2834   21637377.8384
     -2832.4694
  12768328.08748   9933450.64943  23938317.1664   23938315.3304
     -4635.1094
   8835323.41048   6872916.22543  24168690.2684   24168685.9984
     -3495.1564
   8572614.22348   6666778.53545  23428865.6044   23428860.9244
     -3139.9374
  -7213355.81649  -5608156.44546  22263846.8774   22263843.1824
      1605.1724
  -6318260.00749  -4920315.20145  22937661.0414   22937657.8964
      1694.3754
 04  9  3 15 38  0.0020000  0  7G11G14G15G19G22G25G 1
  -5536524.03249  -4307524.67246  22341602.0184   22341596.8304
       900.2814
   6603872.84749   5137208.75947  21645476.6974   21645472.0534
     -2838.5314
  12837890.54448   9987655.12143  23951554.6664   23951552.6504
     -4639.4534
   8887790.27048   6913799.46743  24178675.5024   24178670.2134
     -3500.0784
   8619746.38048   6703504.86245  23437834.9714   23437829.2444
     -3143.9694
  -7237371.42349  -5626869.90446  22259277.0184   22259273.3424
      1597.2974
  -6343626.38649  -4940081.21245  22932833.6274   22932829.7754
      1688.2504
 04  9  3 15 38 15.0020000  0  7G11G14G15G19G22G25G 1
  -5549962.56049  -4317996.26546  22339045.0414   22339039.8344
       891.1724
   6646493.96849   5170420.00547  21653587.2834   21653582.3264
     -2844.5944
  12907513.55748  10041906.76843  23964804.0574   23964801.7684
     -4643.8754
   8940325.23048   6954735.74543  24188672.3774   24188667.3384
     -3504.9534
   8666933.61148   6740274.10845  23446814.2684   23446808.7914
     -3148.0004
  -7261274.32849  -5645495.54046  22254728.2994   22254724.5534
      1589.4384
  -6368906.37149  -4959779.89145  22928023.0334   22928019.3774
      1682.1094
 04  9  3 15 38 30.0020000  0  7G11G14G15G19G22G25G 1
  -5563270.15549  -4328365.81846  22336512.5414   22336507.8964
       882.8134
   6689199.60249   5203697.11347  21661713.8854   21661709.4904
     -2849.8124
  12977196.46648  10096205.07843  23978063.9864   23978061.2294
     -4647.5474
   8992927.32848   6995724.36043  24198682.6044   24198676.5254
     -3509.0004
   8714175.50048   6777085.94744  23455804.0024   23455798.4984
     -3151.2664
  -7285064.48949  -5664033.32246  22250201.2754   22250197.4124
      1582.2504
  -6394100.30249  -4979411.51545  22923228.4944   22923225.7014
      1676.7504
 04  9  3 15 38 45.0020000  0  7G11G14G15G19G22G25G 1
  -5576446.72949  -4338633.28546  22334005.0964   22334000.4434
       874.1094
   6731989.40449   5237039.80147  21669856.4864   21669851.6784
     -2855.4224
  13046938.79248  10150549.72143  23991335.2444   23991333.2404
     -4651.4224
   9045596.14448   7036765.00044  24208704.9634   24208699.5294
     -3513.4224
   8761471.83748   6813940.21645  23464804.2054   23464798.6864
     -3154.8284
  -7308741.84449  -5682483.19946  22245695.8464   22245691.9044
      1574.8594
  -6419208.28849  -4998976.17945  22918450.8074   22918447.4514
      1671.1254
 04  9  3 15 39  0.0020000  0  7G11G14G15G19G22G25G 1
  -5589491.26949  -4348797.85446  22331522.8224   22331517.6114
       865.1094
   6774863.89349   5270448.48647  21678015.0644   21678010.5924
     -2861.1874
  13116741.01348  10204940.98643  24004618.1114   24004616.4824
     -4655.5944
   9098332.03248   7077857.84843  24218740.1194   24218734.8894
     -3518.0474
   8808823.44548   6850837.54145  23473814.7994   23473809.2754
     -3158.6874
  -7332305.42749  -5700844.43146  22241211.5574   22241207.7484
      1566.9844
  -6444229.39949  -5018473.14245  22913689.3934   22913686.1434
      1665.0474
 04  9  3 15 39 15.0020000  0  7G11G14G15G19G22G25G 1
  -5602406.66749  -4358861.81146  22329064.8694   22329059.8964
       856.6884
   6817819.66549   5303920.50247  21686189.6044   21686184.8934
     -2866.5164
  13186599.69148  10259376.27843  24017912.2134   24017910.1544
     -4659.1724
   9151131.40647   7119000.22043  24228786.7604   24228781.6154
     -3522.1564
   8856227.05748   6887775.40445  23482835.6114   23482830.2954
     -3161.9694
  -7355758.02049  -5719119.17046  22236749.0334   22236745.2754
      1559.7194
  -6469166.74249  -5037904.82545  22908944.1664   22908940.7404
      1659.6564
 04  9  3 15 39 30.0020000  0  7G11G14G15G19G22G25G 1
  -5615188.74249  -4368821.86646  22326632.7134   22326627.6584
       847.6094
   6860860.51949   5337458.81247  21694380.0494   21694375.7214
     -2872.2974
  13256518.61548  10313858.51043  24031216.8854   24031215.4594
     -4663.3124
   9203997.97747   7160194.92843  24238847.3544   24238842.2014
     -3526.7344
   8903686.84748   6924757.02645  23491866.5884   23491861.2754
     -3165.9534
  -7379095.15449  -5737303.95146  22232308.0494   22232303.8304
      1551.8754
  -6494016.13348  -5057267.98645  22904215.1194   22904211.6544
      1653.5474
 04  9  3 15 39 45.0020000  0  7G11G14G15G19G22G25G 1
  -5627836.99649  -4378677.64646  22324225.8074   22324220.6074
       838.8754
   6903986.42149   5371063.40447  21702586.5574   21702582.1744
     -2877.8284
  13326497.77647  10368387.68843  24044533.4324   24044532.1154
     -4667.0944
   9256931.52947   7201441.80943  24248920.6584   24248915.5884
     -3530.9694
   8951202.93948   6961782.53145  23500908.9324   23500903.7604
     -3169.5474
  -7402316.48249  -5755398.48546  22227888.8544   22227884.8774
      1544.2814
  -6518777.35049  -5076562.43045  22899502.9944   22899500.2754
      1647.9534
 04  9  3 15 40  0.0020000  0  7G11G14G15G19G22G25G 1
  -5640349.75549  -4388427.85746  22321844.6504   22321839.4204
       829.5944
   6947198.46049   5404735.10647  21710809.6664   21710804.9984
     -2883.7974
  13396538.16547  10422964.54942  24057861.6434   24057860.5724
     -4671.4844
   9309933.08447   7242741.68443  24259006.5024   24259001.6274
     -3535.7814
   8998776.69148   6998852.95344  23509961.5884   23509956.9904
     -3173.6254
  -7425420.39749  -5773401.52846  22223492.3544   22223488.5184
      1536.2034
  -6543448.96749  -5095787.06345  22894808.7754   22894805.2994
      1641.7194
 04  9  3 15 40 15.0020000  0  7G11G14G15G19G22G25G 1
  -5652731.34649  -4398075.85646  22319488.5184   22319483.5064
       820.9694
   6990492.12249   5438470.41847  21719048.3384   21719043.5684
     -2889.0164
  13466635.24648  10477585.60842  24071201.4164   24071199.0414
     -4675.1094
   9362997.88247   7284090.84444  24269103.7994   24269099.3224
     -3539.8754
   9046403.86549   7035965.02344  23519025.1354   23519019.3734
     -3177.0624
  -7448410.85349  -5791316.16246  22219117.5254   22219113.7014
      1528.8444
  -6568035.13649  -5114945.12145  22890129.9474   22890127.0684
      1636.1884
 04  9  3 15 40 30.0020000  0  7G11G14G15G19G22G25G 1
  -5664980.95649  -4407621.01346  22317157.5254   22317152.1074
       812.2664
   7033867.52249   5472269.42147  21727302.0964   21727297.0844
     -2894.4374
  13536789.00948  10532250.82043  24084551.5024   24084548.6664
     -4678.7974
   9416125.99647   7325489.32744  24279214.4004   24279209.1504
     -3543.9534
   9094084.67748   7073118.87745  23528098.7834   23528092.8114
     -3180.5474
  -7471287.28949  -5809141.95846  22214764.0574   22214760.2954
      1521.2504
  -6592535.49949  -5134036.29145  22885467.3144   22885464.2954
      1630.5164
 04  9  3 15 40 45.0020000  0  7G11G14G15G19G22G25G 1
  -5677098.23549  -4417063.04346  22314851.5184   22314846.4634
       803.4844
   7077324.69949   5506132.15347  21735571.7914   21735567.0534
     -2899.7974
  13606999.41148  10586960.19243  24097912.0184   24097908.9754
     -4682.3754
   9469317.21447   7366937.00143  24289336.2364   24289331.8304
     -3548.1874
   9141819.43248   7110314.75644  23537181.6274   23537176.5254
     -3184.0314
  -7494049.22249  -5826878.51646  22210432.7604   22210428.5724
      1513.7664
  -6616949.76949  -5153060.40045  22880821.6114   22880818.6044
      1624.8594
 04  9  3 15 41  0.0020000  0  7G11G14G15G19G22G25G 1
  -5689081.14249  -4426400.37746  22312571.6194   22312565.7484
       794.5784
   7120864.98649   5540059.62347  21743857.2524   21743852.6154
     -2905.2504
  13677267.93448  10641714.83943  24111283.6894   24111281.4714
     -4686.4374
   9522572.73747   7408434.77743  24299470.4244   24299465.5884
     -3552.4064
   9189609.75248   7147553.94845  23546276.4794   23546270.4634
     -3187.7194
  -7516694.69849  -5844524.34946  22206123.3384   22206119.5884
      1505.9844
  -6641276.11649  -5172015.99645  22876192.5724   22876189.1044
      1618.9384
 04  9  3 15 41 15.0020000  0  7G11G14G15G19G22G25G 1
  -5700933.01649  -4435635.61246  22310316.0964   22310310.7174
       785.4384
   7164484.63149   5574048.95047  21752157.9554   21752153.1154
     -2910.9844
  13747590.56247  10696511.64243  24124664.9554   24124663.6004
     -4690.2814
   9575888.70547   7449979.67043  24309616.3694   24309610.7364
     -3556.6564
   9237452.06548   7184833.64445  23555380.4554   23555375.4594
     -3191.5164
  -7539226.89949  -5862081.89746  22201835.5574   22201831.9204
      1498.0784
  -6665518.03549  -5190905.79245  22871579.7054   22871576.6394
      1613.0314
 04  9  3 15 41 30.0020000  0  7G11G14G15G19G22G25G 1
  -5712648.90849  -4444764.87546  22308086.7134   22308081.5924
       776.5004
   7208188.40649   5608103.83247  21760474.6114   21760469.7714
     -2916.3914
  13817972.11447  10751354.34943  24138058.2754   24138056.6114
     -4694.1414
   9629269.72547   7491575.23743  24319773.8074   24319768.9674
     -3561.0474
   9285351.35348   7222157.73845  23564495.8074   23564489.7684
     -3195.2194
  -7561640.59949  -5879547.11746  22197570.4944   22197566.7794
      1490.2974
  -6689670.44249  -5209725.84345  22866983.3304   22866980.7054
      1607.1724
 04  9  3 15 41 45.0020000  0  7G11G14G15G19G22G25G 1
  -5724231.27749  -4453790.10346  22305882.6664   22305877.4434
       767.6884
   7251973.12549   5642221.77347  21768806.3934   21768801.6004
     -2921.7034
  13888409.31147  10806240.44643  24151461.9004   24151460.1864
     -4697.6254
   9682712.41946   7533218.86243  24329943.5724   24329938.9904
     -3564.8754
   9333304.72448   7259523.97745  23573620.7364   23573615.8224
     -3198.7194
  -7583938.41149  -5896922.02146  22193327.4554   22193323.0454
      1482.6414
  -6713736.26749  -5228478.42745  22862403.9944   22862400.8774
      1601.4844
 04  9  3 15 42  0.0020000  0  7G11G14G15G19G22G25G 1
  -5735676.34949  -4462708.34846  22303704.6974   22303699.5374
       758.8594
   7295842.35349   5676405.57847  21777154.1114   21777149.5184
     -2927.0474
  13958905.65847  10861172.58642  24164876.7914   24164875.2954
     -4701.3754
   9736220.20747   7574913.22943  24340126.5494   24340121.1154
     -3568.9374
   9381315.89048   7296935.23844  23582757.0574   23582751.3574
     -3202.2974
  -7606116.45949  -5914203.62446  22189106.8384   22189102.9944
      1475.0164
  -6737711.63449  -5247160.53645  22857841.8614   22857838.5764
      1595.6884
 04  9  3 15 42 15.0020000  0  7G11G14G15G19G22G25G 1
  -5746989.32749  -4471523.65446  22301551.9794   22301546.9244
       749.5314
   7339790.39249   5710650.78847  21785517.6114   21785512.4674
     -2932.7034
  14029455.44347  10916146.39842  24178302.5804   24178300.3694
     -4705.2814
   9789787.22947   7616653.72243  24350319.8694   24350315.2214
     -3573.2504
   9429379.39548   7334387.29944  23591902.7834   23591897.2364
     -3206.2194
  -7628179.83749  -5931395.87146  22184908.4004   22184904.5214
      1466.8594
  -6761601.91949  -5265776.33745  22853295.3144   22853292.1044
      1589.6884
 04  9  3 15 42 30.0020000  0  7G11G14G15G19G22G25G 1
  -5758168.89149  -4480235.00746  22299424.4084   22299419.5964
       740.6564
   7383817.95349   5744957.96747  21793895.6434   21793890.8934
     -2937.9694
  14100059.36447  10971162.39942  24191738.4324   24191735.9244
     -4708.8914
   9843414.12547   7658440.88443  24360524.4244   24360519.3074
     -3577.2504
   9477496.20848   7371880.89045  23601059.3464   23601054.5214
     -3209.7194
  -7650127.31049  -5948497.78846  22180732.1114   22180727.8814
      1459.1094
  -6785406.03749  -5284324.98545  22848765.9474   22848762.2874
      1583.8444
 04  9  3 15 42 45.0020000  0  7G11G14G15G19G22G25G 1
  -5769211.61349  -4488839.71446  22297322.9714   22297318.2444
       731.6254
   7427928.09249   5779329.50447  21802289.3544   21802284.5614
     -2943.3594
  14170720.41248  11026222.89843  24205184.6114   24205182.2644
     -4712.6414
   9897103.82846   7700277.01243  24370741.5334   24370736.7524
     -3581.4064
   9525669.65148   7409418.62044  23610226.6044   23610221.5764
     -3213.4224
  -7671955.15949  -5965506.50246  22176578.3144   22176574.0064
      1451.1884
  -6809120.69549  -5302803.94345  22844252.5254   22844249.2564
      1578.0784
 04  9  3 15 43  0.0020000  0  7G11G14G15G19G22G25G 1
  -5780118.15849  -4497338.31846  22295247.7054   22295243.1464
       722.5004
   7472119.65149   5813764.46447  21810699.0414   21810694.3934
     -2948.8914
  14241437.42147  11081327.03143  24218641.8224   24218639.8114
     -4716.3914
   9950854.93247   7742160.95343  24380969.8774   24380965.0644
     -3585.5624
   9573898.66148   7446999.64445  23619404.1824   23619398.8034
     -3217.2194
  -7693664.08349  -5982422.54146  22172446.9634   22172443.0684
      1443.1884
  -6832746.71149  -5321213.82045  22839757.3224   22839753.8964
      1572.0784
 04  9  3 15 43 15.0020000  0  7G11G14G15G19G22G25G 1
  -5790890.86649  -4505732.63946  22293197.2914   22293192.5964
       713.6094
   7516389.87949   5848260.73647  21819123.0724   21819118.4124
     -2954.0314
  14312207.55248  11136472.53142  24232108.3544   24232106.1464
     -4719.8444
  10004664.56647   7784090.51343  24391209.8384   24391205.1354
     -3589.2194
   9622180.79148   7484622.06444  23628591.8544   23628586.5064
     -3220.6564
  -7715256.37349  -5999247.68546  22168338.3544   22168334.1194
      1435.4844
  -6856286.48549  -5339556.50945  22835277.9864   22835274.4044
      1566.2974
 04  9  3 15 43 30.0020000  0  7G11G14G15G19G22G25G 1
  -5801531.49349  -4514024.04346  22291172.7214   22291168.0414
       705.0164
   7560736.67249   5882816.67047  21827562.5104   21827557.3264
     -2959.0004
  14383028.59047  11191657.71342  24245585.2294   24245583.5684
     -4723.0004
  10058530.51347   7826063.92643  24401459.9474   24401454.6274
     -3592.9694
   9670514.16548   7522284.40044  23637789.2134   23637783.9474
     -3223.9064
  -7736733.61949  -6015983.21246  22164251.7134   22164247.1664
      1428.0634
  -6879741.88049  -5357833.42245  22830813.9944   22830810.3074
      1560.8914
 04  9  3 15 43 45.0020000  0  7G11G14G15G19G22G25G 1
  -5812036.25149  -4522209.57246  22289174.2134   22289168.7134
       695.9694
   7605163.16049   5917434.69947  21836016.3614   21836011.3694
     -2964.2814
  14453903.76547  11246885.05742  24259072.2604   24259070.9864
     -4726.6094
  10112455.82546   7868083.61043  24411721.2214   24411716.8034
     -3596.8754
   9718902.28048   7559989.39445  23646997.4554   23646992.0374
     -3227.5314
  -7758091.97149  -6032626.07646  22160186.9164   22160183.4324
      1420.1254
  -6903109.34849  -5376041.82845  22826367.5644   22826364.2294
      1555.1094
 04  9  3 15 44  0.0020000  0  7G11G14G15G19G22G25G 1
  -5822404.75449  -4530288.92246  22287200.7604   22287195.6974
       686.4844
   7649669.37049   5952114.85447  21844485.5804   21844480.6974
     -2970.0164
  14524832.90147  11302154.46142  24272570.2444   24272568.4594
     -4730.6414
  10166440.25547   7910149.36543  24421994.3854   24421990.2294
     -3601.2034
   9767345.28248   7597737.16745  23656216.2054   23656210.4864
     -3231.5944
  -7779331.05749  -6049176.01546  22156145.7214   22156141.4634
      1411.7034
  -6926388.61449  -5394181.50845  22821937.4474   22821934.5024
      1548.8284
 04  9  3 15 44 15.0020000  0  7G11G14G15G19G22G25G 1
  -5832633.13449  -4538259.08746  22285254.2364   22285248.6704
       677.2194
   7694258.74349   5986859.81147  21852970.6974   21852965.8574
     -2975.4374
  14595819.34747  11357468.54042  24286078.6194   24286076.1274
     -4734.4064
  10220487.06847   7952263.72643  24432279.8464   24432274.4124
     -3605.2344
   9815846.77648   7635530.51445  23665445.7524   23665440.0574
     -3235.3914
  -7800447.07849  -6065630.04846  22152127.1584   22152123.2014
      1403.6254
  -6949575.96349  -5412249.56845  22817525.0804   22817521.7054
      1542.7504
 04  9  3 15 44 30.0020000  0  7G11G14G15G19G22G25G 1
  -5842723.72749  -4546121.89446  22283334.2444   22283329.1194
       668.0474
   7738928.56749   6021667.45547  21861471.0804   21861465.9324
     -2980.7194
  14666860.36247  11412825.12442  24299597.6824   24299594.6894
     -4738.0314
  10274593.40347   7994424.48643  24442575.3144   24442570.5214
     -3609.0314
   9864404.24048   7673367.47844  23674686.0724   23674679.8574
     -3239.2344
  -7821442.19649  -6081989.88346  22148132.2134   22148128.1004
      1395.5634
  -6972673.85849  -5430247.93145  22813129.5414   22813125.9324
      1536.7504
 04  9  3 15 44 45.0020000  0  7G11G14G15G19G22G25G 1
  -5852677.95449  -4553878.44146  22281439.9794   22281434.8504
       659.0474
   7783676.93349   6056536.28947  21869986.4794   21869981.4944
     -2985.7814
  14737953.87947  11468222.59842  24313125.4394   24313123.2364
     -4741.2504
  10328757.22547   8036630.03043  24452882.4714   24452877.8464
     -3612.7974
   9913015.96149   7711246.70844  23683936.1974   23683930.8544
     -3242.5944
  -7842317.79749  -6098256.58847  22144159.4714   22144155.6114
      1387.7194
  -6995683.92749  -5448177.85945  22808751.0494   22808747.6864
      1531.0634
 04  9  3 15 45  0.0020000  0  7G11G14G15G19G22G25G 1
  -5862494.46149  -4561527.66646  22279571.9474   22279566.7994
       649.9064
   7828504.87449   6091467.14747  21878516.9554   21878511.7714
     -2991.0784
  14809100.98247  11523661.87042  24326664.4944   24326662.7874
     -4744.7504
  10382979.38247   8078881.02543  24463200.7754   24463195.9984
     -3616.6564
   9961683.19949   7749169.22244  23693197.3934   23693191.5574
     -3246.2504
  -7863072.38649  -6114428.98946  22140209.8464   22140205.5414
      1379.6414
  -7018604.77349  -5466038.23945  22804389.1664   22804385.9124
      1525.1884
 04  9  3 15 45 15.0020000  0  7G11G14G15G19G22G25G 1
  -5872177.46949  -4569072.87746  22277729.4324   22277724.3574
       640.8914
   7873407.63549   6126456.30447  21887061.4084   21887056.9514
     -2996.1874
  14880296.86447  11579139.12242  24340213.3224   24340211.3264
     -4748.2034
  10437254.90047   8121173.62843  24473528.8774   24473524.2914
     -3620.2814
  10010401.44949   7787131.46144  23702468.1974   23702462.1544
     -3249.7344
  -7883710.23349  -6130510.42646  22136282.9084   22136278.6044
      1371.7344
  -7041440.84949  -5483832.57245  22800043.7684   22800040.2684
      1519.4064
 04  9  3 15 45 30.0020000  0  7G11G14G15G19G22G25G 1
  -5881722.90549  -4576510.87946  22275912.9634   22275907.4004
       632.1094
   7918388.70649   6161506.48247  21895620.9714   21895616.4244
     -3001.0314
  14951545.01747  11634657.14442  24353770.9244   24353768.5964
     -4751.3124
  10491587.38946   8163510.59243  24483868.1274   24483863.4824
     -3623.7344
  10059174.55448   7825136.46044  23711749.5644   23711743.6504
     -3253.0944
  -7904227.16349  -6146497.63346  22132378.3464   22132374.6354
      1364.0944
  -7064188.23549  -5501557.80445  22795715.2684   22795711.6744
      1513.8284
 04  9  3 15 45 45.0020000  0  7G11G14G15G19G22G25G 1
  -5891133.31749  -4583843.68146  22274122.2364   22274117.2134
       622.8284
   7963445.28149   6196615.48547  21904195.0884   21904190.2294
     -3006.3124
  15022842.60047  11690213.62342  24367338.5254   24367336.1544
     -4754.8124
  10545973.65746   8205889.46443  24494217.5254   24494212.7564
     -3627.5944
  10107999.86549   7863182.13244  23721040.5414   23721035.1894
     -3256.7664
  -7924625.63149  -6162392.54046  22128496.6584   22128492.7294
      1355.9224
  -7086849.50349  -5519215.92845  22791402.7524   22791399.5764
      1507.8594
 04  9  3 15 46  0.0020000  0  7G11G14G15G19G22G25G 1
  -5900405.46949  -4591068.73146  22272357.6744   22272352.4394
       613.6254
   8008580.07749   6231785.44847  21912783.9634   21912779.5214
     -3011.4534
  15094192.14347  11745810.61642  24380915.8384   24380913.5104
     -4758.2344
  10600416.26146   8248312.23043  24504577.9634   24504573.6044
     -3631.2034
  10156880.27048   7901270.73344  23730341.9244   23730336.5884
     -3260.3754
  -7944902.42949  -6178192.64447  22124638.2604   22124634.2324
      1347.8134
  -7109421.73249  -5536804.66845  22787107.2754   22787103.9244
      1501.9694
 04  9  3 15 46 15.0020000  0  7G11G14G15G19G22G25G 1
  -5909540.66949  -4598187.07346  22270619.5964   22270614.6394
       604.3914
   8053791.45849   6267015.07747  21921387.5964   21921382.7174
     -3016.6724
  15165592.03847  11801446.84142  24394503.2914   24394500.7644
     -4761.6724
  10654913.57346   8290777.61743  24514947.6584   24514943.6864
     -3635.0164
  10205814.34148   7939401.15944  23739654.2214   23739648.2794
     -3264.1094
  -7965058.71749  -6193898.83146  22120802.6504   22120798.8504
      1339.6414
  -7131906.23449  -5554325.05845  22782828.6504   22782825.7644
      1496.0164
 04  9  3 15 46 30.0020000  0  7G11G14G15G19G22G25G 1
  -5918538.19449  -4605198.13846  22268907.4474   22268902.1154
       595.0634
   8099079.84349   6302304.71547  21930005.2834   21930000.7564
     -3021.9224
  15237042.60447  11857122.57242  24408099.7134   24408097.8424
     -4765.2194
  10709465.64746   8333285.67343  24525329.1974   24525324.3734
     -3638.7034
  10254802.71348   7977573.88944  23748976.1434   23748970.7794
     -3267.8124
  -7985093.54449  -6209510.37946  22116990.1824   22116986.3304
      1331.4694
  -7154302.28449  -5571776.52345  22778566.6274   22778563.6194
      1489.9844
 04  9  3 15 46 45.0020000  0  7G11G14G15G19G22G25G 1
  -5927397.13549  -4612101.20846  22267221.4864   22267216.1354
       585.9064
   8144445.26149   6337654.38047  21938638.4554   21938633.4394
     -3026.9374
  15308544.02947  11912837.92042  24421706.1274   24421703.8504
     -4768.4694
  10764072.64646   8375836.56843  24535720.4554   24535715.8814
     -3642.3594
  10303845.77749   8015789.24044  23758308.8464   23758303.7444
     -3271.4064
  -8005006.18549  -6225026.71947  22113200.9244   22113196.8964
      1323.3754
  -7176609.36849  -5589158.65245  22774321.7994   22774318.9164
      1484.2034
 04  9  3 15 47  0.0020000  0  7G11G14G15G19G22G25G 1
  -5936116.99449  -4618895.91446  22265562.3074   22265556.8934
       576.4384
   8189887.97149   6373064.26947  21947285.9004   21947281.1354
     -3032.2504
  15380096.25147  11968592.83042  24435322.2914   24435320.1314
     -4771.9694
  10818734.43646   8418430.14343  24546122.1194   24546117.0414
     -3646.1094
  10352943.85449   8054047.44844  23767652.4244   23767646.6824
     -3275.2194
  -8024796.11249  -6240447.43547  22109434.9474   22109430.9084
      1315.0944
  -7198827.10649  -5606471.17945  22770093.8304   22770090.5454
      1478.1094
 04  9  3 15 47 15.0020000  0  7G11G14G15G19G22G25G 1
  -5944697.77649  -4625582.24446  22263929.3464   22263924.6074
       567.4844
   8235407.51049   6408534.02747  21955947.9794   21955943.7644
     -3037.0944
  15451698.88247  12024387.05142  24448946.9244   24448945.7874
     -4775.2034
  10873450.48947   8461066.00743  24556534.4474   24556529.4394
     -3649.4534
  10402096.79149   8092348.41244  23777005.1114   23777000.2564
     -3278.5944
  -8044463.28349  -6255772.49946  22105692.4394   22105688.5184
      1307.1564
  -7220955.60049  -5623714.15045  22765883.3074   22765879.8614
      1472.3594
 04  9  3 15 47 30.0020000  0  7G11G14G15G19G22G25G 1
  -5953140.36449  -4632160.87946  22262322.5254   22262317.9514
       558.3754
   8281002.64149   6444062.68847  21964624.3074   21964619.9714
     -3042.0624
  15523350.54647  12080219.44942  24462581.7834   24462580.3034
     -4778.2814
  10928219.34747   8503742.99842  24566956.9164   24566951.3614
     -3652.8914
  10451303.50549   8130691.29044  23786369.1894   23786364.1704
     -3282.1094
  -8064008.46749  -6271002.51447  22101972.9324   22101969.0214
      1299.0634
  -7242995.88148  -5640888.37445  22761688.6824   22761685.5214
      1466.5164
 04  9  3 15 47 45.0020000  0  7G11G14G15G19G22G25G 1
  -5961442.91849  -4638630.40946  22260742.7604   22260737.8814
       548.9534
   8326674.88749   6479651.43547  21973315.4554   21973310.7564
     -3047.2344
  15595052.77547  12136091.28342  24476226.6744   24476225.1464
     -4781.6874
  10983042.50447   8546462.32442  24577389.1664   24577384.4984
     -3656.4844
  10500565.86249   8169077.50344  23795743.4084   23795738.1114
     -3285.8914
  -8083429.62949  -6286135.87646  22098277.4634   22098273.3384
      1290.7034
  -7264946.10049  -5657992.43645  22757511.6824   22757508.4754
      1460.4224
 04  9  3 15 48  0.0020000  0  7G11G14G15G19G22G25G 1
  -5969606.73849  -4644991.82646  22259189.1434   22259184.0374
       539.2814
   8372422.39149   6515298.82647  21982020.9244   21982016.3964
     -3052.6874
  15666803.51847  12192000.84242  24489880.6504   24489878.8384
     -4785.3754
  11037917.81146   8589222.25342  24587831.2294   24587826.8034
     -3660.4374
  10549881.98748   8207505.62744  23805127.8934   23805122.4084
     -3289.9064
  -8102728.17549  -6301173.69347  22094605.0574   22094601.0644
      1282.2034
  -7286807.92648  -5675027.61745  22753351.8934   22753348.8504
      1454.1094
 04  9  3 15 48 15.0020000  0  7G11G14G15G19G22G25G 1
  -5977627.48949  -4651241.76646  22257662.8854   22257657.5844
       530.0314
   8418248.95649   6551007.83347  21990741.4714   21990736.5374
     -3057.5624
  15738606.59846  12247951.25142  24503543.8384   24503542.1894
     -4788.5164
  11092849.05447   8632025.79643  24598284.8224   24598279.8144
     -3663.7194
  10599256.07448   8245978.92244  23814523.5024   23814518.0924
     -3293.3914
  -8121899.64749  -6316112.49847  22090956.9864   22090952.8034
      1273.9534
  -7308577.07149  -5691990.58145  22749209.4634   22749206.4594
      1448.3134
 04  9  3 15 48 30.0020000  0  7G11G14G15G19G22G25G 1
  -5985508.71549  -4657382.98046  22256163.3934   22256158.1894
       520.5004
   8464150.75549   6586775.45347  21999476.5644   21999471.9244
     -3062.9534
  15810458.04146  12303939.37542  24517217.0334   24517215.6394
     -4791.9694
  11147832.23046   8674869.77343  24608747.0254   24608743.4864
     -3667.6094
  10648684.53649   8284494.58244  23823929.7684   23823924.5024
     -3297.3594
  -8140947.48049  -6330954.95347  22087332.0494   22087328.0024
      1265.4224
  -7330257.16648  -5708884.15145  22745084.2994   22745080.7954
      1442.0314
 04  9  3 15 48 45.0020000  0  7G11G14G15G19G22G25G 1
  -5993249.11149  -4663414.47546  22254690.5184   22254685.3654
       511.2504
   8510128.69249   6622602.40447  22008225.6744   22008220.8464
     -3067.7034
  15882358.84047  12359965.87242  24530899.2914   24530898.0614
     -4795.0314
  11202867.93047   8717754.67642  24619220.1584   24619216.5724
     -3670.8284
  10698168.48649   8323053.46244  23833346.0254   23833341.6354
     -3300.7814
  -8159870.30249  -6345700.00847  22083731.1894   22083726.8694
      1257.3284
  -7351847.00949  -5725707.40345  22740975.0724   22740971.6934
      1436.2814
 04  9  3 15 49  0.0020000  0  7G11G14G15G19G22G25G 1
  -6000850.80649  -4669337.86546  22253243.7134   22253238.9594
       502.2814
   8556180.26249   6658486.73647  22016988.8934   22016984.3264
     -3072.4064
  15954306.34147  12416028.80842  24544591.0574   24544588.9794
     -4797.9224
  11257953.54046   8760678.50443  24629703.2604   24629699.0334
     -3673.9064
  10747705.47248   8361653.68944  23842772.7754   23842767.4754
     -3304.1414
  -8178670.19049  -6360349.24847  22080153.7914   22080149.2014
      1249.3284
  -7373348.83249  -5742462.04945  22736883.5254   22736880.2754
      1430.7344
 04  9  3 15 49 15.0020000  0  7G11G14G15G19G22G25G 1
  -6008312.21649  -4675151.95846  22251823.7684   22251818.5294
       492.7034
   8602306.44749   6694429.21146  22025766.5644   22025762.1044
     -3077.6094
  16026301.57746  12472128.93842  24558290.4794   24558289.3504
     -4801.3124
  11313089.91747   8803641.90442  24640195.2054   24640190.6004
     -3677.4694
  10797296.92449   8400296.36144  23852210.0494   23852204.2754
     -3307.9224
  -8197345.59349  -6374901.49947  22076599.9324   22076596.0104
      1240.7974
  -7394761.22149  -5759147.02045  22732809.2294   22732806.0294
      1424.4064
 04  9  3 15 49 30.0020000  0  7G11G14G15G19G22G25G 1
  -6015630.98349  -4680854.89346  22250431.0254   22250425.9794
       483.1884
   8648509.28249   6730431.40347  22034558.3464   22034554.4794
     -3082.6874
  16098346.31946  12528267.66542  24572000.5254   24571998.9794
     -4804.5624
  11368278.92247   8846646.27343  24650697.4244   24650693.4044
     -3680.8914
  10846944.82649   8438983.00844  23861657.2054   23861651.5534
     -3311.6874
  -8215894.16749  -6389354.93447  22073070.1824   22073066.0294
      1232.3444
  -7416082.06048  -5775760.66445  22728751.9324   22728748.3224
      1418.4694
 04  9  3 15 49 45.0020000  0  7G11G14G15G19G22G25G 1
  -6022810.54949  -4686449.37246  22249064.7294   22249059.6274
       474.0164
   8694784.79249   6766490.22947  22043364.7834   22043359.7794
     -3087.3914
  16170436.76046  12584442.00442  24585718.4084   24585717.7364
     -4807.5314
  11423516.49747   8889688.49243  24661208.9324   24661203.9394
     -3684.0314
  10896645.62249   8477710.87444  23871115.7364   23871110.1234
     -3315.0164
  -8234319.16749  -6403712.07047  22069563.9794   22069560.3544
      1224.2344
  -7437314.86948  -5792305.69845  22724711.2364   22724708.0964
      1412.6414
 04  9  3 15 50  0.0020000  0  7G11G14G15G19G22G25G 1
  -6029847.35849  -4691932.60547  22247725.8384   22247720.6434
       464.3134
   8741136.26349   6802608.24146  22052185.3854   22052180.1624
     -3092.6874
  16242575.86346  12640654.19342  24599446.4394   24599445.0684
     -4810.8914
  11478805.70547   8932770.99643  24671730.2364   24671725.4284
     -3687.7034
  10946402.69048   8516482.59044  23880583.8144   23880578.1664
     -3319.0314
  -8252617.02149  -6417970.13347  22066082.3384   22066078.0924
      1215.6254
  -7458456.20248  -5808779.45145  22720688.0184   22720685.1154
      1406.3284
 04  9  3 15 50 15.0020000  0  8G20G11G14G15G19G22G25G 1
    -71602.97757    -48213.12052  24792676.2364   24792673.3344
      2041.9844
  -6036744.53349  -4697307.03146  22246413.4084   22246408.1664
       455.2504
   8787560.16449   6838782.69947  22061018.9944   22061014.3114
     -3097.3284
  16314760.21546  12696901.70242  24613182.8544   24613181.4084
     -4813.7504
  11534142.89047   8975890.84042  24682259.9164   24682254.9824
     -3690.6724
  10996212.85748   8555295.67344  23890062.4084   23890057.2294
     -3322.4224
  -8270790.69149  -6432131.42147  22062623.6194   22062619.3734
      1207.4694
  -7479509.20748  -5825184.37245  22716682.3854   22716678.7914
      1400.6414
 04  9  3 15 50 30.0020000  0  8G20G11G14G15G19G22G25G 1
   -102224.57347    -72074.13242  24786849.2834   24786846.2714
      2040.8914
  -6043503.50549  -4702573.76647  22245127.3384   22245122.2214
       445.9064
   8834054.62749   6875012.13947  22069867.1584   22069862.0024
     -3102.0784
  16386987.85146  12753182.93242  24626927.8694   24626926.2324
     -4816.7664
  11589525.97146   9019046.45342  24692798.8854   24692794.3814
     -3693.7814
  11046074.35348   8594148.75444  23899550.5334   23899545.0254
     -3325.8594
  -8288841.64049  -6446197.09047  22059188.4634   22059184.6664
      1199.1724
  -7500475.53048  -5841521.75545  22712692.0104   22712688.6114
      1394.8134
 04  9  3 15 50 45.0020000  0  7G20G11G14G19G22G25G 1
   -132828.09847    -95921.00142  24781026.4554   24781022.4514
      2039.5474
  -6050122.25949  -4707731.23447  22243867.7444   22243862.9394
       436.4694
   8880621.21749   6911297.78347  22078728.1824   22078723.2324
     -3106.9064
  11644956.48547   9062239.03642  24703347.3774   24703342.4084
     -3696.9534
  11095989.04549   8633043.30244  23909049.2294   23909044.2444
     -3329.4224
  -8306767.72349  -6460165.45947  22055777.2214   22055773.5294
      1190.8754
  -7521353.25248  -5857790.10745  22708719.2994   22708716.0414
      1388.8594
 04  9  3 15 51  0.0020000  0  7G20G11G14G19G22G25G 1
   -163414.62647   -119754.64642  24775205.3614   24775202.0534
      2038.3754
  -6056601.64749  -4712780.12247  22242634.6354   22242629.6074
       427.1254
   8927258.76249   6947638.71146  22087603.0574   22087598.3114
     -3111.6094
  11700432.99647   9105467.43343  24713904.2604   24713900.0534
     -3700.1254
  11145955.84248   8671978.42544  23918557.0804   23918552.4164
     -3333.0164
  -8324569.73049  -6474037.14647  22052389.5804   22052385.8694
      1182.4844
  -7542143.37648  -5873990.20645  22704763.1504   22704759.9474
      1382.9844
 04  9  3 15 51 15.0020000  0  7G20G11G14G19G22G25G 1
   -193984.50147   -143575.33442  24769388.3694   24769384.8504
      2037.4064
  -6062941.97949  -4717720.63647  22241428.1434   22241423.1744
       418.0634
   8973966.49249   6984034.33847  22096491.3384   22096486.3774
     -3116.1414
  11755954.58647   9148730.95643  24724469.8934   24724465.5534
     -3702.9374
  11195974.31249   8710953.83344  23928076.0964   23928070.6664
     -3336.2034
  -8342247.89649  -6487812.33947  22049025.8544   22049021.5144
      1174.4534
  -7562846.32248  -5890122.36645  22700823.2444   22700820.3344
      1377.3134
 04  9  3 15 51 30.0020000  0  7G20G11G14G19G22G25G 1
   -224536.57447   -167382.14142  24763574.7754   24763571.0684
      2036.5004
  -6069142.04549  -4722551.86246  22240248.2444   22240243.7524
       408.9064
   9020745.13749   7020485.21246  22105392.6974   22105387.8614
     -3120.6414
  11811521.82147   9192030.05243  24735044.0104   24735039.8894
     -3705.6724
  11246045.37848   8749970.20744  23937603.6584   23937598.6584
     -3339.5474
  -8359801.07049  -6501490.12547  22045685.5414   22045681.1624
      1166.3914
  -7583461.09249  -5906185.81546  22696900.6354   22696897.3934
      1371.6884
 04  9  3 15 51 45.0020000  0  7G20G11G14G19G22G25G 1
   -255073.08947   -191176.79042  24757763.4244   24757759.8694
      2035.2974
  -6075204.01748  -4727275.47147  22239094.7364   22239089.8464
       399.6414
   9067592.23849   7056989.44646  22114307.4244   22114302.5804
     -3125.2814
  11867132.12947   9235362.74243  24745626.1744   24745621.5924
     -3708.5944
  11296166.74748   8789025.78744  23947141.5104   23947136.8304
     -3342.9844
  -8377231.22549  -6515072.05547  22042368.8304   22042364.4944
      1157.9844
  -7603989.91548  -5922182.28645  22692993.8224   22692991.0644
      1365.7814
 04  9  3 15 52  0.0020000  0  7G20G11G14G19G22G25G 1
   -285592.89647   -214958.45042  24751955.5494   24751951.7014
      2033.8914
  -6081126.58149  -4731890.46647  22237967.6354   22237962.8264
       390.0004
   9114508.56949   7093547.60946  22123235.4394   22123230.8074
     -3130.2194
  11922786.12347   9278729.44442  24756217.2834   24756212.4474
     -3711.9374
  11346339.44648   8828121.37044  23956689.6584   23956684.6074
     -3346.6564
  -8394537.06449  -6528557.11647  22039075.4474   22039071.4394
      1149.4384
  -7624431.62948  -5938110.88645  22689104.0884   22689101.1464
      1359.6884
 04  9  3 15 52 15.0020000  0  7G20G11G14G19G22G25G 1
   -316093.56747   -238725.20642  24746152.2604   24746147.9394
      2032.6094
  -6086907.28549  -4736394.91446  22236867.6194   22236862.7254
       380.5634
   9161496.23049   7130161.35647  22132176.9714   22132172.3464
     -3134.9844
  11978485.75146   9322131.73442  24766815.6894   24766811.6744
     -3714.9064
  11396565.89048   8867258.82444  23966246.8774   23966242.0214
     -3350.3594
  -8411715.99249  -6541943.29247  22035806.4554   22035802.5104
      1140.9064
  -7644783.79348  -5953969.70945  22685231.1584   22685227.6894
      1353.7504
 04  9  3 15 52 30.0020000  0  7G20G11G14G19G22G25G 1
   -346574.65647   -262476.69942  24740351.3774   24740347.6274
      2031.5164
  -6092545.38249  -4740788.23746  22235794.9164   22235789.7444
       371.2034
   9208555.48249   7166830.89046  22141132.1824   22141127.2134
     -3139.5784
  12034231.03746   9365569.56242  24777424.3694   24777420.1464
     -3717.8594
  11446846.44649   8906438.44444  23975815.1044   23975810.1434
     -3353.7814
  -8428767.38549  -6555230.07747  22032561.7134   22032557.4084
      1132.5784
  -7665045.97249  -5969758.40545  22681375.2524   22681372.4244
      1347.9064
 04  9  3 15 52 45.0020000  0  6G20G11G14G22G25G 1
   -377036.37347   -286213.09242  24734554.9164   24734551.3224
      2030.0474
  -6098041.18749  -4745070.69346  22234748.7994   22234744.6114
       361.5004
   9255685.85049   7203555.83846  22150100.8544   22150096.3074
     -3144.5474
  11497180.70549   8945659.91344  23985393.4944   23985388.4554
     -3357.5474
  -8445691.43849  -6568417.64647  22029341.1664   22029336.9754
      1123.8444
  -7685218.45748  -5985477.21245  22677536.6824   22677533.3544
      1341.7504
 04  9  3 15 53  0.0020000  0  6G20G11G14G22G25G 1
   -407478.59847   -309934.28742  24728762.4474   24728758.5924
      2028.7034
  -6103394.57849  -4749242.17046  22233730.3854   22233725.5064
       351.9064
   9302886.91049   7240335.87747  22159082.3774   22159078.2524
     -3149.2504
  11547568.57148   8984923.15744  23994981.7604   23994976.8964
     -3361.1874
  -8462488.01849  -6581505.88247  22026145.1044   22026140.9944
      1115.3594
  -7705301.31249  -6001126.18945  22673714.8384   22673711.5214
      1335.6414
 04  9  3 15 53 15.0020000  0  6G20G11G14G22G25G 1
   -437903.21947   -333641.77942  24722972.2834   24722968.8694
      2028.0944
  -6108607.42649  -4753304.12646  22232738.2604   22232733.1744
       343.2034
   9350156.43549   7277169.25546  22168077.6894   22168073.2484
     -3153.2034
  11598008.06148   9024226.60944  24004580.3934   24004575.4364
     -3364.0164
  -8479158.63649  -6594495.96747  22022972.5024   22022968.3224
      1107.4694
  -7725296.46648  -6016706.82446  22669910.0024   22669907.0534
      1330.4534
 04  9  3 15 53 30.0020000  0  6G20G11G14G22G25G 1
   -468311.91247   -357336.83642  24717185.8694   24717182.0614
      2026.6724
  -6113681.13649  -4757257.67146  22231772.9164   22231767.4554
       333.6094
   9397492.53649   7314054.51646  22177085.7994   22177080.9124
     -3157.9694
  11648497.48448   9063568.99744  24014187.8544   24014182.8114
     -3367.6414
  -8495704.76449  -6607389.04447  22019823.5334   22019819.3654
      1098.9064
  -7745205.57549  -6032220.40146  22666121.6044   22666118.4084
      1324.3754
 04  9  3 15 53 45.0020000  0  6G20G11G14G22G25G 1
   -498700.12347   -381015.96842  24711403.0574   24711399.0884
      2025.5314
  -6118611.22249  -4761099.30946  22230834.6044   22230829.8424
       324.1414
   9444899.42649   7350994.93546  22186106.8304   22186102.2054
     -3162.5314
  11699041.27148   9102953.72244  24023806.5104   24023801.0254
     -3371.1094
  -8512121.74249  -6620181.49447  22016699.9634   22016695.8464
      1090.5164
  -7765024.12649  -6047663.42846  22662350.2524   22662346.8144
      1318.5314
 04  9  3 15 54  0.0020000  0  6G20G11G14G22G25G 1
   -529068.83247   -404679.88742  24705623.5804   24705620.2644
      2023.9534
  -6123398.41649  -4764829.60046  22229923.3224   22229918.6504
       314.3914
   9492375.74449   7387989.45946  22195141.1584   22195136.1744
     -3167.4374
  11749638.29149   9142379.94444  24033434.9394   24033429.8614
     -3374.9224
  -8528410.55349  -6632874.06547  22013600.1974   22013596.4554
      1081.6414
  -7784753.14649  -6063036.66946  22658595.5104   22658592.6664
      1312.3134
 04  9  3 15 54 15.0020000  0  6G20G11G14G22G25G 1
   -559419.67046   -428329.89842  24699848.2054   24699844.4634
      2022.7504
  -6128044.43549  -4768449.87246  22229039.6434   22229034.4554
       305.0784
   9539919.52349   7425036.54946  22204188.5724   22204183.5884
     -3171.7664
  11800286.73648   9181846.22544  24043072.6894   24043068.4284
     -3378.2194
  -8544572.81749  -6645468.02347  22010524.0964   22010520.7014
      1073.2974
  -7804394.34949  -6078341.50146  22654858.3934   22654855.0024
      1306.5164
 04  9  3 15 54 30.0020000  0  6G20G11G14G22G25G 1
   -589753.06146   -451966.29842  24694076.6354   24694071.9944
      2021.4844
  -6132549.51749  -4771960.33747  22228182.2134   22228177.1664
       295.4224
   9587530.07149   7462135.65446  22213248.3464   22213243.7404
     -3176.4224
  11850986.09949   9221352.19544  24052720.6274   24052715.5804
     -3381.8284
  -8560608.63149  -6657963.46347  22007472.7834   22007468.4904
      1064.6564
  -7823948.21749  -6093578.27946  22651137.3144   22651133.7294
      1300.4694
 04  9  3 15 54 45.0020000  0  6G20G11G14G22G25G 1
   -620066.36747   -475587.03642  24688307.4714   24688303.7564
      2020.2344
  -6136911.11549  -4775358.99247  22227352.2364   22227347.1704
       286.0004
   9635209.55249   7499288.48346  22222321.7364   22222316.7754
     -3180.9224
  11901738.83348   9260899.75444  24062378.3544   24062373.7014
     -3385.2974
  -8576515.30949  -6670358.27847  22004446.2444   22004441.9634
      1056.1564
  -7843412.15449  -6108744.96946  22647433.1584   22647429.9434
      1294.5634
 04  9  3 15 55  0.0020000  0  6G20G11G14G22G25G 1
   -650356.52746   -499189.72542  24682543.7364   24682539.2094
      2018.5314
  -6141125.96349  -4778643.28547  22226550.2294   22226545.2714
       276.0314
   9682961.04849   7536497.43146  22231408.2524   22231403.7684
     -3185.8754
  11952548.01248   9300491.29344  24072047.4714   24072042.2364
     -3389.1874
  -8592289.60549  -6682649.93147  22001444.1894   22001440.1624
      1047.1724
  -7862783.07949  -6123839.17846  22643747.2054   22643744.4634
      1288.2504
 04  9  3 15 55 15.0020000  0  6G20G11G14G22G25G 1
   -680623.56346   -522774.43642  24676784.6354   24676780.0414
      2017.0474
  -6145193.88949  -4781813.11446  22225776.1434   22225771.4364
       266.2974
   9730784.19349   7573762.21046  22240509.0414   22240504.1004
     -3190.5624
  12003413.53748   9340126.74344  24081726.3934   24081721.0574
     -3392.8914
  -8607931.27349  -6694838.23847  21998467.9324   21998463.5804
      1038.3444
  -7882061.03049  -6138860.95046  22640078.9084   22640074.9394
      1282.1724
 04  9  3 15 55 30.0020000  0  6G20G11G14G22G25G 1
   -710872.69046   -546345.21642  24671028.0964   24671024.1194
      2016.0164
  -6149120.30049  -4784872.65546  22225028.9474   22225024.0844
       257.0004
   9778673.27249   7611078.36247  22249621.8304   22249617.2324
     -3194.7814
  12054329.94648   9379801.83044  24091415.3224   24091410.6664
     -3396.2194
  -8623445.48849  -6706927.22547  21995515.7134   21995511.6624
      1030.0314
  -7901251.41949  -6153814.49446  22636426.6894   22636423.1504
      1276.4224
 04  9  3 15 55 45.0020000  0  6G20G11G14G22G25G 1
   -741103.40846   -569901.58142  24665274.7134   24665271.0374
      2014.8134
  -6152904.39149  -4787821.30147  22224308.9554   22224304.5294
       247.4534
   9826628.51849   7648446.07846  22258747.3144   22258743.1004
     -3199.2344
  12105297.72648   9419516.95344  24101114.4324   24101109.4044
     -3399.5944
  -8638831.65249  -6718916.43847  21992587.6194   21992583.8894
      1021.4384
  -7920353.67648  -6168699.37146  22632791.7294   22632788.6824
      1270.5474
 04  9  3 15 56  0.0020000  0  6G20G11G14G22G25G 1
   -771315.44846   -593443.39642  24659526.6434   24659522.0374
      2013.3284
  -6156545.90849  -4790658.85646  22223615.9244   22223611.4944
       237.9064
   9874649.87349   7685865.30146  22267885.9084   22267880.5924
     -3203.7194
  12156317.08348   9459272.28044  24110822.7914   24110818.0844
     -3403.1094
  -8654089.37749  -6730805.57147  21989684.2214   21989680.3144
      1012.7814
  -7939367.62249  -6183515.40446  22629173.8544   22629170.4284
      1264.5474
 04  9  3 15 56 15.0020000  0  6G20G11G14G22G25G 1
   -801508.24247   -616970.26542  24653780.9554   24653776.4284
      2012.2504
  -6160044.31949  -4793384.88446  22222949.9794   22222945.6864
       228.4844
   9922737.53849   7723336.19746  22277036.4244   22277031.6504
     -3207.9844
  12207388.46348   9499068.13244  24120541.8934   24120536.8034
     -3406.4374
  -8669218.14949  -6742594.21547  21986804.9084   21986800.8544
      1004.3594
  -7958292.76748  -6198262.27646  22625572.3544   22625568.8614
      1258.7814
 04  9  3 15 56 30.0020000  0  6G20G11G14G22G25G 1
   -831679.91447   -640480.64042  24648039.2754   24648035.2834
      2010.5784
  -6163397.73048  -4795997.94747  22222312.2604   22222307.1624
       218.6254
   9970893.09249   7760859.98746  22286200.1824   22286195.7874
     -3212.7664
  12258513.47548   9538905.76344  24130270.4794   24130265.6114
     -3410.2664
  -8684215.72349  -6754280.63147  21983951.3614   21983947.3964
       995.3284
  -7977127.33148  -6212938.54846  22621988.3544   22621984.7524
      1252.4694
 04  9  3 15 56 45.0020000  0  6G20G11G14G22G25G 1
   -861833.23946   -663976.74742  24642300.6664   24642297.4864
      2009.5314
  -6166608.81949  -4798500.09646  22221701.2444   22221696.3964
       209.2344
  10019113.34549   7798434.20446  22295376.1114   22295372.0574
     -3216.9374
  12309689.18848   9578782.91244  24140009.3544   24140004.4394
     -3413.5004
  -8699084.73149  -6765866.86547  21981122.0494   21981117.8034
       986.8914
  -7995874.17648  -6227546.47646  22618421.0804   22618417.7094
      1246.7814
 04  9  3 15 57  0.0020000  0  6G20G11G14G22G25G 1
   -891967.45646   -687457.91042  24636566.7524   24636562.8384
      2008.1724
  -6169676.64149  -4800890.60647  22221117.3544   22221112.6354
       199.4694
  10067398.85849   7836059.27346  22304564.6274   22304559.7834
     -3221.3914
  12360916.45048   9618700.24644  24149757.2134   24149751.9084
     -3417.0164
  -8713824.46249  -6777352.36547  21978317.1434   21978313.0294
       978.1564
  -8014532.51748  -6242085.42646  22614870.3774   22614866.6544
      1240.7664
 04  9  3 15 57 15.0020000  0  6G20G11G14G22G25G 1
   -922081.42947   -710923.34242  24630836.1974   24630832.1004
      2007.0634
  -6172599.97748  -4803168.54946  22220560.9634   22220555.9004
       190.2034
  10115750.38149   7873735.75246  22313765.6824   22313760.8894
     -3225.5004
  12412196.19248   9658658.44244  24159515.4794   24159510.5414
     -3420.2664
  -8728433.64249  -6788736.13547  21975537.1274   21975532.7014
       969.7344
  -8033101.30648  -6256554.62146  22611336.6664   22611333.3694
      1235.1884
 04  9  3 15 57 30.0020000  0  6G20G11G14G22G25G 1
   -952174.02147   -734372.10642  24625110.4084   24625106.1274
      2005.1564
  -6175377.88849  -4805333.14746  22220032.4634   22220027.5574
       180.1884
  10164168.86449   7911464.43546  22322979.1274   22322974.5764
     -3230.2504
  12463529.43248   9698658.33144  24169283.5024   24169278.6934
     -3424.1094
  -8742910.93249  -6800017.13047  21972782.2294   21972777.7954
       960.5634
  -8051579.44248  -6270953.15046  22607820.5104   22607817.2404
      1228.6884
 04  9  3 15 57 45.0020000  0  6G20G11G14G22G25G 1
   -982246.66547   -757805.31242  24619386.9794   24619382.5374
      2004.2974
  -6178011.81149  -4807385.55747  22219531.0254   22219526.1664
       170.8594
  10212652.36949   7949243.78346  22332205.6194   22332200.7294
     -3234.2664
  12514914.50548   9738698.65444  24179062.8224   24179057.3574
     -3427.2814
  -8757257.75649  -6811196.46547  21970051.7604   21970047.6074
       952.1884
  -8069968.51948  -6285282.29746  22604320.8304   22604317.5884
      1223.0944
 04  9  3 15 58  0.0020000  0  6G20G11G14G22G25G 1
  -1012300.14347   -781223.58842  24613667.9324   24613664.0844
      2002.9534
  -6180502.08749  -4809326.04247  22219057.2444   22219052.2254
       161.2814
  10261199.97749   7987073.07346  22341444.1584   22341439.1394
     -3238.5164
  12566350.67948   9778778.73744  24188850.8774   24188845.4554
     -3430.7034
  -8771474.59949  -6822274.52647  21967346.0644   21967342.7094
       943.5314
  -8088269.18849  -6299542.56846  22600838.2604   22600834.9474
      1217.1724
 04  9  3 15 58 15.0020000  0  6G20G11G14G22G25G 1
  -1042333.34647   -804626.07342  24607952.8774   24607948.6314
      2001.4384
  -6182847.70149  -4811153.80147  22218610.7754   22218605.6504
       151.4384
  10309812.40149   8024952.87446  22350694.7834   22350690.0454
     -3243.0784
  12617838.87648   9818899.37044  24198648.0024   24198643.0374
     -3434.3914
  -8785560.31549  -6833250.40047  21964665.9394   21964661.8344
       934.5474
  -8106480.46848  -6313733.16846  22597373.0884   22597369.9554
      1211.0314
 04  9  3 15 58 30.0020000  0  6G20G11G14G22G25G 1
  -1072346.48547   -828012.93642  24602241.4474   24602237.9514
      2000.1254
  -6185048.81249  -4812868.95447  22218192.1434   22218187.2794
       141.8134
  10358489.10849   8062882.76646  22359957.1824   22359952.5804
     -3247.2974
  12669378.84448   9859060.36544  24208455.9004   24208451.2014
     -3437.8284
  -8799514.85149  -6844124.05847  21962010.6354   21962006.5104
       925.8444
  -8124602.63248  -6327854.31546  22593924.3224   22593921.4984
      1205.0944
 04  9  3 15 58 45.0020000  0  6G20G11G14G22G25G 1
  -1102338.38847   -851383.20642  24596534.1044   24596530.3544
      1998.8594
  -6187104.24549  -4814470.59647  22217801.0254   22217795.6074
       132.2194
  10407230.92749   8100863.38646  22369232.6114   22369227.6434
     -3251.5314
  12720971.48348   9899262.40443  24218273.7294   24218268.7214
     -3441.1724
  -8813337.11449  -6854894.64647  21959380.5724   21959375.9164
       917.1094
  -8142634.65649  -6341905.24246  22590493.1664   22590489.6544
      1199.2034
 04  9  3 15 59  0.0020000  0  6G20G11G14G22G25G 1
  -1132311.68647   -874739.02643  24590830.7134   24590826.4944
      1997.4224
  -6189016.73949  -4815960.85847  22217436.8774   22217431.7954
       122.4224
  10456034.84949   8138892.40046  22378519.6504   22378515.0844
     -3255.9534
  12772614.03648   9939503.32544  24228101.1504   24228096.1664
     -3444.7194
  -8827029.82749  -6865564.28847  21956774.6584   21956770.6394
       908.3134
  -8160579.25049  -6355888.04646  22587078.5494   22587075.3464
      1193.1564
 04  9  3 15 59 15.0020000  0  6G20G11G14G22G25G 1
  -1162262.07947   -898076.98642  24585130.8304   24585126.8574
      1996.0634
  -6190781.93649  -4817336.34446  22217101.0884   22217096.0644
       112.9064
  10504904.87349   8176972.93946  22387819.4324   22387814.5724
     -3260.0164
  12824310.67448   9979786.38644  24237938.3774   24237933.3464
     -3448.0784
  -8840588.47249  -6876129.45647  21954194.6894   21954190.5884
       899.6414
  -8178432.20549  -6369799.43346  22583681.2134   22583677.3964
      1187.3594
 04  9  3 15 59 30.0020000  0  6G20G11G14G22G25G 1
  -1192191.99947   -921399.00542  24579435.1894   24579431.5374
      1994.4844
  -6192401.96749  -4818598.71346  22216792.8144   22216787.6314
       103.0314
  10553838.38649   8215102.92746  22397130.9554   22397126.3074
     -3264.5004
  12876058.97848  10020109.70644  24247785.9394   24247781.2364
     -3451.8124
  -8854015.25649  -6886591.87747  21951639.4164   21951635.2914
       890.5004
  -8196195.81549  -6383641.19946  22580300.7754   22580297.6824
      1181.1254
 04  9  3 15 59 45.0020000  0  6G20G11G14G22G25G 1
  -1222102.38748   -944705.81442  24573744.1744   24573740.0964
      1993.1564
  -6193877.91249  -4819748.81046  22216512.0024   22216507.1704
        93.4224
  10602833.93449   8253281.26546  22406454.4864   22406450.0494
     -3268.6724
  12927857.71848  10060472.32144  24257642.6504   24257637.8184
     -3455.1724
  -8867311.13249  -6896952.29247  21949109.6194   21949105.2014
       881.7814
  -8213871.27349  -6397414.27446  22576937.4474   22576934.3264
      1175.2034
 04  9  3 16  0  0.0020000  0  6G20G11G14G22G25G 1
  -1251989.69347   -967994.58542  24568056.7524   24568052.7094
      1991.9844
  -6195206.17249  -4820783.81946  22216259.3854   22216254.5024
        83.7504
  10651894.81149   8291510.50046  22415790.6194   22415785.9554
     -3272.7344
  12979710.33748  10100876.94144  24267510.1434   24267504.9364
     -3458.4844
  -8880472.40349  -6907207.83147  21946604.6354   21946601.0924
       873.0784
  -8231455.08249  -6411115.94246  22573591.1434   22573587.6824
      1169.3914
 04  9  3 16  0 15.0020000  0  6G20G11G14G22G25G 1
  -1281857.94947   -991268.54542  24562372.3934   24562368.4284
      1990.7504
  -6196390.92349  -4821707.00247  22216033.6114   22216029.2994
        74.3284
  10701016.48949   8329787.12546  22425138.2444   22425133.8264
     -3276.6414
  13031612.52548  10141320.16444  24277386.6434   24277381.8654
     -3461.5944
  -8893503.22849  -6917361.72047  21944125.2134   21944121.2604
       864.5164
  -8248951.57349  -6424749.56446  22570261.7364   22570258.2524
      1163.6884
 04  9  3 16  0 30.0020000  0  6G20G11G14G22G25G 1
  -1311704.59647  -1014525.62243  24556693.5884   24556689.1744
      1989.1884
  -6197429.26749  -4822516.10347  22215836.0334   22215831.4674
        64.5164
  10750201.45649   8368113.05846  22434497.8304   22434493.3964
     -3280.9374
  13083566.97348  10181804.12743  24287273.3224   24287268.5454
     -3465.2194
  -8906400.60549  -6927411.60747  21941671.1744   21941667.1234
       855.5164
  -8266357.99349  -6438313.00546  22566949.3464   22566945.9244
      1157.6094
 04  9  3 16  0 45.0020000  0  6G20G11G14G22G25G 1
  -1341530.50247  -1037766.58242  24551017.0644   24551013.2094
      1987.2974
  -6198322.10849  -4823211.83847  22215666.2994   22215661.5024
        54.3444
  10799448.38549   8406487.27546  22443869.2364   22443864.3464
     -3285.5314
  13135572.62248  10222327.97044  24297169.7604   24297165.0214
     -3469.0004
  -8919165.30949  -6937358.12947  21939241.8464   21939237.7564
       846.2344
  -8283675.29649  -6451807.00446  22563654.3144   22563650.3694
      1151.2344
 04  9  3 16  1  0.0020000  0  6G20G11G14G22G25G 1
  -1371336.47847  -1060992.03943  24545345.3854   24545341.5644
      1986.4224
  -6199070.24049  -4823794.80047  22215524.0804   22215518.6784
        45.0634
  10848756.18849   8444908.93546  22453252.1894   22453247.2134
     -3289.2504
  13187628.52548  10262890.98344  24307075.7914   24307070.4824
     -3472.1094
  -8931798.16949  -6947201.90647  21936837.9554   21936833.5214
       837.7974
  -8300904.40849  -6465232.28346  22560375.4004   22560371.6544
      1145.6094
 04  9  3 16  1 15.0020000  0  6G20G11G14G22G25G 1
  -1401121.18447  -1084200.88342  24539677.7364   24539673.0844
      1984.9534
  -6199672.40249  -4824264.01647  22215409.5884   22215404.8264
        35.3914
  10898125.90549   8483378.82646  22462647.0724   22462642.1274
     -3293.3284
  13239735.86448  10303494.07444  24316991.5724   24316986.2754
     -3475.3914
  -8944297.74449  -6956941.82647  21934459.1354   21934455.6504
       828.9384
  -8318044.03049  -6478587.82246  22557113.8464   22557110.7644
      1139.7194
 04  9  3 16  1 30.0020000  0  6G20G11G14G22G25G 1
  -1430886.62247  -1107394.72442  24534013.6664   24534009.3694
      1983.5784
  -6200130.50949  -4824620.99347  22215322.0724   22215317.7294
        25.6254
  10947555.20749   8521895.15646  22472053.2914   22472048.5924
     -3297.4374
  13291892.57848  10344135.64844  24326916.5024   24326911.3854
     -3478.8754
  -8956666.06749  -6966579.47147  21932105.5184   21932101.7014
       820.0164
  -8335096.26049  -6491875.26946  22553869.2524   22553865.4714
      1133.8134
 04  9  3 16  1 45.0030000  0  6G20G11G14G22G25G 1
  -1460630.66147  -1130571.86142  24528353.4604   24528349.1834
      1981.7974
  -6200440.36449  -4824862.43947  22215263.1324   22215258.4684
        15.4694
  10997051.23549   8560463.47646  22481471.6324   22481467.1444
     -3301.8124
  13344106.05748  10384821.43944  24336852.5624   24336847.4484
     -3482.6414
  -8968899.63749  -6976112.12147  21929777.8194   21929773.7694
       810.7504
  -8352058.15949  -6505092.33946  22550641.2964   22550637.5424
      1127.5004
 04  9  3 16  2  0.0030000  0  6G20G11G14G22G25G 1
  -1490347.33446  -1153727.74343  24522698.7654   24522694.9914
      1980.2194
  -6200599.91549  -4824986.77447  22215232.8744   22215227.9014
         5.6414
  11046609.04549   8599079.93546  22490902.4764   22490897.6444
     -3306.0004
  13396371.24348  10425547.53244  24346798.3974   24346793.2844
     -3486.1254
  -8980994.60749  -6985536.77147  21927475.9834   21927472.0224
       801.8134
  -8368925.60049  -6518235.79246  22547431.7724   22547428.0934
      1121.4064
 04  9  3 16  2 15.0030000  0  6G20G11G14G22G25G 1
  -1520045.91047  -1176869.45443  24517046.8354   24517043.4444
      1979.2344
  -6200616.50249  -4824999.70046  22215229.8744   22215224.9444
        -3.7504
  11096224.32949   8637741.18646  22500343.7334   22500339.0584
     -3309.6874
  13448684.19848  10466310.84544  24356753.5074   24356748.3394
     -3489.2344
  -8992958.98549  -6994859.65647  21925199.0544   21925195.6044
       793.1254
  -8385707.01349  -6531312.20546  22544238.1554   22544234.6324
      1115.7974
 04  9  3 16  2 30.0030000  0  6G20G11G14G22G25G 1
  -1549719.73847  -1199991.91443  24511400.1634   24511396.4404
      1977.2504
  -6200483.47949  -4824896.05547  22215255.2654   22215249.9684
       -13.9534
  11145903.39249   8676452.12646  22509797.3354   22509793.0694
     -3314.1564
  13501051.50948  10507116.49744  24366718.2024   24366713.7574
     -3493.1874
  -9004786.17449  -7004075.63947  21922948.6714   21922944.4404
       783.7664
  -8402395.81349  -6544316.45546  22541062.0774   22541058.9644
      1109.3284
 04  9  3 16  2 45.0030000  0  6G20G11G14G22G25G 1
  -1579370.98647  -1223096.74542  24505757.8584   24505753.7724
      1975.9384
  -6200202.86849  -4824677.39147  22215308.5304   22215303.3824
       -23.7034
  11195643.72849   8715210.82546  22519262.8124   22519258.3234
     -3318.1254
  13553470.74348  10547962.63844  24376693.2184   24376688.5814
     -3496.3914
  -9016478.18049  -7013186.27947  21920723.6404   21920719.5974
       774.8754
  -8418994.28649  -6557250.33446  22537903.5854   22537900.1324
      1103.4844
 04  9  3 16  3  0.0030000  0  6G20G11G14G22G25G 1
  -1609001.63147  -1246185.55242  24500118.6634   24500115.0854
      1974.7194
  -6199776.73149  -4824345.34547  22215389.4764   22215384.5384
       -33.2504
  11245442.98649   8754015.42646  22528739.3744   22528734.7104
     -3321.8914
  13605939.75548  10588847.53444  24386677.4374   24386672.7144
     -3499.6094
  -9028036.90949  -7022193.07847  21918524.1474   21918520.1944
       766.1564
  -8435504.52949  -6570115.45746  22534761.8664   22534758.0854
      1097.7194
 04  9  3 16  3 15.0030000  0  6G20G11G14G22G25G 1
  -1638613.99147  -1269260.11142  24494485.1874   24494479.7884
      1973.4534
  -6199207.34849  -4823901.67647  22215497.8664   22215492.7884
       -42.8444
  11295298.56049   8792863.91946  22538226.7494   22538222.0034
     -3325.7194
  13658456.21048  10629769.42044  24396672.0694   24396666.8234
     -3502.7344
  -9039464.65749  -7031097.80347  21916349.8824   21916345.8974
       757.3754
  -8451928.94949  -6582913.68846  22531636.6474   22531632.7924
      1091.9694
 04  9  3 16  3 30.0030000  0  6G20G11G14G22G25G 1
  -1668204.59347  -1292317.72543  24488854.0074   24488848.7454
      1972.0474
  -6198491.20849  -4823343.65447  22215634.3124   22215628.8744
       -52.5314
  11345213.65649   8831758.77646  22547724.5934   22547720.3474
     -3329.5624
  13711023.50548  10670730.91144  24406674.9374   24406670.1044
     -3506.1254
  -9050757.89549  -7039897.73347  21914200.5384   21914196.5344
       748.4384
  -8468264.08449  -6595642.36346  22528527.9834   22528524.3584
      1086.1564
 04  9  3 16  3 45.0030000  0  6G20G11G14G22G25G 1
  -1697770.27147  -1315355.91743  24483227.5304   24483222.8194
      1970.3594
  -6197625.04349  -4822668.71947  22215798.9914   22215794.0544
       -62.6094
  11395191.10149   8870702.22746  22557235.3194   22557230.5114
     -3333.7664
  13763644.54148  10711734.29444  24416688.1634   24416683.3234
     -3509.7034
  -9061913.29349  -7048590.23347  21912077.7024   21912073.6014
       739.2344
  -8484506.86749  -6608299.06846  22525437.0224   22525433.4484
      1079.9384
 04  9  3 16  4  0.0030000  0  6G20G11G14G22G25G 1
  -1727319.23046  -1338381.06142  24477604.6874   24477600.4874
      1969.2814
  -6196617.24349  -4821883.42047  22215990.7334   22215985.1164
       -71.9224
  11445222.33649   8909687.59746  22566756.4214   22566751.6904
     -3337.2664
  13816310.88348  10752772.95144  24426710.0464   24426705.4724
     -3512.6094
  -9072939.02149  -7057181.71647  21909980.0464   21909975.8434
       730.6564
  -8500665.67549  -6620890.34346  22522362.4374   22522358.7884
      1074.4064
 04  9  3 16  4 15.0030000  0  6G20G11G14G22G25G 1
  -1756846.65746  -1361389.42642  24471985.6164   24471981.2024
      1967.9534
  -6195462.98649  -4820984.01246  22216210.5074   22216205.6364
       -81.7344
  11495311.77149   8948718.31246  22576287.9994   22576282.6084
     -3341.1414
  13869027.34048  10793850.67243  24436741.8974   24436737.4254
     -3515.9844
  -9083830.34349  -7065668.44847  21907907.2104   21907902.6444
       721.6884
  -8516735.78349  -6633412.49046  22519304.3124   22519300.5074
      1068.4844
 04  9  3 16  4 30.0030000  0  6G20G11G14G22G25G 1
  -1786351.46847  -1384380.17843  24466369.8434   24466366.7884
      1966.4694
  -6194161.10349  -4819969.56147  22216458.2804   22216452.9914
       -91.5164
  11545460.25449   8987795.04146  22585831.0154   22585826.3664
     -3345.0164
  13921794.79148  10834968.14044  24446783.8124   24446778.6014
     -3519.3284
  -9094586.04849  -7074049.51247  21905860.2264   21905856.7724
       712.7344
  -8532716.10649  -6645864.68246  22516263.1244   22516259.7064
      1062.5164
 04  9  3 16  4 45.0030000  0  6G20G11G14G22G25G 1
  -1815838.71647  -1407357.25343  24460759.0934   24460755.6014
      1965.1414
  -6192716.58049  -4818843.96647  22216733.1084   22216727.8394
      -101.2344
  11595662.42049   9026913.60546  22595383.8434   22595379.4484
     -3348.7194
  13974608.07848  10876121.33944  24456833.6714   24456828.8004
     -3522.5624
  -9105211.02349  -7082328.70147  21903838.5624   21903834.5654
       703.8754
  -8548611.86049  -6658250.98446  22513238.1324   22513234.6714
      1056.7344
 04  9  3 16  5  0.0030000  0  6G20G11G14G22G25G 1
  -1845300.18247  -1430314.22542  24455153.1084   24455148.6284
      1963.1884
  -6191121.20949  -4817600.82347  22217036.8124   22217031.5854
      -111.4064
  11645926.15849   9066080.13546  22604948.9684   22604944.0654
     -3353.0314
  14027475.34948  10917316.56243  24466893.7104   24466888.9954
     -3526.3284
  -9115696.97449  -7090499.57247  21901842.7654   21901839.2534
       694.3594
  -8564414.88149  -6670565.01446  22510231.0224   22510227.6834
      1050.3914
 04  9  3 16  5 15.0030000  0  6G20G11G14G22G25G 1
  -1874744.25847  -1453257.63943  24449549.7654   24449545.6474
      1962.3914
  -6189383.46549  -4816246.74247  22217367.2654   22217362.4214
      -120.5004
  11696242.66448   9105287.79346  22614523.8354   22614519.4644
     -3356.1414
  14080388.10548  10958547.26043  24476962.6164   24476957.8944
     -3528.9064
  -9126052.21948  -7098568.59547  21899872.5384   21899868.4994
       686.0634
  -8580133.63249  -6682813.38446  22507239.7024   22507235.7414
      1045.2034
 04  9  3 16  5 30.0030000  0  6G20G11G14G22G25G 1
  -1904171.06147  -1476187.62142  24443950.7414   24443946.2574
      1960.8754
  -6187503.49349  -4814781.83247  22217724.9914   22217720.3004
      -130.3444
  11746611.65748   9144536.34246  22624108.5384   22624104.0264
     -3360.0314
  14133345.98548  10999813.10544  24487040.5934   24487035.3824
     -3532.3594
  -9136276.82249  -7106535.80647  21897926.8744   21897922.7654
       676.9534
  -8595768.32849  -6694996.24846  22504264.2264   22504261.1794
      1039.2034
 04  9  3 16  5 45.0030000  0  6G20G11G14G22G25G 1
  -1933573.32748  -1499098.45943  24438354.6794   24438351.1714
      1959.6254
  -6185473.93649  -4813200.36147  22218111.1944   22218105.9644
      -139.9534
  11797039.94448   9183831.09646  22633704.9764   22633700.4684
     -3363.4694
  14186356.12848  11041119.67143  24497127.9214   24497122.7184
     -3535.4844
  -9146363.50849  -7114395.55847  21896007.7184   21896003.4834
       668.1724
  -8611311.79149  -6707108.03946  22501306.8824   22501303.1204
      1033.5474
 04  9  3 16  6  0.0030000  0  6G20G11G14G22G25G 1
  -1962960.18747  -1521997.30443  24432763.0384   24432758.9914
      1958.4224
  -6183304.10849  -4811509.59847  22218524.1404   22218519.3864
      -149.5004
  11847517.90948   9223164.56846  22643310.6794   22643305.6904
     -3367.0314
  14239409.03748  11082459.57843  24507223.3194   24507218.4484
     -3538.4694
  -9156321.45249  -7122154.99047  21894112.4524   21894108.3004
       659.3914
  -8626773.34149  -6719155.98746  22498364.2414   22498361.0114
      1027.8594
 04  9  3 16  6 15.0030000  0  6G20G11G14G22G25G 1
  -1992328.74147  -1544881.88343  24427173.5694   24427169.8194
      1957.1254
  -6180991.07149  -4809707.23247  22218964.6014   22218959.6514
      -159.1564
  11898048.24449   9262538.84546  22652926.0224   22652921.7534
     -3370.5944
  14292507.63248  11123835.07243  24517327.8354   24517322.7574
     -3541.5944
  -9166147.62249  -7129811.73647  21892242.5934   21892238.6904
       650.5164
  -8642150.21649  -6731137.96446  22495438.3044   22495434.9604
      1022.1094
 04  9  3 16  6 30.0030000  0  6G20G11G14G22G25G 1
  -2021681.68347  -1567754.28442  24421588.5224   24421584.3864
      1956.2344
  -6178537.23149  -4807795.15447  22219431.4834   22219426.0694
      -168.4694
  11948628.16049   9301951.74346  22662551.2804   22662546.3354
     -3373.7504
  14345649.24548  11165244.09743  24527440.2964   24527435.5734
     -3544.3754
  -9175844.49349  -7137367.72847  21890397.2964   21890392.9404
       642.0004
  -8657445.03349  -6743055.99346  22492528.0624   22492524.1984
      1016.8134
 04  9  3 16  6 45.0030000  0  6G20G11G14G22G25G 1
  -2051019.50647  -1590614.90843  24416005.5074   24416001.5654
      1955.0474
  -6175943.33249  -4805773.94447  22219925.1404   22219919.7884
      -177.9374
  11999256.77149   9341402.58946  22672185.4374   22672180.7224
     -3377.1094
  14398833.08348  11206685.98443  24537560.6474   24537556.1444
     -3547.3594
  -9185412.57949  -7144823.37947  21888576.6794   21888572.0934
       633.2344
  -8672658.49749  -6754910.63246  22489632.9444   22489629.6284
      1011.2034
 04  9  3 16  7  0.0030000  0  6G20G11G14G22G25G 1
  -2080339.76847  -1613461.87643  24410426.8664   24410422.2454
      1954.0944
  -6173206.96249  -4803641.71447  22220445.6874   22220440.6014
      -187.2814
  12049936.05949   9380892.93946  22681829.3434   22681824.7494
     -3380.3914
  14452061.43348  11248162.60243  24547689.6014   24547685.2414
     -3550.1564
  -9194849.39449  -7152176.73247  21886780.9684   21886776.9604
       624.6414
  -8687788.27649  -6766700.05846  22486753.5224   22486750.2454
      1005.7664
 04  9  3 16  7 15.0030000  0  6G20G11G14G22G25G 1
  -2109644.14947  -1636296.42143  24404850.0854   24404846.0694
      1953.3284
  -6170329.80949  -4801399.77647  22220992.8824   22220988.1754
      -196.2504
  12100664.01349   9420421.20446  22691482.7184   22691478.0854
     -3383.2344
  14505332.50648  11289672.48643  24557827.1014   24557822.7614
     -3552.6254
  -9204156.74049  -7159429.20747  21885009.4214   21885005.7844
       616.4064
  -8702836.14749  -6778425.66146  22483890.6244   22483886.8274
      1000.6564
 04  9  3 16  7 30.0030000  0  6G20G11G14G22G25G 1
  -2138933.53547  -1659119.32043  24399276.6634   24399272.4404
      1951.7504
  -6167312.70649  -4799048.78847  22221567.3514   22221562.7454
      -206.2034
  12151439.52449   9459986.52446  22701144.8904   22701140.5584
     -3386.9694
  14558645.27248  11331214.87043  24567972.0304   24567967.8234
     -3555.9374
  -9213335.29049  -7166581.31547  21883262.9604   21883258.9794
       607.1884
  -8717802.98749  -6790088.12246  22481041.9834   22481038.5774
       994.7194
 04  9  3 16  7 45.0030000  0  6G20G11G14G22G25G 1
  -2168203.73547  -1681927.24743  24393706.7414   24393702.4834
      1951.0784
  -6164151.36349  -4796585.42147  22222168.9994   22222163.8234
      -215.1254
  12202266.43649   9499591.89046  22710816.5934   22710813.1204
     -3389.7344
  14612003.81348  11372792.92343  24578126.0464   24578121.4444
     -3558.3594
  -9222380.78849  -7173629.75347  21881541.7884   21881537.5654
       599.0784
  -8732684.68749  -6801684.25346  22478210.2414   22478206.7494
       989.6884
 04  9  3 16  8  0.0030000  0  6G20G11G14G22G25G 1
  -2197456.73447  -1704721.79443  24388139.9764   24388136.0344
      1949.5474
  -6160847.90749  -4794011.29947  22222797.6244   22222792.3474
      -225.0784
  12253142.40549   9539235.49146  22720498.6554   22720493.9764
     -3393.4844
  14665405.80548  11414404.80843  24588287.9294   24588283.6984
     -3561.6414
  -9231295.20249  -7180576.04947  21879845.5544   21879841.2064
       589.7974
  -8747483.50349  -6813215.79346  22475394.1714   22475390.8864
       983.7814
 04  9  3 16  8 15.0030000  0  6G20G11G14G22G25G 1
  -2226689.47646  -1727500.53643  24382576.5774   24382573.3514
      1948.2344
  -6157399.42949  -4791324.18247  22223453.6794   22223448.6714
      -234.6564
  12304070.02248   9578919.33646  22730189.3514   22730184.9334
     -3396.7504
  14718854.17848  11456052.87343  24598458.6084   24598453.7884
     -3564.6564
  -9240075.45949  -7187417.80447  21878174.8274   21878170.7494
       581.0474
  -8762196.59149  -6824680.52046  22472594.5154   22472590.8904
       978.2034
 04  9  3 16  8 30.0030000  0  6G20G11G14G22G25G 1
  -2255904.21547  -1750265.24043  24377017.8124   24377014.4294
      1946.9384
  -6153808.20849  -4788525.83547  22224136.9374   22224132.3664
      -244.1874
  12355046.78849   9618641.47146  22739890.2184   22739885.4724
     -3400.1254
  14772346.62648  11497735.25643  24608638.2024   24608633.6834
     -3567.6874
  -9248723.63649  -7194156.64147  21876529.2184   21876524.6244
       572.1414
  -8776826.11749  -6836080.15146  22469810.5934   22469807.0424
       972.4694
 04  9  3 16  8 45.0030000  0  6G20G11G14G22G25G 1
  -2285102.48047  -1773017.14443  24371461.1014   24371457.1044
      1946.0004
  -6150075.64449  -4785617.34147  22224847.4604   22224842.3394
      -253.5624
  12406070.92448   9658400.53046  22749599.9684   22749594.8314
     -3403.2344
  14825881.51248  11539450.74443  24618825.7724   24618821.3004
     -3570.4374
  -9257241.37249  -7200793.83347  21874907.8744   21874904.1044
       563.5164
  -8791373.73549  -6847415.94746  22467042.1244   22467038.6164
       967.1254
 04  9  3 16  9  0.0030000  0  6G20G11G14G22G25G 1
  -2314284.52548  -1795756.39243  24365907.8904   24365903.4954
      1945.0314
  -6146202.02449  -4782598.94247  22225584.6164   22225579.3904
      -262.9224
  12457141.85948   9698196.04646  22759318.4054   22759313.5034
     -3406.2814
  14879458.45648  11581198.95043  24629021.0774   24629016.4724
     -3573.2194
  -9265628.79949  -7207329.48347  21873311.7264   21873307.6124
       554.8284
  -8805839.80049  -6858688.20246  22464289.1554   22464285.8664
       961.7344
 04  9  3 16  9 15.0030000  0  6G20G11G14G22G25G 1
  -2343449.57348  -1818482.38343  24360358.8584   24360353.6204
      1943.7034
  -6142186.55649  -4779470.01247  22226348.7654   22226343.8044
      -272.4534
  12508260.08649   9738028.41946  22769045.7964   22769040.6204
     -3409.5624
  14933078.15448  11622980.50043  24639224.4374   24639219.5974
     -3576.1414
  -9273885.12949  -7213762.98047  21871740.7884   21871737.0774
       546.0784
  -8820223.61949  -6869896.36646  22461552.1324   22461548.5074
       956.0944
 04  9  3 16  9 30.0030000  0  6G20G11G14G22G25G 1
  -2372596.10547  -1841193.95043  24354812.3824   24354807.5304
      1942.2664
  -6138027.76049  -4776229.40547  22227139.9764   22227135.2144
      -282.1874
  12559426.81748   9777898.57846  22778782.6634   22778777.3234
     -3412.8594
  14986741.90848  11664796.37343  24649436.3974   24649430.9874
     -3579.2504
  -9282008.79749  -7220093.10547  21870194.7804   21870190.7844
       536.9064
  -8834523.74449  -6881039.31846  22458830.9054   22458827.6324
       950.3754
 04  9  3 16  9 45.0030000  0  6G20G11G14G22G25G 1
  -2401725.11748  -1863891.86743  24349268.6944   24349264.8154
      1941.2034
  -6133726.76449  -4772877.98247  22227958.6634   22227953.7454
      -291.5784
  12610640.50649   9817805.34746  22788528.2184   22788523.3474
     -3415.9534
  15040448.32648  11706645.47843  24659656.2574   24659651.5934
     -3582.0314
  -9290000.88049  -7226320.69247  21868674.0774   21868670.0034
       528.2504
  -8848741.42449  -6892118.02446  22456125.2104   22456121.3704
       944.9694
 04  9  3 16 10  0.0030000  0  6G20G11G14G22G25G 1
  -2430835.58247  -1886575.34543  24343729.2104   24343725.0424
      1940.1724
  -6129282.53249  -4769414.93847  22228804.4684   22228799.2884
      -300.9064
  12661901.98148   9857749.34146  22798282.5934   22798278.0224
     -3418.9374
  15094198.31548  11748528.57143  24669885.1874   24669879.7614
     -3584.7194
  -9297860.16549  -7232444.80947  21867178.5694   21867174.3044
       519.6254
  -8862875.66549  -6903131.70746  22453435.8974   22453432.0464
       939.6254
 04  9  3 16 10 15.0030000  0  6G20G11G14G22G25G 1
  -2459927.98247  -1909244.73443  24338192.9294   24338188.8194
      1939.3444
  -6124695.47749  -4765840.61847  22229676.8514   22229671.6324
      -310.2034
  12713210.38749   9897729.89346  22808046.4604   22808041.7264
     -3421.7504
  15147991.45448  11790445.27543  24680121.4134   24680115.7964
     -3587.3284
  -9305587.21449  -7238465.87947  21865708.2024   21865704.0584
       511.1254
  -8876927.09449  -6914080.85247  22450761.5624   22450758.4094
       934.3134
 04  9  3 16 10 30.0030000  0  6G20G11G14G22G25G 1
  -2489002.88948  -1931900.49743  24332660.8354   24332656.5344
      1937.6724
  -6119966.24349  -4762155.50747  22230577.1084   22230572.1284
      -320.0314
  12764564.90049   9937746.38246  22817818.8974   22817814.3864
     -3425.1724
  15201826.93548  11832394.96343  24690365.2334   24690361.4174
     -3590.4694
  -9313182.49749  -7244384.28347  21864262.7494   21864258.7334
       501.9384
  -8890896.34049  -6924965.98246  22448103.7574   22448100.0264
       928.5314
 04  9  3 16 10 45.0030000  0  6G20G11G14G22G25G 1
  -2518059.21547  -1954541.77543  24327131.2334   24327126.6444
      1936.5314
  -6115093.86349  -4758358.85047  22231503.9834   22231499.4684
      -329.5944
  12815966.29849   9977799.40346  22827600.2414   22827595.5974
     -3428.2504
  15255705.72848  11874378.39343  24700618.7104   24700614.8744
     -3593.2974
  -9320644.86049  -7250199.09047  21862842.8744   21862838.5344
       493.1254
  -8904782.47049  -6935786.32946  22445460.7574   22445457.4604
       923.0164
 04  9  3 16 11  0.0030000  0  6G20G11G14G22G25G 1
  -2547094.44347  -1977166.60643  24321605.3274   24321602.0074
      1935.0004
  -6110075.90949  -4754448.76347  22232459.1554   22232454.1014
      -339.3284
  12867416.74049  10017890.64446  22837390.7724   22837386.1324
     -3431.6564
  15309630.04948  11916397.30243  24710879.9524   24710875.6324
     -3596.4224
  -9327971.74549  -7255908.35247  21861448.3434   21861444.4054
       484.0004
  -8918583.09649  -6946540.05746  22442834.8274   22442830.9994
       917.2504
 04  9  3 16 11 15.0030000  0  6G20G11G14G22G25G 1
  -2576110.94747  -1999776.86243  24316083.7414   24316080.0464
      1934.0474
  -6104914.69049  -4750427.03647  22233441.2104   22233436.2024
      -348.5624
  12918913.47649  10058017.95846  22847190.4374   22847185.8154
     -3434.3754
  15363597.50248  11958449.82643  24721149.8744   24721144.8544
     -3598.9844
  -9335165.55249  -7261513.90847  21860079.3974   21860075.4214
       475.4224
  -8932300.66149  -6957229.05846  22440224.2414   22440220.8664
       912.0004
 04  9  3 16 11 30.0030000  0  6G20G11G14G22G25G 1
  -2605108.80248  -2022372.58743  24310565.8124   24310561.9834
      1932.7034
  -6099610.27049  -4746293.72347  22234450.8584   22234446.0344
      -358.2034
  12970456.22249  10098181.12446  22856998.5544   22856993.7724
     -3437.5944
  15417607.86047  12000535.79543  24731427.0694   24731422.7294
     -3601.9064
  -9342226.23749  -7267015.73147  21858735.8904   21858731.2104
       466.4064
  -8945935.34249  -6967853.48046  22437630.3194   22437626.3824
       906.3754
 04  9  3 16 11 45.0030000  0  6G20G11G14G22G25G 1
  -2634090.60847  -2044955.81343  24305051.1164   24305046.5694
      1931.1094
  -6094165.29149  -4742050.90047  22235486.7574   22235481.3824
      -368.1094
  13022041.92149  10138377.75346  22866815.5074   22866810.8154
     -3440.9694
  15471658.40247  12042653.06943  24741713.1244   24741708.5384
     -3605.1414
  -9349156.40749  -7272415.86447  21857416.9684   21857412.6904
       457.1414
  -8959489.86549  -6978415.44946  22435050.3354   22435046.8154
       900.5004
 04  9  3 16 12  0.0030000  0  6G20G11G14G22G25G 1
  -2663051.90448  -2067523.03743  24299540.0304   24299535.9834
      1930.1564
  -6088575.51449  -4737695.23547  22236550.5384   22236545.1714
      -377.3594
  13073674.69848  10178611.06746  22876640.6874   22876635.7374
     -3443.6564
  15525753.22048  12084804.82243  24752007.1714   24752002.8664
     -3607.6564
  -9355951.70749  -7277710.89947  21856123.6084   21856119.7534
       448.7034
  -8972960.01949  -6988911.66846  22432487.4214   22432483.8744
       895.3134
 04  9  3 16 12 15.0030000  0  6G20G11G14G22G25G 1
  -2691992.28847  -2090073.99643  24294032.9604   24294028.5464
      1928.5784
  -6082840.54549  -4733226.43247  22237641.8744   22237637.3864
      -387.2344
  13125354.61449  10218881.12345  22886475.3044   22886470.1554
     -3446.9844
  15579892.58848  12126991.30343  24762309.9764   24762305.2614
     -3610.8284
  -9362611.64449  -7282900.45747  21854856.8194   21854852.2534
       439.4064
  -8986345.47349  -6999341.88546  22429940.2724   22429936.5304
       889.5474
 04  9  3 16 12 30.0030000  0  6G20G11G14G22G25G 1
  -2720910.41748  -2112607.58443  24288529.8584   24288525.7184
      1926.9534
  -6076958.90849  -4728643.35347  22238761.1794   22238756.1834
      -397.2344
  13177082.94348  10259188.90045  22896318.2334   22896313.5384
     -3450.3594
  15634077.87248  12169213.58343  24772620.1084   24772616.2764
     -3614.0784
  -9369134.84149  -7287983.46147  21853615.4604   21853611.1444
       430.1094
  -8999644.86649  -7009705.03747  22427409.4294   22427405.7064
       883.4694
 04  9  3 16 12 45.0030000  0  6G20G11G14G22G25G 1
  -2749807.87247  -2135125.05643  24283030.9214   24283026.2494
      1925.7344
  -6070932.40649  -4723947.37747  22239907.8824   22239902.9794
      -406.6724
  13228857.59048  10299532.77245  22906171.4524   22906166.5074
     -3453.2344
  15688307.22447  12211470.17043  24782940.2884   24782936.0894
     -3616.7814
  -9375522.95049  -7292961.19847  21852399.4604   21852395.2724
       421.3444
  -9012860.00549  -7020002.54147  22424894.3514   22424890.9134
       878.1724
 04  9  3 16 13  0.0030000  0  6G20G11G14G22G25G 1
  -2778681.23147  -2157623.77743  24277536.9604   24277532.0464
      1924.0004
  -6064757.70149  -4719135.92647  22241083.1404   22241077.8474
      -416.5314
  13280681.59648  10339915.09045  22916032.6554   22916028.1514
     -3456.5624
  15742583.91547  12253763.63443  24793268.9994   24793264.7614
     -3619.9844
  -9381772.45749  -7297830.94347  21851210.4764   21851206.4294
       412.0004
  -9025987.63249  -7030231.85646  22422396.2264   22422392.8944
       872.2974
 04  9  3 16 13 15.0030000  0  6G20G11G14G22G25G 1
  -2807531.39148  -2180104.39743  24272046.4764   24272042.1874
      1922.6094
  -6058435.49149  -4714209.53747  22242285.9764   22242281.0694
      -426.4064
  13332553.88348  10380335.04345  22925903.6474   22925899.7184
     -3459.8124
  15796906.98247  12296093.26143  24803606.4914   24803601.6364
     -3623.0474
  -9387884.09949  -7302593.26147  21850047.4604   21850042.9054
       402.8134
  -9039028.62749  -7040393.66746  22419914.8664   22419911.7654
       866.4844
 04  9  3 16 13 30.0030000  0  6G20G11G14G22G25G 1
  -2836360.29847  -2202568.47343  24266559.6554   24266555.8784
      1921.0784
  -6051968.05049  -4709169.98547  22243517.0464   22243512.1794
      -436.1724
  13384472.15948  10420790.82745  22935783.4054   22935778.7334
     -3462.9064
  15851274.12146  12338457.22743  24813951.7334   24813947.1554
     -3625.9844
  -9393860.02649  -7307249.82247  21848910.4374   21848905.9994
       393.7034
  -9051985.18149  -7050489.67146  22417449.1474   22417446.1244
       860.7504
 04  9  3 16 13 45.0030000  0  6G20G11G14G22G25G 1
  -2865167.56247  -2225015.67843  24261078.8744   24261074.4834
      1919.6254
  -6045355.04849  -4704017.00147  22244775.3124   22244770.1944
      -445.8124
  13436436.37048  10461282.40445  22945671.8974   22945667.1514
     -3466.0004
  15905685.56347  12380855.72643  24824306.4524   24824301.5034
     -3629.0624
  -9399699.91249  -7311800.37247  21847799.0624   21847794.6874
       384.6564
  -9064857.02049  -7060519.65846  22414999.6084   22414996.6324
       855.1564
 04  9  3 16 14  0.0030000  0  6G20G11G14G22G25G 1
  -2893950.48848  -2247443.93043  24255601.7264   24255598.0584
      1918.1094
  -6038593.61649  -4698748.35747  22246061.8824   22246056.7844
      -455.6414
  13488448.99749  10501811.72045  22955569.5854   22955565.8474
     -3469.0624
  15960143.98247  12423290.81043  24834668.7574   24834665.3044
     -3632.1094
  -9405400.73749  -7316242.56347  21846714.0384   21846709.8234
       375.5004
  -9077641.47349  -7070481.57446  22412566.7414   22412563.5544
       849.4534
 04  9  3 16 14 15.0030000  0  6G20G11G14G22G25G 1
  -2922712.25148  -2269855.68443  24250128.1014   24250124.0074
      1916.7974
  -6031687.17649  -4693366.71647  22247375.9214   22247371.2924
      -465.2664
  13540506.41349  10542375.92246  22965475.9684   22965471.2574
     -3471.9844
  16014645.97447  12465759.86343  24845040.1634   24845036.3974
     -3634.9534
  -9410965.85249  -7320579.01247  21845655.1794   21845650.9054
       366.5634
  -9090341.92249  -7080378.02146  22410150.4374   22410146.7924
       843.8444
 04  9  3 16 14 30.0030000  0  6G20G11G14G22G25G 1
  -2951449.95248  -2292248.69043  24244659.8194   24244655.2924
      1914.8914
  -6024632.91149  -4687869.89447  22248718.5074   22248713.5264
      -475.3284
  13592611.18649  10582977.03445  22975391.3584   22975386.6794
     -3475.3284
  16069194.12847  12508264.88243  24855421.0384   24855416.3904
     -3638.2504
  -9416392.46349  -7324807.53747  21844622.4054   21844617.7804
       357.0314
  -9102955.71449  -7090206.94347  22407749.7184   22407746.3704
       837.9384
 04  9  3 16 14 45.0030000  0  6G20G11G14G22G25G 1
  -2980163.10148  -2314622.54943  24239195.5774   24239191.2614
      1913.5634
  -6017430.28149  -4682257.45947  22250089.4444   22250084.1364
      -484.9534
  13644763.56249  10623615.24045  22985315.4444   22985310.1674
     -3478.1724
  16123788.92846  12550806.22043  24865809.7884   24865805.8584
     -3640.9694
  -9421679.97349  -7328927.66447  21843615.9994   21843612.0074
       348.0474
  -9115482.39749  -7099967.98447  22405366.0624   22405362.2454
       832.3914
 04  9  3 16 15  0.0030000  0  6G20G11G14G22G25G 1
  -3008855.29248  -2336980.08843  24233734.9134   24233731.2884
      1911.9694
  -6010082.88549  -4676532.23047  22251487.3274   22251481.8194
      -494.8594
  13696959.62749  10664287.47845  22995248.0304   22995243.1984
     -3481.3754
  16178426.59746  12593381.01442  24876207.5694   24876202.5694
     -3644.1414
  -9426832.06249  -7332942.27647  21842635.9134   21842631.9644
       338.7974
  -9127925.66649  -7109664.03247  22402998.0854   22402994.6084
       826.5944
 04  9  3 16 15 15.0030000  0  6G20G11G14G22G25G 1
  -3037524.85248  -2359320.01443  24228279.7884   24228275.8784
      1910.8444
  -6002589.31349  -4670693.08647  22252913.3744   22252908.2804
      -504.1414
  13749200.74348  10704994.83345  23005188.8124   23005184.3004
     -3483.9844
  16233108.65247  12635990.36043  24886612.3194   24886608.2144
     -3646.6414
  -9431847.04749  -7336850.04147  21841681.5544   21841677.2694
       330.0314
  -9140283.99749  -7119293.89447  22400646.4684   22400642.8974
       821.3284
 04  9  3 16 15 30.0030000  0  6G20G11G14G22G25G 1
  -3066172.34848  -2381642.72543  24222828.6244   24222823.9374
      1908.9694
  -5994950.07249  -4664740.43447  22254366.8904   22254362.1514
      -514.2664
  13801486.03048  10745736.59045  23015138.2804   23015133.9994
     -3487.3444
  16287834.38847  12678633.76143  24897027.1714   24897022.6594
     -3650.0624
  -9436725.29449  -7340651.27347  21840753.3354   21840748.6904
       320.4844
  -9152557.95349  -7128858.00547  22398310.5224   22398307.0504
       815.2814
 04  9  3 16 15 45.0030000  0  6G20G11G14G22G25G 1
  -3094792.96148  -2403944.48443  24217381.9134   24217377.7694
      1907.4694
  -5987160.41349  -4658670.57747  22255849.2804   22255844.6284
      -524.0624
  13853819.92548  10786516.23345  23025097.4834   23025093.1984
     -3490.2344
  16342608.37547  12721314.74143  24907449.9994   24907445.9054
     -3652.9374
  -9441462.05149  -7344342.24547  21839851.9604   21839847.4564
       311.4694
  -9164742.88749  -7138352.74847  22395992.3664   22395988.9604
       809.5784
 04  9  3 16 16  0.0030000  0  6G20G11G14G22G25G 1
  -3123390.54148  -2426228.32443  24211939.8194   24211935.8784
      1905.6724
  -5979224.38149  -4652486.66847  22257359.5464   22257354.6244
      -534.0314
  13906198.15948  10827330.44645  23035064.7414   23035060.2224
     -3493.4534
  16397426.60647  12764030.20743  24917881.7574   24917877.1014
     -3656.1254
  -9446061.29549  -7347926.07447  21838976.5624   21838972.4134
       301.9694
  -9176842.95849  -7147781.36847  22393689.4764   22393686.3044
       803.7664
 04  9  3 16 16 15.0030000  0  6G20G11G14G22G25G 1
  -3151962.42148  -2448492.09043  24206503.3044   24206498.7724
      1904.0634
  -5971139.30649  -4646186.60847  22258898.1634   22258893.3664
      -543.7974
  13958623.16448  10868181.07345  23045040.9294   23045036.5654
     -3496.4374
  16452291.55847  12806782.07443  24928321.6554   24928318.0034
     -3659.0314
  -9450520.43249  -7351400.71047  21838128.0694   21838123.1714
       292.7034
  -9188855.59249  -7157141.86147  22391403.3514   22391400.5034
       798.0164
 04  9  3 16 16 30.0030000  0  6G20G11G14G22G25G 1
  -3180507.68548  -2470735.14943  24201071.2574   24201067.0424
      1902.0634
  -5962904.42049  -4639769.82747  22260465.2104   22260460.6404
      -554.0004
  14011095.48348  10909068.58545  23055025.7804   23055021.3274
     -3499.7194
  16507203.86847  12849570.83843  24938772.0774   24938767.1674
     -3662.3754
  -9454838.56149  -7354765.47947  21837306.6404   21837301.9134
       283.2194
  -9200780.07149  -7166433.65147  22389134.7104   22389131.3194
       792.0314
 04  9  3 16 16 45.0030000  0  6G20G11G14G22G25G 1
  -3209027.76048  -2492958.58143  24195643.6634   24195639.9014
      1900.4064
  -5954521.05649  -4633237.33847  22262060.2334   22262055.1044
      -563.9064
  14063613.46848  10949991.68245  23065019.7104   23065015.5654
     -3502.7974
  16562162.09447  12892395.39543  24949229.4524   24949224.6594
     -3665.4694
  -9459017.04549  -7358021.44047  21836511.1794   21836507.0384
       273.7664
  -9212617.80649  -7175657.85447  22386881.6474   22386878.1594
       786.2344
 04  9  3 16 17  0.0030000  0  6G20G11G14G22G25G 1
  -3237527.72548  -2515166.32043  24190220.3354   24190216.3154
      1899.1254
  -5945994.63749  -4626593.38547  22263682.8514   22263677.9374
      -573.3284
  14116171.63148  10990946.07645  23075021.4294   23075016.5194
     -3505.3124
  16617160.80547  12935251.48643  24959695.6404   24959691.1904
     -3668.0944
  -9463060.98249  -7361172.54847  21835741.5224   21835737.3044
       264.9384
  -9224374.24549  -7184818.70047  22384644.7494   22384640.8004
       780.9224
 04  9  3 16 17 15.0030000  0  6G20G11G14G22G25G 1
  -3266002.69048  -2537354.58643  24184802.0934   24184797.8234
      1897.5164
  -5937320.21549  -4619834.10547  22265333.4134   22265328.7694
      -583.1874
  14168774.61349  11031935.40045  23085031.3974   23085026.4334
     -3508.2664
  16672204.90648  12978142.95143  24970170.5464   24970165.9254
     -3671.0944
  -9466965.38849  -7364214.93847  21834998.7414   21834994.4374
       255.6724
  -9236044.45349  -7193912.37347  22382423.6244   22382420.4794
       775.2194
 04  9  3 16 17 30.0030000  0  6G20G11G14G22G25G 1
  -3294451.88448  -2559522.79344  24179387.8974   24179383.9374
      1895.5944
  -5928497.20649  -4612959.03447  22267012.5544   22267007.4834
      -593.3124
  14221422.78349  11072959.93645  23095049.8904   23095045.6984
     -3511.5624
  16727295.04047  13021070.28943  24980653.6324   24980649.5424
     -3674.4534
  -9470729.55049  -7367148.04847  21834282.4294   21834278.3194
       246.0634
  -9247627.76349  -7202938.31047  22380219.6244   22380215.8624
       769.1254
 04  9  3 16 17 45.0030000  0  6G20G11G14G22G25G 1
  -3322873.27748  -2581669.30443  24173979.7804   24173975.4794
      1893.7344
  -5919523.57949  -4605966.60847  22268719.9294   22268715.6164
      -603.3914
  14274117.71749  11114020.90245  23105077.2334   23105072.9134
     -3514.6564
  16782432.79248  13064034.70843  24991146.1244   24991141.9404
     -3677.4694
  -9474351.50049  -7369970.34247  21833593.0154   21833588.4604
       236.6564
  -9259122.42249  -7211895.18847  22378032.2414   22378028.6044
       763.2504
 04  9  3 16 18  0.0030000  0  6G20G11G14G22G25G 1
  -3351270.58148  -2603797.06843  24168576.3974   24168571.6124
      1892.1564
  -5910403.07849  -4598859.72347  22270455.7264   22270450.7454
      -613.1254
  14326855.48749  11155115.26645  23115112.9524   23115108.7454
     -3517.5004
  16837614.44148  13107033.37543  25001646.9684   25001642.8154
     -3680.4374
  -9477834.95849  -7372684.71347  21832930.5074   21832926.1984
       227.4694
  -9270532.18149  -7220785.89646  22375861.3044   22375857.6634
       757.6414
 04  9  3 16 18 15.0030000  0  6G20G11G14G22G25G 1
  -3379642.90448  -2625905.36743  24163177.0854   24163172.9404
      1890.7194
  -5901134.95849  -4591637.82547  22272219.2104   22272214.7024
      -622.7194
  14379636.75849  11196243.50745  23125157.1084   23125152.5694
     -3520.0944
  16892840.79247  13150066.86043  25012156.1164   25012151.6014
     -3683.1564
  -9481179.00949  -7375290.46347  21832293.9994   21832289.7654
       218.3914
  -9281856.22449  -7229609.82447  22373705.9374   22373702.4334
       752.1724
 04  9  3 16 18 30.0030000  0  6G20G11G14G22G25G 1
  -3407991.30048  -2647995.02643  24157782.4834   24157778.1204
      1889.5004
  -5891720.33049  -4584301.75747  22274011.0624   22274006.0074
      -632.2194
  14432460.07649  11237404.51945  23135208.8664   23135204.8004
     -3522.6254
  16948110.52047  13193134.15343  25022673.8744   25022669.0854
     -3685.7344
  -9484384.69049  -7377788.38847  21831684.3514   21831679.5344
       209.4534
  -9293095.83249  -7238367.94847  22371567.2414   22371564.1904
       746.8444
 04  9  3 16 18 45.0030000  0  6G20G11G14G22G25G 1
  -3436312.03848  -2670063.11143  24152392.9444   24152389.0894
      1887.0944
  -5882155.64249  -4576848.76547  22275830.8974   22275825.9954
      -642.6564
  14485328.81249  11278600.91945  23145269.3824   23145265.2654
     -3526.0784
  17003427.10547  13236237.94443  25033200.3274   25033196.1284
     -3689.2814
  -9487448.44749  -7380175.72147  21831100.7574   21831096.3434
       199.4694
  -9304247.46249  -7247057.52447  22369445.2414   22369441.5544
       740.4844
 04  9  3 16 19  0.0030000  0  6G20G11G14G22G25G 1
  -3464606.02448  -2692110.36744  24147008.8274   24147005.0424
      1885.6094
  -5872441.77849  -4569279.52747  22277679.6084   22277674.5074
      -652.3594
  14538241.82749  11319831.82545  23155338.5694   23155334.3394
     -3528.8124
  17058789.54747  13279377.45043  25043734.8274   25043730.6084
     -3692.1874
  -9490371.13249  -7382453.14047  21830544.8354   21830540.3124
       190.3284
  -9315312.03649  -7255679.27147  22367339.5934   22367336.1474
       734.9534
 04  9  3 16 19 15.0030000  0  6G20G11G14G22G25G 1
  -3492878.27848  -2714140.68644  24141629.1874   24141624.4014
      1884.4224
  -5862583.99349  -4561598.14647  22279555.5694   22279550.2924
      -661.7664
  14591193.76549  11361093.07245  23165415.2264   23165410.5504
     -3531.1564
  17114192.49947  13322548.55143  25054277.5854   25054273.2844
     -3694.5314
  -9493157.75349  -7384624.52947  21830014.5154   21830009.8434
       181.5164
  -9326294.85049  -7264237.29247  22365249.6244   22365246.2964
       729.7344
 04  9  3 16 19 30.0030000  0  6G20G11G14G22G25G 1
  -3521129.06348  -2736154.27744  24136252.9834   24136248.9764
      1882.6564
  -5852582.57049  -4553804.83547  22281458.3584   22281453.6164
      -671.5784
  14644183.99149  11402384.12245  23175499.1404   23175494.4994
     -3533.9534
  17169635.70447  13365751.00342  25064828.4134   25064824.0504
     -3697.5474
  -9495808.82149  -7386690.28547  21829510.0624   21829505.9014
       172.2034
  -9337196.33049  -7272731.95347  22363175.4524   22363171.3434
       724.1094
 04  9  3 16 19 45.0030000  0  6G20G11G14G22G25G 1
  -3549353.25148  -2758147.13743  24130882.0624   24130878.0934
      1880.6884
  -5842432.46949  -4545895.67347  22283389.8904   22283384.8084
      -681.6724
  14697217.24949  11443708.73745  23185590.6944   23185586.6554
     -3537.0314
  17225123.93347  13408988.56143  25075387.4994   25075382.5584
     -3700.7504
  -9498319.15949  -7388646.38047  21829032.2494   21829027.8044
       162.6254
  -9348011.53049  -7281159.36947  22361117.2884   22361113.8824
       718.0944
 04  9  3 16 20  0.0030000  0  6G20G11G14G22G25G 1
  -3577545.60148  -2780115.17043  24125517.2964   24125513.1474
      1878.3754
  -5832128.53649  -4537866.64447  22285351.1404   22285346.0304
      -692.1564
  14750298.50649  11485070.73445  23195691.4604   23195687.4484
     -3540.5004
  17280662.43347  13452265.28043  25085956.0774   25085951.8004
     -3704.4064
  -9500683.48449  -7390488.71747  21828582.4294   21828577.9724
       152.6564
  -9358735.35649  -7289515.59347  22359076.3904   22359072.9214
       711.7344
 04  9  3 16 20 15.0030000  0  6G20G11G14G22G25G 1
  -3605707.51848  -2802059.52643  24120158.1874   24120154.0814
      1876.3284
  -5821672.28749  -4529718.92247  22287340.8664   22287335.8314
      -702.2504
  14803426.00949  11526468.77645  23205801.7494   23205797.2844
     -3543.4224
  17336249.51347  13495579.84843  25096534.5464   25096529.7224
     -3707.4694
  -9502903.30849  -7392218.43947  21828159.7184   21828155.2224
       143.1254
  -9369369.23549  -7297801.71947  22357053.0304   22357049.4684
       705.8284
 04  9  3 16 20 30.0030000  0  6G20G11G14G22G25G 1
  -3633836.16748  -2823977.92944  24114805.5694   24114800.7374
      1874.2664
  -5811061.10749  -4521450.47547  22289360.0544   22289354.9134
      -712.4694
  14856602.19249  11567904.75145  23215920.6714   23215916.4014
     -3546.5624
  17391887.78946  13538934.27842  25107122.3044   25107117.7334
     -3710.7814
  -9504975.79649  -7393833.35747  21827765.2574   21827760.8864
       133.3914
  -9379910.57449  -7306015.74747  22355047.3274   22355043.3664
       699.9064
 04  9  3 16 20 45.0030000  0  6G20G11G14G22G25G 1
  -3661932.81848  -2845871.43244  24109459.0624   24109454.4914
      1871.7974
  -5800296.40549  -4513062.41447  22291408.3274   22291403.7614
      -722.9844
  14909825.44049  11609377.39745  23226048.5464   23226044.1554
     -3550.0004
  17447575.78247  13582327.47643  25117718.8194   25117714.7964
     -3714.4534
  -9506902.29349  -7395334.51947  21827398.9134   21827394.4014
       123.2664
  -9390360.82349  -7314158.78547  22353058.4764   22353055.1124
       693.4384
 04  9  3 16 21  0.0030000  0  6G20G11G14G22G25G 1
  -3689995.86248  -2867738.73744  24104118.9994   24104114.2414
      1869.9384
  -5789376.57049  -4504553.45347  22293486.6014   22293481.4214
      -733.0624
  14963097.10749  11650887.76045  23236186.1164   23236181.4444
     -3552.9064
  17503314.97246  13625760.59242  25128325.5934   25128321.2574
     -3717.5164
  -9508681.16449  -7396720.64847  21827060.4834   21827055.8944
       113.8134
  -9400718.50049  -7322229.71447  22351087.2334   22351083.5424
       687.5784
 04  9  3 16 21 15.0030000  0  6G20G11G14G22G25G 1
  -3718026.72248  -2889580.93044  24098784.4444   24098780.1364
      1867.5474
  -5778303.16949  -4495924.83747  22295593.3974   22295588.5464
      -743.3914
  15016415.55849  11692434.58845  23246331.7804   23246327.9644
     -3556.1724
  17559103.71246  13669232.29242  25138942.1014   25138937.9794
     -3721.0004
  -9510313.84749  -7397992.86047  21826749.4994   21826745.1044
       103.8914
  -9410985.09949  -7330229.65247  22349133.6714   22349130.3514
       681.3594
 04  9  3 16 21 30.0030000  0  6G20G11G14G22G25G 1
  -3746028.19448  -2911400.28044  24093455.9914   24093451.8864
      1865.5784
  -5767078.95349  -4487178.70347  22297729.5464   22297724.2724
      -753.5164
  15069777.62049  11734015.40145  23256487.0694   23256482.3154
     -3559.1094
  17614939.10847  13712740.36742  25149567.1404   25149563.1244
     -3724.0784
  -9511803.11549  -7399153.32547  21826466.0774   21826462.1324
        94.3134
  -9421163.58149  -7338160.93247  22347196.6404   22347193.2494
       675.3914
 04  9  3 16 21 45.0030000  0  6G20G11G14G22G25G 1
  -3773999.64648  -2933196.18844  24088133.3824   24088128.9684
      1863.6254
  -5755703.65649  -4478314.84847  22299894.1794   22299889.1204
      -763.4534
  15123183.49349  11775630.35845  23266649.5154   23266645.2334
     -3561.9844
  17670821.51046  13756285.06243  25160201.8664   25160196.8864
     -3727.1564
  -9513148.57249  -7400201.72447  21826210.3584   21826206.1284
        84.8134
  -9431253.57949  -7346023.25847  22345276.7264   22345273.5034
       669.5944
 04  9  3 16 22  0.0030000  0  6G20G11G14G22G25G 1
  -3801937.79448  -2954966.16444  24082816.9834   24082812.8974
      1861.0474
  -5744173.96249  -4469330.67447  22302087.9994   22302083.2334
      -774.1414
  15176636.22749  11817281.82145  23276821.3664   23276817.1514
     -3565.4374
  17726754.07447  13799868.82943  25170844.9684   25170840.2144
     -3730.8754
  -9514346.98649  -7401135.54047  21825982.3434   21825977.9724
        74.6884
  -9441251.92549  -7353814.17847  22343373.9054   22343370.8124
       663.1724
 04  9  3 16 22 15.0030000  0  6G20G11G14G22G25G 1
  -3829839.86148  -2976708.04444  24077507.5154   24077503.0464
      1858.8914
  -5732487.41349  -4460224.28247  22304312.1164   22304307.2614
      -784.4534
  15230138.22849  11858971.67045  23287002.4214   23286998.0894
     -3568.5164
  17782739.24847  13843493.59842  25181498.5224   25181494.3744
     -3734.2344
  -9515395.51149  -7401952.58447  21825782.7804   21825777.9834
        64.7344
  -9451155.99349  -7361531.62247  22341489.2574   22341485.7334
       656.9844
 04  9  3 16 22 30.0030000  0  6G20G11G14G22G25G 1
  -3857709.63448  -2998424.73344  24072203.3584   24072199.1164
      1856.8914
  -5720647.74849  -4450998.57247  22306565.0384   22306560.0344
      -794.3754
  15283685.39849  11900696.71545  23297191.9834   23297187.9994
     -3571.2814
  17838773.16947  13887156.34543  25192161.5934   25192157.0654
     -3737.1724
  -9516298.03949  -7402655.83847  21825611.1084   21825606.6594
        55.3594
  -9460969.67649  -7369178.64647  22339622.0934   22339618.5384
       651.3134
 04  9  3 16 22 45.0030000  0  6G20G11G14G22G25G 1
  -3885546.51648  -3020115.79744  24066906.6324   24066902.2574
      1854.6724
  -5708654.47849  -4441653.17247  22308847.4764   22308842.6904
      -804.6564
  15337277.98849  11942457.16645  23307390.5224   23307385.7334
     -3574.3594
  17894856.25047  13930857.39342  25202834.1794   25202829.8394
     -3740.4694
  -9517054.04949  -7403244.93247  21825467.1324   21825463.0384
        45.5474
  -9470692.60749  -7376754.94547  22337771.7184   22337768.3004
       645.1884
 04  9  3 16 23  0.0030000  0  5G20G11G14G25G 1
  -3913350.71748  -3041781.39444  24061615.3744   24061611.4994
      1852.4064
  -5696508.02549  -4432188.41847  22311158.7654   22311153.9484
      -815.0314
  15390915.52649  11984252.62445  23317597.3044   23317592.9644
     -3577.4844
  -9517663.84149  -7403720.08847  21825350.9444   21825346.9444
        35.6094
  -9480325.07449  -7384260.76647  22335938.7184   22335935.1404
       639.0004
 04  9  3 16 23 15.0030000  0  5G20G11G14G25G 1
  -3941120.64448  -3063420.29144  24056331.6944   24056326.5624
      1850.1094
  -5684206.96349  -4422603.17447  22313499.6014   22313494.4444
      -825.2664
  15444599.19849  12026084.05645  23327813.0774   23327809.0584
     -3580.4534
  -9518125.96249  -7404080.16747  21825262.7654   21825259.1634
        25.8284
  -9489865.80349  -7391695.08447  22334123.1474   22334119.4524
       632.8754
 04  9  3 16 23 30.0030000  0  5G20G11G14G25G 1
  -3968856.66548  -3085032.76644  24051053.3824   24051048.4874
      1848.0164
  -5671751.59849  -4412897.71347  22315869.6944   22315864.7764
      -835.3754
  15498328.35749  12067950.90045  23338037.4684   23338033.0934
     -3583.3444
  -9518440.68449  -7404325.41547  21825203.2964   21825199.0694
        16.2504
  -9499315.23349  -7399058.27947  22332324.9604   22332321.4014
       627.0784
 04  9  3 16 23 45.0030000  0  5G20G11G14G25G 1
  -3996563.78748  -3106622.71944  24045780.7884   24045776.3744
      1845.9844
  -5659147.15449  -4403076.07147  22318268.3584   22318262.9484
      -845.4694
  15552097.61249  12109849.01045  23348269.5304   23348265.1244
     -3586.1874
  -9518613.11649  -7404459.77847  21825170.1794   21825165.9014
         6.5474
  -9508678.53649  -7406354.34647  22330542.8904   22330539.8154
       621.1254
 04  9  3 16 24  0.0030000  0  5G20G11G14G25G 1
  -4024236.92448  -3128186.19944  24040514.5624   24040510.3974
      1843.7814
  -5646388.73649  -4393134.46447  22320696.1944   22320691.1634
      -855.7034
  15605911.70749  12151782.04845  23358509.7334   23358505.4764
     -3589.0784
  -9518638.26149  -7404479.36147  21825165.8664   21825161.4874
        -3.2194
  -9517950.78549  -7413579.47547  22328778.7334   22328775.1364
       615.1414
 04  9  3 16 24 15.0030000  0  5G20G11G14G25G 1
  -4051875.18948  -3149722.49644  24035255.3354   24035251.0154
      1841.1884
  -5633475.54349  -4383072.24147  22323153.5384   22323148.5424
      -866.1564
  15659771.40349  12193750.63245  23368759.1554   23368754.6714
     -3592.2814
  -9518515.21049  -7404383.48347  21825188.9054   21825184.7694
       -13.2504
  -9527131.13849  -7420732.99847  22327031.5624   22327028.2494
       608.8284
 04  9  3 16 24 30.0030000  0  5G20G11G14G25G 1
  -4079476.59048  -3171230.07844  24030002.7494   24029998.4994
      1839.1414
  -5620405.94049  -4372888.13347  22325640.5854   22325635.7844
      -876.2034
  15713678.06849  12235755.80645  23379017.1714   23379012.7494
     -3595.0314
  -9518242.29549  -7404170.81147  21825241.1324   21825237.0624
       -22.8754
  -9536218.03549  -7427813.68947  22325302.6474   22325299.0584
       602.9844
 04  9  3 16 24 45.0030000  0  5G20G11G14G25G 1
  -4107042.85748  -3192710.27644  24024756.7884   24024752.6404
      1836.6884
  -5607181.56049  -4362583.43347  22328157.5074   22328152.3624
      -886.6724
  15767629.80649  12277796.10345  23389283.4834   23389279.3864
     -3598.2034
  -9517821.02549  -7403842.53647  21825320.8974   21825316.7884
       -32.9224
  -9545213.18149  -7434822.89347  22323590.9764   22323587.4914
       596.7664
 04  9  3 16 25  0.0030000  0  5G20G11G14G25G 1
  -4134576.69748  -3214165.20144  24019517.2654   24019513.3784
      1834.1254
  -5593805.31949  -4352160.40247  22330702.2414   22330697.7294
      -897.2344
  15821623.55349  12319869.14345  23399558.7574   23399554.1944
     -3601.3914
  -9517254.24349  -7403400.89447  21825428.8274   21825424.7764
       -43.0474
  -9554119.53749  -7441762.89947  22321896.0154   22321892.4444
       590.3914
 04  9  3 16 25 15.0030000  0  5G20G11G14G25G 1
  -4162073.32648  -3235591.14944  24014284.8664   24014281.0694
      1832.0314
  -5580272.64949  -4341615.47947  22333277.6634   22333272.7294
      -907.2194
  15875663.75349  12361978.37345  23409841.6634   23409838.1084
     -3604.0474
  -9516537.30449  -7402842.23447  21825564.8514   21825561.3044
       -52.5474
  -9562932.54049  -7448630.17847  22320218.8824   22320215.0934
       584.5944
 04  9  3 16 25 30.0030000  0  5G20G11G14G25G 1
  -4189534.64448  -3256989.55644  24009059.2574   24009055.3394
      1829.5784
  -5566585.41449  -4330950.10247  22335882.2264   22335877.3974
      -917.6254
  15929748.25149  12404122.13445  23420133.7414   23420129.6714
     -3607.0784
  -9515672.17049  -7402168.09547  21825729.8124   21825725.3784
       -62.6094
  -9571654.18849  -7455426.25447  22318559.2964   22318555.5734
       578.4224
 04  9  3 16 25 45.0030000  0  5G20G11G14G25G 1
  -4216962.83248  -3278362.16944  24003840.1164   24003835.9334
      1827.2344
  -5552745.95349  -4320166.11147  22338515.6324   22338510.7574
      -927.8914
  15983874.44649  12446298.37045  23430434.2184   23430429.4644
     -3609.9224
  -9514661.19049  -7401380.32047  21825922.4294   21825918.1324
       -72.4534
  -9580286.91949  -7462153.05947  22316916.3514   22316912.7844
       572.3284
 04  9  3 16 26  0.0030000  0  6G20G11G14G23G25G 1
  -4244358.41748  -3299709.36644  23998626.6474   23998622.6204
      1825.1094
  -5538755.17649  -4309264.22047  22341178.2804   22341173.5304
      -937.8914
  16038041.48149  12488506.44145  23440741.4444   23440737.2804
     -3612.6414
    -76158.97656    -50465.93853  25177793.3274   25177788.3354
      1923.7344
  -9513504.97449  -7400479.36447  21826142.4134   21826138.3084
       -82.0004
  -9588831.42349  -7468811.10647  22315290.7024   22315286.7614
       566.5314
 04  9  3 16 26 15.0030000  0  6G20G11G14G23G25G 1
  -4271720.92348  -3321030.79844  23993419.9834   23993415.6244
      1823.3594
  -5524612.65549  -4298244.07647  22343869.5074   22343864.5034
      -947.5944
  16092249.61549  12530746.52645  23451057.0304   23451052.5384
     -3614.9224
   -104992.70446    -72933.77143  25172306.4524   25172301.0854
      1921.0004
  -9512202.86049  -7399464.72947  21826389.6794   21826385.6204
       -91.4064
  -9597287.31249  -7475400.10447  22313681.7024   22313677.9404
       561.0944
 04  9  3 16 26 30.0030000  0  6G20G11G14G23G25G 1
  -4299047.11748  -3342323.93544  23988219.8584   23988216.1674
      1820.7194
  -5510315.32449  -4287103.30947  22346590.2184   22346584.7614
      -958.1094
  16146501.56949  12573020.75445  23461380.7884   23461376.5264
     -3618.0474
   -133776.01846    -95362.33042  25166829.3584   25166823.6904
      1917.3754
  -9510751.95149  -7398334.14447  21826666.0624   21826661.9834
      -101.4224
  -9605651.56749  -7481917.70147  22312089.5154   22312086.6554
       554.7504
 04  9  3 16 26 45.0030000  0  6G20G11G14G23G25G 1
  -4326336.32648  -3363588.24544  23983027.1714   23983022.8904
      1817.9844
  -5495862.75149  -4275841.57347  22349340.3434   22349335.3474
      -968.7344
  16200797.68049  12615329.39545  23471712.9134   23471709.1124
     -3621.2504
   -162508.15846   -117751.01042  25161362.1404   25161356.1754
      1913.7194
  -9509151.58849  -7397087.11047  21826970.7104   21826966.7294
      -111.6724
  -9613923.73149  -7488363.53647  22310515.4914   22310512.4914
       548.4064
 04  9  3 16 27  0.0030000  0  6G20G11G14G23G25G 1
  -4353590.61448  -3384825.34544  23977840.7494   23977836.3084
      1815.5004
  -5481256.95449  -4264460.43747  22352119.6554   22352114.6204
      -979.1094
  16255135.73549  12657670.71645  23482053.0544   23482049.1204
     -3624.1564
   -191191.26847   -140101.42942  25155903.0074   25155898.2264
      1910.2974
  -9507403.96549  -7395725.32247  21827303.1324   21827299.1014
      -121.7504
  -9622105.98949  -7494739.31447  22308958.6244   22308954.9914
       542.2194
 04  9  3 16 27 15.0030000  0  6G20G11G14G23G25G 1
  -4380807.68148  -3406033.43344  23972661.9834   23972657.2844
      1813.3594
  -5466495.85749  -4252958.28947  22354928.9994   22354923.6444
      -989.0624
  16309517.66949  12700046.24345  23492401.9214   23492397.4444
     -3626.7664
   -219823.22146   -162412.02743  25150455.1324   25150449.8514
      1907.2034
  -9505506.87249  -7394247.05747  21827663.9134   21827660.1364
      -131.2974
  -9630196.24049  -7501043.39547  22307418.9914   22307415.7224
       536.4694
 04  9  3 16 27 30.0030000  0  6G20G11G14G23G25G 1
  -4407989.59748  -3427214.15244  23967488.6874   23967485.0504
      1811.0164
  -5451581.70349  -4241336.87947  22357766.6874   22357761.7144
      -999.3124
  16363941.14249  12742454.13645  23502758.0624   23502753.7844
     -3629.6094
   -248406.17046   -184684.45443  25145016.7104   25145010.6284
      1903.9384
  -9503462.39649  -7392653.95347  21828053.2334   21828049.5504
      -141.1874
  -9638196.65949  -7507277.49747  22305896.4134   22305892.8044
       530.4694
 04  9  3 16 27 45.0030000  0  6G20G11G14G23G25G 1
  -4435134.37648  -3448365.92044  23962323.6404   23962319.7334
      1808.3284
  -5436512.71149  -4229594.82047  22360634.4684   22360629.9014
     -1009.8284
  16418407.65049  12784895.54945  23513122.8824   23513118.7494
     -3632.5474
   -276938.23147   -206917.22043  25139586.7964   25139580.9484
      1900.3134
  -9501268.50849  -7390944.43047  21828470.9134   21828466.6514
      -151.3284
  -9646105.50749  -7513440.22547  22304391.6324   22304388.1714
       524.1414
 04  9  3 16 28  0.0030000  0  6G20G11G14G23G25G 1
  -4462243.09048  -3469489.57744  23957164.4684   23957160.9484
      1805.9844
  -5421289.94549  -4217732.92947  22363531.0304   22363526.1324
     -1019.9844
  16472915.87449  12827369.47545  23523495.4444   23523491.5774
     -3635.3284
   -305420.53347   -229111.20943  25134167.5384   25134161.3474
      1897.1884
  -9498926.51149  -7389119.49747  21828916.5544   21828912.4684
      -161.1254
  -9653923.93649  -7519532.49447  22302903.9604   22302900.1204
       518.2344
 04  9  3 16 28 15.0040000  0  6G20G11G14G23G25G 1
  -4489313.76448  -3490583.58844  23952013.3634   23952009.3634
      1803.2814
  -5405908.93849  -4205747.73547  22366457.9344   22366453.4844
     -1030.5944
  16527472.79949  12869881.36345  23533877.1054   23533872.8554
     -3638.3444
   -333851.37446   -251265.10842  25128755.8014   25128751.0554
      1893.5004
  -9496432.62249  -7387176.18747  21829391.0904   21829387.1684
      -171.3284
  -9661648.98149  -7525552.00447  22301433.5274   22301430.0664
       511.8284
 04  9  3 16 28 30.0040000  0  6G20G11G14G23G25G 1
  -4516342.89548  -3511645.24544  23946869.6134   23946865.8164
      1800.9694
  -5390372.01149  -4193641.04947  22369414.5514   22369409.9734
     -1040.7194
  16582070.86748  12912425.28445  23544267.1524   23544262.6524
     -3641.0624
   -362227.12446   -273376.04743  25123356.8014   25123351.3014
      1890.2664
  -9493787.30849  -7385114.91047  21829894.2934   21829890.3634
      -181.1564
  -9669279.84649  -7531498.12447  22299981.5514   22299978.6294
       505.9064
 04  9  3 16 28 45.0040000  0  6G20G11G14G23G25G 1
  -4543336.83148  -3532679.47544  23941733.0514   23941728.8594
      1798.5314
  -5374682.82049  -4181415.71347  22372400.4804   22372395.7464
     -1050.9694
  16636708.78949  12955000.26145  23554664.1684   23554660.0084
     -3643.8284
   -390554.22046   -295449.08642  25117965.9654   25117960.4694
      1886.9844
  -9490995.09049  -7382939.15547  21830425.7694   21830421.6444
      -191.0624
  -9676821.75949  -7537374.94947  22298546.4654   22298542.7114
       499.8754
 04  9  3 16 29  0.0040000  0  6G20G11G14G23G25G 1
  -4570291.59848  -3553683.17944  23936603.7694   23936599.5044
      1795.6414
  -5358837.67049  -4169068.84547  22375415.7074   22375410.6644
     -1061.5474
  16691390.07449  12997609.05345  23565069.6214   23565065.4414
     -3646.8594
   -418828.98246   -317481.40743  25112585.3164   25112580.1914
      1883.2664
  -9488052.22849  -7380646.01247  21830985.6294   21830981.8054
      -201.1414
  -9684271.07749  -7543179.59547  22297128.6684   22297125.3094
       493.5314
 04  9  3 16 29 15.0040000  0  6G20G11G14G23G25G 1
  -4597206.85748  -3574656.11344  23931481.9344   23931477.9414
      1793.1094
  -5342836.40049  -4156600.33347  22378460.3634   22378455.7934
     -1071.8284
  16746114.84248  13040251.71445  23575483.3484   23575479.4774
     -3649.6564
   -447051.07446   -339472.62542  25107214.7384   25107209.9304
      1879.8284
  -9484958.36249  -7378235.19947  21831574.4804   21831570.4104
      -211.2344
  -9691627.55049  -7548911.90147  22295729.1134   22295725.6914
       487.3914
 04  9  3 16 29 30.0040000  0  6G20G11G14G23G25G 1
  -4624084.68348  -3595599.84844  23926367.4264   23926363.3874
      1790.5784
  -5326681.10549  -4144011.80247  22381534.5194   22381530.0004
     -1082.1724
  16800880.68648  13082926.37245  23585905.3244   23585901.2114
     -3652.4844
   -475222.63046   -361424.45743  25101854.0044   25101848.9694
      1876.2664
  -9481715.76849  -7375708.49647  21832191.6844   21832187.5084
      -221.1874
  -9698893.45749  -7554573.65047  22294346.4104   22294342.7194
       481.2814
 04  9  3 16 29 45.0040000  0  6G20G11G14G23G25G 1
  -4650923.90648  -3616513.53044  23921259.8014   23921255.8874
      1788.2974
  -5310370.83849  -4131302.50847  22384638.3014   22384633.3674
     -1092.1724
  16855688.57848  13125633.80345  23596334.5984   23596330.6024
     -3654.8914
   -503342.64646   -383336.14843  25096502.6054   25096497.9924
      1873.2664
  -9478323.27149  -7373064.97747  21832837.0594   21832833.1844
      -230.7504
  -9706067.74349  -7560163.99747  22292981.0664   22292977.4374
       475.5474
 04  9  3 16 30  0.0040000  0  6G20G11G14G23G25G 1
  -4677726.29247  -3637398.47844  23916159.4264   23916155.5984
      1785.7344
  -5293907.62549  -4118474.03047  22387771.2854   22387766.5624
     -1102.4534
  16910536.37648  13168372.33345  23606771.8874   23606767.4774
     -3657.6874
   -531413.03846   -405209.17143  25091160.8324   25091155.9064
      1869.7814
  -9474782.69349  -7370306.08047  21833510.9414   21833506.3944
      -240.8284
  -9713152.47549  -7565684.55747  22291633.0594   22291629.2934
       469.4694
 04  9  3 16 30 15.0040000  0  6G20G11G14G23G25G 1
  -4704490.02348  -3658253.33544  23911066.3164   23911061.8874
      1783.1094
  -5277289.74749  -4105525.05247  22390933.5594   22390928.7894
     -1112.7814
  16965425.32648  13211142.93845  23617216.7154   23617212.6254
     -3660.4224
   -559432.04646   -427042.17443  25085829.9024   25085824.2274
      1866.4064
  -9471092.53049  -7367430.63547  21834213.0124   21834208.7734
      -250.9064
  -9720145.97749  -7571134.04347  22290302.2464   22290298.7664
       463.2974
 04  9  3 16 30 30.0040000  0  6G20G11G14G23G25G 1
  -4731217.45848  -3679079.88544  23905980.5514   23905975.7384
      1780.4694
  -5260519.77649  -4092457.54447  22394124.8944   22394120.2584
     -1123.2814
  17020352.92948  13253943.64645  23627669.3244   23627665.0004
     -3663.3124
   -587401.91146   -448836.84543  25080506.7934   25080501.7234
      1862.7814
  -9467255.09549  -7364440.41247  21834942.9964   21834938.9614
      -260.9224
  -9727050.74649  -7576514.37347  22288988.1294   22288984.2854
       457.1094
 04  9  3 16 30 45.0040000  0  6G20G11G14G23G25G 1
  -4757903.58648  -3699874.26144  23900902.6524   23900897.8794
      1777.9534
  -5243592.86849  -4079267.75747  22397345.6844   22397340.9734
     -1133.4374
  17075323.91848  13296778.16444  23638130.1684   23638125.7464
     -3665.9064
   -615317.91946   -470589.56543  25075194.7234   25075189.8674
      1859.6884
  -9463265.51149  -7361331.63947  21835702.4574   21835698.3984
      -270.7034
  -9733861.97049  -7581821.81647  22287692.0354   22287688.5944
       451.2814
 04  9  3 16 31  0.0040000  0  6G20G11G14G23G25G 1
  -4784554.53648  -3720641.22144  23895830.7624   23895826.3364
      1775.2504
  -5226515.66149  -4065960.84747  22400595.4264   22400590.7774
     -1143.8284
  17130331.85749  13339641.48444  23648597.6444   23648593.5234
     -3668.7974
   -643186.25146   -492305.12843  25069892.3794   25069886.8714
      1855.9384
  -9459129.96949  -7358109.12847  21836489.7234   21836485.6174
      -280.8594
  -9740586.00449  -7587061.32547  22286412.5824   22286408.8714
       445.0164
 04  9  3 16 31 15.0040000  0  6G20G11G14G23G25G 1
  -4811165.24548  -3741376.84144  23890767.2934   23890762.5044
      1772.8134
  -5209282.80049  -4052532.65847  22403875.0044   22403870.0084
     -1153.9534
  17185381.30148  13382537.12644  23659073.3944   23659069.1604
     -3671.2664
   -671001.98946   -513979.77043  25064599.0984   25064593.2894
      1852.6094
  -9454843.57149  -7354769.07547  21837305.0124   21837301.2934
      -290.6564
  -9747218.00349  -7592229.10747  22285150.4024   22285146.6954
       439.2034
 04  9  3 16 31 30.0040000  0  6G20G11G14G23G25G 1
  -4837736.46148  -3762081.67644  23885710.7234   23885705.4304
      1770.0784
  -5191895.35649  -4038984.00747  22407183.5274   22407179.0234
     -1164.3124
  17240471.17149  13425464.28944  23669556.2304   23669552.4064
     -3674.0474
   -698766.07246   -535614.08043  25059315.5904   25059310.0274
      1849.2664
  -9450407.27449  -7351312.21347  21838149.2774   21838145.3594
      -300.8124
  -9753758.98549  -7597325.97847  22283905.9654   22283902.3754
       433.0314
 04  9  3 16 31 45.0040000  0  6G20G11G14G23G25G 1
  -4864272.28448  -3782758.92444  23880661.1684   23880655.8874
      1767.6414
  -5174357.81149  -4025318.39447  22410520.9494   22410516.2274
     -1174.3754
  17295597.15248  13468419.58345  23680046.6294   23680042.7974
     -3676.4064
   -726482.65246   -557211.40743  25054041.2934   25054035.3054
      1845.9844
  -9445825.24149  -7347741.79447  21839021.1294   21839017.2234
      -310.4694
  -9760213.09349  -7602355.14747  22282677.7464   22282673.7624
       427.2194
 04  9  3 16 32  0.0040000  0  6G20G11G14G23G25G 1
  -4890767.36747  -3803404.44344  23875619.2624   23875614.5004
      1764.9384
  -5156664.86549  -4011531.70347  22413887.7384   22413882.6844
     -1184.7974
  17350764.27348  13511406.92944  23690544.4344   23690540.7814
     -3679.1874
   -754146.50747   -578767.66343  25048777.1844   25048771.6484
      1842.5314
  -9441092.16049  -7344053.67347  21839921.9024   21839917.7584
      -320.5784
  -9766575.14649  -7607312.59447  22281466.8874   22281463.7114
       421.0474
 04  9  3 16 32 15.0040000  0  6G20G11G14G23G25G 1
  -4917224.37148  -3824020.27344  23870584.4734   23870579.8674
      1762.3914
  -5138819.41349  -3997626.15047  22417284.0664   22417278.8874
     -1194.9374
  17405969.56148  13554424.01944  23701049.8164   23701045.5124
     -3681.7504
   -781760.32546   -600284.91443  25043522.6914   25043516.5984
      1839.1724
  -9436210.84949  -7340250.05447  21840850.9104   21840846.9614
      -330.5004
  -9772848.04849  -7612200.55747  22280273.4414   22280269.4654
       415.0784
 04  9  3 16 32 30.0040000  0  6G20G11G14G23G25G 1
  -4943639.21048  -3844603.26144  23865557.6134   23865553.9734
      1759.6564
  -5120817.59149  -3983598.77347  22420709.1134   22420704.3484
     -1205.2664
  17461216.61748  13597473.64444  23711563.0194   23711558.9574
     -3684.5314
   -809320.21246   -621760.15643  25038277.4344   25038271.8164
      1835.6094
  -9431177.50149  -7336327.95247  21841808.9184   21841804.3094
      -340.5944
  -9779027.98449  -7617016.08147  22279097.1604   22279093.5784
       408.9384
 04  9  3 16 32 45.0040000  0  6G20G11G14G23G25G 1
  -4970014.80548  -3865155.64944  23860538.4884   23860534.6254
      1757.4224
  -5102662.49149  -3969451.95047  22424164.0194   22424158.9104
     -1215.1564
  17516502.29448  13640553.36744  23722083.3714   23722079.8124
     -3686.6724
   -836829.11647   -643195.63843  25033043.3244   25033037.5704
      1832.6094
  -9425994.96549  -7332289.60247  21842794.8164   21842790.9574
      -350.1414
  -9785118.00149  -7621761.55547  22277938.5354   22277935.3164
       403.3284
 04  9  3 16 33  0.0040000  0  6G20G11G14G23G25G 1
  -4996349.44348  -3885676.13844  23855527.3244   23855522.9344
      1754.2974
  -5084352.56549  -3955184.48947  22427648.4574   22427643.5394
     -1225.8444
  17571828.06448  13683664.34244  23732611.5194   23732607.7894
     -3689.7034
   -864285.38346   -664590.12143  25027817.9964   25027812.9694
      1828.7664
  -9420661.83749  -7328133.91847  21843809.8244   21843805.5124
      -360.5164
  -9791116.66849  -7626435.83347  22276796.9884   22276793.3444
       396.8914
 04  9  3 16 33 15.0040000  0  6G20G11G14G23G25G 1
  -5022645.44048  -3906166.52244  23850523.5434   23850519.1254
      1751.8134
  -5065890.50449  -3940798.47147  22431161.4414   22431156.3834
     -1235.7664
  17627191.12748  13726804.37544  23743146.6214   23743142.8834
     -3692.0314
   -891691.58047   -685945.57743  25022602.7694   25022597.4964
      1825.5634
  -9415180.47149  -7323862.71647  21844852.6054   21844848.6954
      -370.2034
  -9797026.54349  -7631040.92547  22275672.2154   22275668.4024
       391.2194
 04  9  3 16 33 30.0040000  0  6G20G11G14G23G25G 1
  -5048900.79648  -3926625.23044  23845527.2464   23845523.1054
      1749.0314
  -5047274.40249  -3926292.42847  22434704.1764   22434699.1604
     -1246.1874
  17682593.28348  13769974.85744  23753690.0594   23753685.6054
     -3694.7194
   -919045.66346   -707260.47343  25017397.1994   25017391.7544
      1821.8754
  -9409549.03349  -7319474.58048  21845924.3164   21845920.4654
      -380.4064
  -9802845.61549  -7635575.26947  22274564.8554   22274561.4804
       384.9534
 04  9  3 16 33 45.0040000  0  6G20G11G14G23G25G 1
  -5075113.85348  -3947050.98144  23840538.7934   23840534.6484
      1746.0474
  -5028502.81249  -3911665.22347  22438276.4414   22438271.6374
     -1256.7664
  17738035.72948  13813176.74944  23764239.7464   23764236.1024
     -3697.6874
   -946346.17747   -728533.57643  25012202.5594   25012196.9414
      1818.0634
  -9403766.09249  -7314968.38747  21847024.6684   21847020.8674
      -390.7504
  -9808572.55849  -7640037.81547  22273474.9654   22273471.7934
       378.5474
 04  9  3 16 34  0.0040000  0  6G20G11G14G23G25G 1
  -5101287.57948  -3967446.08544  23835558.3714   23835553.8014
      1743.6724
  -5009578.86949  -3896919.30147  22441877.3794   22441872.5554
     -1266.5944
  17793515.27448  13856407.54544  23774797.2074   23774793.3364
     -3699.8124
   -973596.12447   -749767.28442  25007016.3484   25007011.5434
      1815.0314
  -9397834.63549  -7310346.47047  21848153.5124   21848149.5044
      -400.3124
  -9814210.53649  -7644431.03347  22272402.3944   22272398.8124
       372.9224
 04  9  3 16 34 15.0040000  0  6G20G11G14G23G25G 1
  -5127420.02448  -3987809.02244  23830585.6134   23830581.3714
      1740.7974
  -4990500.80849  -3882053.29247  22445507.5744   22445503.1414
     -1276.9224
  17849033.53848  13899668.50844  23785362.1994   23785358.1764
     -3702.4534
  -1000793.81646   -770960.27343  25001840.1374   25001836.3204
      1811.4844
  -9391752.93149  -7305607.47847  21849310.6214   21849306.4064
      -410.3594
  -9819757.78949  -7648753.56847  22271346.6214   22271343.2464
       366.9064
 04  9  3 16 34 30.0040000  0  6G20G11G14G23G25G 1
  -5153509.87348  -4008138.76344  23825620.6134   23825615.9884
      1737.9224
  -4971267.62249  -3867066.39747  22449167.5824   22449162.9454
     -1287.4064
  17904591.37248  13942960.31144  23795934.4654   23795930.4064
     -3705.1874
  -1027938.11047   -792111.65443  24996675.8164   24996670.3444
      1807.7344
  -9385519.86349  -7300750.54047  21850497.1214   21850492.7814
      -420.6254
  -9825213.25949  -7653004.58047  22270308.5434   22270304.7934
       360.6254
 04  9  3 16 34 45.0040000  0  6G20G11G14G23G25G 1
  -5179562.71148  -4028439.67344  23820662.7234   23820659.0784
      1735.1414
  -4951885.12449  -3851963.16447  22452856.2544   22452851.1954
     -1297.5164
  17960182.92247  13986278.37244  23806512.9414   23806508.7854
     -3707.6254
  -1055034.54047   -813225.75343  24991519.2074   24991514.4414
      1804.4534
  -9379141.05349  -7295780.02347  21851710.8874   21851706.4454
      -430.5164
  -9830582.64549  -7657188.51147  22269286.8014   22269283.3094
       354.6564
 04  9  3 16 35  0.0040000  0  6G20G11G14G23G25G 1
  -5205570.15448  -4048705.19544  23815714.3484   23815710.0164
      1732.0944
  -4932345.07949  -3836737.15947  22456574.6844   22456569.5664
     -1308.1874
  18015816.26748  14029629.02044  23817100.2854   23817095.8244
     -3710.5004
  -1082074.84047   -834296.08343  24986373.5044   24986368.4224
      1800.5784
  -9372608.17049  -7290689.45247  21852953.8794   21852950.0194
      -440.8754
  -9835857.82049  -7661299.03047  22268282.7544   22268279.1024
       348.3594
 04  9  3 16 35 15.0040000  0  6G20G11G14G23G25G 1
  -5231534.57548  -4068937.20344  23810772.9024   23810768.6994
      1729.6254
  -4912650.20449  -3821390.51847  22460322.1054   22460317.4024
     -1318.0314
  18071488.76047  14073010.16344  23827694.1524   23827690.3484
     -3712.7034
  -1109061.61247   -855324.73243  24981238.1374   24981233.1604
      1797.4844
  -9365923.92049  -7285480.95347  21854225.7854   21854221.7304
      -450.5164
  -9841041.41649  -7665338.18547  22267296.4264   22267292.5084
       342.6724
 04  9  3 16 35 30.0040000  0  6G20G11G14G23G25G 1
  -5257459.41148  -4089138.36644  23805839.3484   23805835.5394
      1726.7974
  -4892804.13149  -3805926.05247  22464098.6524   22464094.0314
     -1328.2664
  18127196.58748  14116418.83044  23838294.7304   23838290.8054
     -3715.1414
  -1135998.30248   -876314.35543  24976112.7934   24976106.7464
      1793.9224
  -9359091.80549  -7280157.22848  21855526.2234   21855521.6604
      -460.6254
  -9846137.00849  -7669308.77747  22266326.9104   22266323.1484
       336.5944
 04  9  3 16 35 45.0040000  0  6G20G11G14G23G25G 1
  -5283341.01348  -4109305.83244  23800914.6214   23800910.2034
      1723.9534
  -4872803.34749  -3790341.03247  22467905.0514   22467899.8794
     -1338.6254
  18182943.05048  14159857.61644  23848903.1214   23848898.7344
     -3717.7664
  -1162881.53348   -897262.31143  24970997.0744   24970991.5084
      1790.3444
  -9352108.33349  -7274715.55148  21856855.1214   21856850.7384
      -470.7194
  -9851141.15849  -7673208.11147  22265374.5904   22265370.8834
       330.4694
 04  9  3 16 36  0.0040000  0  6G20G11G14G23G25G 1
  -5309178.61048  -4129439.02944  23795997.7154   23795993.6414
      1720.8754
  -4852647.32049  -3774635.05247  22471740.2934   22471735.5624
     -1349.0314
  18238728.66248  14203326.90344  23859518.6524   23859514.8094
     -3720.4844
  -1189710.46148   -918167.94343  24965891.9964   24965885.9574
      1786.6884
  -9344972.73049  -7269155.33347  21858212.9104   21858208.7664
      -480.8754
  -9856053.27049  -7677035.72347  22264439.7694   22264436.5004
       324.2034
 04  9  3 16 36 15.0040000  0  6G20G11G14G23G25G 1
  -5334972.32548  -4149538.01344  23791089.5194   23791085.4924
      1718.4844
  -4832336.44849  -3758808.40947  22475605.3874   22475600.9694
     -1358.8444
  18294552.97548  14246826.35044  23870142.2774   23870137.9224
     -3722.5004
  -1216485.29947   -939031.44643  24960796.8634   24960790.9264
      1783.6414
  -9337685.37149  -7263476.86747  21859599.6684   21859595.5554
      -490.4844
  -9860873.67049  -7680791.87147  22263522.5434   22263518.9614
       318.6884
 04  9  3 16 36 30.0040000  0  6G20G11G14G23G25G 1
  -5360726.83448  -4169606.44444  23786188.4104   23786184.3164
      1715.5004
  -4811875.69449  -3742864.96447  22479499.1604   22479494.4734
     -1369.2664
  18350410.91948  14290351.99144  23880771.3634   23880767.7384
     -3725.1564
  -1243210.94746   -959856.61043  24955710.9104   24955705.3944
      1779.8284
  -9330251.15549  -7257683.97947  21861014.4964   21861010.0044
      -500.6874
  -9865607.32049  -7684480.43047  22262621.7154   22262618.6024
       312.5004
 04  9  3 16 36 45.0040000  0  6G20G11G14G23G25G 1
  -5386439.40848  -4189642.22544  23781295.5354   23781291.6564
      1712.3284
  -4791262.45749  -3726802.72447  22483421.6294   22483417.0274
     -1379.7034
  18406304.90248  14333905.71944  23891407.1214   23891403.7114
     -3727.8284
  -1269884.83447   -980641.42843  24950635.0514   24950629.4734
      1776.1254
  -9322667.56549  -7251774.68748  21862457.4264   21862452.8944
      -510.9374
  -9870251.71649  -7688099.43347  22261737.6764   22261734.2274
       306.2664
 04  9  3 16 37  0.0040000  0  6G20G11G14G23G25G 1
  -5412109.55249  -4209644.92044  23776410.5744   23776406.4804
      1709.3284
  -4770496.64149  -3710621.58447  22487373.2304   22487368.6644
     -1390.0314
  18462235.02648  14377487.60044  23902050.9734   23902046.4304
     -3730.3914
  -1296506.67047  -1001385.68643  24945568.7544   24945563.4774
      1772.5004
  -9314934.24849  -7245748.72348  21863929.1684   21863924.4574
      -521.0624
  -9874806.64549  -7691648.71747  22260871.0514   22260867.4884
       300.1724
 04  9  3 16 37 15.0040000  0  6G20G11G14G23G25G 1
  -5437734.68049  -4229612.53145  23771534.8944   23771530.2384
      1706.7664
  -4749575.82549  -3694319.65047  22491354.3634   22491349.7974
     -1399.9844
  18518203.55448  14421099.43844  23912701.2074   23912697.0274
     -3732.6094
  -1323073.91947  -1022087.40443  24940513.5824   24940508.0514
      1769.1724
  -9307048.73949  -7239604.16148  21865429.5194   21865425.4884
      -530.8754
  -9879269.64749  -7695126.37947  22260022.1914   22260018.4374
       294.3444
 04  9  3 16 37 30.0040000  0  6G20G11G14G23G25G 1
  -5463311.80249  -4249542.75145  23766667.1994   23766663.2934
      1703.7504
  -4728497.20449  -3677894.75747  22495365.6374   22495360.9304
     -1410.2974
  18574213.17948  14464743.27844  23923359.1444   23923355.3674
     -3735.1724
  -1349583.57848  -1042744.26043  24935468.5984   24935463.3164
      1765.5004
  -9299008.31849  -7233338.88948  21866959.3794   21866955.2584
      -540.9844
  -9883637.90149  -7698530.20247  22259190.4804   22259186.8834
       288.2344
 04  9  3 16 37 45.0040000  0  6G20G11G14G23G25G 1
  -5488846.03948  -4269439.55544  23761808.1054   23761803.9804
      1700.8284
  -4707266.15149  -3661351.09947  22499405.5044   22499400.7504
     -1420.5164
  18630258.54448  14508414.95944  23934024.1444   23934020.1174
     -3737.5474
  -1376040.94048  -1063360.38643  24930434.0594   24930428.4654
      1761.9844
  -9290818.17249  -7226956.96648  21868518.0744   21868514.0314
      -551.0624
  -9887916.71349  -7701864.34047  22258376.6054   22258372.4614
       282.2344
 04  9  3 16 38  0.0040000  0  6G20G11G14G23G25G 1
  -5514339.27548  -4289304.41245  23756956.6294   23756952.9774
      1698.5164
  -4685884.83949  -3644690.33747  22503474.4184   22503469.5004
     -1430.0944
  18686337.36648  14552112.72844  23944695.7154   23944691.7114
     -3739.2974
  -1402448.14346  -1083937.39143  24925408.8794   24925403.8944
      1759.1094
  -9282480.43149  -7220460.01147  21870104.9024   21870100.6414
      -560.4374
  -9892108.22049  -7705130.44047  22257578.6684   22257574.7854
       276.8444
 04  9  3 16 38 15.0040000  0  6G20G11G14G23G25G 1
  -5539787.90248  -4309134.50145  23752114.0354   23752109.6954
      1695.2504
  -4664349.65249  -3627909.68747  22507572.5354   22507567.6644
     -1440.6874
  18742453.06448  14595839.21944  23955375.1684   23955370.4494
     -3742.1724
  -1428801.58346  -1104472.52443  24920393.8094   24920388.6724
      1755.2814
  -9273991.49849  -7213845.25947  21871720.2304   21871716.4884
      -570.7504
  -9896208.90749  -7708325.77847  22256798.5274   22256795.0704
       270.4844
 04  9  3 16 38 30.0040000  0  6G20G11G14G23G25G 1
  -5565194.80248  -4328932.08345  23747279.9804   23747275.3324
      1692.2034
  -4642663.88749  -3611011.69347  22511699.2074   22511694.2544
     -1450.9224
  18798602.29648  14639591.85844  23966059.4574   23966055.7814
     -3744.5624
  -1455104.26846  -1124968.13743  24915387.6994   24915383.0394
      1751.6414
  -9265354.50349  -7207115.13548  21873363.9884   21873359.5824
      -580.9224
  -9900222.12549  -7711452.95847  22256034.8944   22256030.8244
       264.4534
 04  9  3 16 38 45.0040000  0  6G20G11G14G23G25G 1
  -5590554.42948  -4348692.81945  23742453.9414   23742450.0044
      1689.1884
  -4620822.34349  -3593992.32347  22515855.3324   22515850.7234
     -1461.1254
  18854790.12948  14683374.56244  23976751.6684   23976747.5944
     -3746.8594
  -1481350.86247  -1145419.99243  24910393.8014   24910388.6444
      1748.0634
  -9256564.22749  -7200265.56347  21875036.3874   21875032.1684
      -591.0314
  -9904142.50149  -7714507.78547  22255288.8404   22255284.9964
       258.3134
 04  9  3 16 39  0.0040000  0  6G20G11G14G23G25G 1
  -5615872.63349  -4368421.28045  23737636.1764   23737631.8324
      1686.1564
  -4598831.07849  -3576856.27747  22520040.2624   22520035.4344
     -1471.4224
  18911010.54148  14727182.65944  23987450.1134   23987446.5164
     -3749.4374
  -1507547.33748  -1165832.83743  24905408.6994   24905403.4884
      1744.4384
  -9247626.60449  -7193301.18247  21876737.3244   21876732.9964
      -601.1094
  -9907976.04349  -7717494.95647  22254559.1684   22254555.7234
       252.3134
 04  9  3 16 39 15.0040000  0  6G20G11G14G23G25G 1
  -5641143.18249  -4388112.60045  23732827.3404   23732823.2814
      1683.2664
  -4576684.10849  -3559598.91347  22524254.6524   22524249.7814
     -1481.5164
  18967269.52048  14771020.78244  23998155.0904   23998151.6644
     -3751.8284
  -1533687.59348  -1186201.81443  24900434.7694   24900429.2234
      1740.9384
  -9238535.52249  -7186217.21347  21878467.1994   21878462.9964
      -611.0624
  -9911716.74149  -7720409.77347  22253847.4024   22253843.5904
       246.4064
 04  9  3 16 39 30.0040000  0  6G20G11G14G23G25G 1
  -5666367.99349  -4407768.29045  23728026.9654   23728022.5784
      1680.2814
  -4554383.48749  -3542221.81147  22528498.4494   22528493.4064
     -1491.6724
  19023564.83548  14814887.23644  24008868.3874   24008864.1764
     -3754.0784
  -1559773.51748  -1206528.50643  24895470.2074   24895464.7504
      1737.3594
  -9229293.03049  -7179015.26547  21880225.9804   21880221.5624
      -621.1254
  -9915366.65849  -7723253.86347  22253152.8484   22253149.1334
       240.4064
 04  9  3 16 39 45.0040000  0  6G20G11G14G23G25G 1
  -5691546.44849  -4427387.87045  23723235.6764   23723231.2664
      1676.5164
  -4531928.99649  -3524724.81247  22532771.2774   22532766.3944
     -1502.5474
  19079896.68948  14858782.16944  24019588.3404   24019584.1484
     -3757.1094
  -1585804.72348  -1226812.54243  24890517.4104   24890511.3524
      1733.2034
  -9219898.83549  -7171695.11447  21882013.7074   21882009.6294
      -631.7504
  -9918925.53549  -7726027.01347  22252475.5194   22252471.9774
       233.7344
 04  9  3 16 40  0.0040000  0  6G20G11G14G23G25G 1
  -5716680.30749  -4446972.67445  23718453.1994   23718448.2194
      1674.0784
  -4509322.59749  -3507109.44547  22537073.1294   22537068.1024
     -1512.1094
  19136263.02648  14902703.97144  24030313.8094   24030310.2034
     -3758.8914
  -1611783.11548  -1247055.43543  24885573.0984   24885568.5234
      1730.0944
  -9210354.84649  -7164258.24447  21883829.8404   21883825.9654
      -641.2344
  -9922395.29949  -7728730.72147  22251815.1994   22251812.0664
       228.3914
 04  9  3 16 40 15.0040000  0  6G20G11G14G23G25G 1
  -5741764.80849  -4466519.04545  23713679.5514   23713675.2074
      1670.6414
  -4486559.88349  -3489372.27647  22541404.8014   22541400.0594
     -1522.7814
  19192668.08848  14946655.94644  24041047.8634   24041043.6294
     -3761.7034
  -1637704.03048  -1267253.53443  24880640.8244   24880635.4734
      1726.0784
  -9200656.42249  -7156701.01847  21885675.5274   21885671.4414
      -651.8284
  -9925771.43549  -7731361.47247  22251172.9264   22251169.2774
       221.9064
 04  9  3 16 40 30.0040000  0  6G20G11G14G23G25G 1
  -5766802.56549  -4486028.97645  23708915.1444   23708910.5664
      1667.5314
  -4463643.65849  -3471515.48747  22545765.8554   22545761.2034
     -1532.9374
  19249108.95548  14990635.82944  24051787.6524   24051784.3444
     -3764.0474
  -1663570.24248  -1287409.00443  24875718.4024   24875713.3594
      1722.4844
  -9190806.37749  -7149025.66048  21887549.6914   21887545.7854
      -661.7974
  -9929056.71649  -7733921.42347  22250547.5904   22250543.4104
       215.9064
 04  9  3 16 40 45.0040000  0  6G20G11G14G23G25G 1
  -5791793.34049  -4505502.30945  23704159.4414   23704154.7344
      1664.2504
  -4440574.01849  -3453539.14747  22550155.5744   22550151.0084
     -1543.3594
  19305585.63848  15034643.59744  24062535.3484   24062530.9414
     -3766.5624
  -1689381.72048  -1307521.82043  24870806.7694   24870801.9264
      1718.6884
  -9180804.68949  -7141232.13048  21889453.4024   21889449.0784
      -672.0944
  -9932251.26649  -7736410.68347  22249939.4654   22249935.9374
       209.6564
 04  9  3 16 41  0.0040000  0  6G20G11G14G23G25G 1
  -5816738.59849  -4524940.16145  23699412.6374   23699407.9304
      1661.3754
  -4417352.59149  -3435444.55147  22554574.5824   22554569.5594
     -1553.2504
  19362096.34348  15078677.89144  24073289.0594   24073284.5944
     -3768.5944
  -1715140.09848  -1327593.27443  24865905.3634   24865900.0944
      1715.2664
  -9170653.02049  -7133321.74148  21891384.9964   21891380.4264
      -681.8754
  -9935356.68349  -7738830.47747  22249348.7854   22249344.8404
       203.9844
 04  9  3 16 41 15.0040000  0  6G20G11G14G23G25G 1
  -5841636.94648  -4544341.46245  23694673.8554   23694669.7894
      1658.4534
  -4393978.34549  -3417230.86147  22559022.4734   22559017.6214
     -1563.2504
  19418642.15247  15122739.53544  24084049.1684   24084045.5044
     -3770.7504
  -1740843.98748  -1347622.26443  24861014.3324   24861008.3014
      1711.9844
  -9160350.22249  -7125293.58048  21893345.3554   21893341.0354
      -691.8284
  -9938371.79549  -7741179.90947  22248774.8014   22248771.2074
       198.1254
 04  9  3 16 41 30.0040000  0  6G20G11G14G23G25G 1
  -5866487.28949  -4563705.35745  23689945.5514   23689941.0864
      1655.3284
  -4370450.42449  -3398897.42147  22563499.7854   22563494.9224
     -1573.4374
  19475223.72548  15166829.05344  24094816.4494   24094811.8404
     -3773.0784
  -1766492.43747  -1367608.04543  24856133.2234   24856127.7114
      1708.3914
  -9149895.39449  -7117146.95847  21895335.3164   21895330.8444
      -701.8124
  -9941295.73249  -7743458.29747  22248218.4884   22248215.0624
       192.1094
 04  9  3 16 41 45.0040000  0  6G20G11G14G23G25G 1
  -5891295.35248  -4583036.31345  23685224.7154   23685220.1874
      1652.2664
  -4346774.84049  -3380448.92347  22568005.1374   22567999.9574
     -1583.5164
  19531835.13947  15210941.82044  24105589.4264   24105585.2194
     -3775.3594
  -1792091.32546  -1387555.20543  24851262.4104   24851256.8324
      1704.8284
  -9139294.38649  -7108886.42647  21897352.4494   21897347.7584
      -711.7664
  -9944134.46449  -7745670.28247  22247678.6054   22247675.0744
       186.1884
 04  9  3 16 42  0.0040000  0  6G20G11G14G23G25G 1
  -5916054.54248  -4602329.17145  23680513.0124   23680508.8554
      1648.8594
  -4322945.15849  -3361880.35347  22572539.3554   22572535.0354
     -1593.9374
  19588482.72848  15255082.77644  24116369.4184   24116364.8754
     -3777.8124
  -1817634.07247  -1407458.61543  24846401.2694   24846395.8714
      1700.8754
  -9128540.72849  -7100506.95448  21899398.5044   21899394.3484
      -722.1414
  -9946881.62649  -7747810.92847  22247155.6914   22247152.2774
       179.9384
 04  9  3 16 42 15.0040000  0  6G20G11G14G23G25G 1
  -5940764.06049  -4621583.34245  23675811.1914   23675806.6954
      1645.7344
  -4298960.91149  -3343191.33047  22577103.9024   22577099.3284
     -1604.0784
  19645166.88148  15299252.23144  24127155.7544   24127151.1604
     -3780.1414
  -1843120.15648  -1427317.89443  24841551.3404   24841545.8164
      1697.1724
  -9117634.01449  -7092008.21048  21901473.8554   21901469.6254
      -732.1874
  -9949536.71449  -7749879.81947  22246650.4184   22246647.1294
       173.9694
 04  9  3 16 42 30.0040000  0  6G20G11G14G23G25G 1
  -5965425.04749  -4640799.69245  23671118.4574   23671113.5624
      1642.7974
  -4274823.60749  -3324383.04747  22581696.6374   22581692.0234
     -1613.9224
  19701886.00148  15343448.92644  24137948.9574   24137944.9694
     -3782.1414
  -1868550.92948  -1447134.06243  24836712.7464   24836706.7894
      1693.8754
  -9106575.67549  -7083391.31647  21903578.3484   21903574.1994
      -741.9844
  -9952101.06649  -7751878.00947  22246162.1214   22246158.9884
       168.2194
 04  9  3 16 42 45.0040000  0  6G20G11G14G23G25G 1
  -5990040.72549  -4659980.73945  23666433.6444   23666429.5194
      1639.5164
  -4250536.63249  -3305458.13947  22586318.5124   22586314.2114
     -1624.1564
  19758636.83247  15387670.33044  24148747.9024   24148744.0904
     -3784.4694
  -1893929.56748  -1466909.60143  24831882.5904   24831877.0864
      1690.1564
  -9095368.80649  -7074658.69847  21905711.1524   21905706.6024
      -752.1414
  -9954577.99649  -7753808.08647  22245691.0904   22245687.2624
       162.1884
 04  9  3 16 43  0.0040000  0  6G20G11G14G23G25G 1
  -6014606.54849  -4679122.93945  23661759.2544   23661754.8874
      1636.0474
  -4226095.73049  -3286413.30447  22590969.2854   22590964.6644
     -1634.5004
  19815423.40947  15431919.57944  24159554.6914   24159550.0314
     -3786.9694
  -1919251.79948  -1486641.20844  24827063.7854   24827058.5394
      1686.2504
  -9084009.15149  -7065807.01948  21907872.7074   21907868.6644
      -762.4224
  -9956963.27849  -7755666.75247  22245236.9964   22245233.2234
       155.9844
 04  9  3 16 43 15.0040000  0  6G20G11G14G23G25G 1
  -6039123.10649  -4698226.74245  23657094.1764   23657089.4144
      1632.6094
  -4201501.90649  -3267249.28647  22595649.8404   22595645.2694
     -1644.7814
  19872244.70347  15476195.90444  24170367.1374   24170362.7894
     -3789.3284
  -1944518.39248  -1506329.43343  24822255.9964   24822250.7114
      1682.5314
  -9072497.63349  -7056837.00147  21910063.2074   21910059.0864
      -772.6094
  -9959257.87149  -7757454.74047  22244800.4574   22244797.1564
       149.8444
 04  9  3 16 43 30.0040000  0  6G20G11G14G23G25G 1
  -6063588.25649  -4717290.48845  23652438.6134   23652433.8284
      1629.2504
  -4176753.18349  -3247964.57347  22600359.3164   22600354.2504
     -1655.1564
  19929102.59947  15520500.72444  24181186.7154   24181183.0864
     -3791.7664
  -1969727.28948  -1525972.70143  24817458.6214   24817453.6874
      1678.6094
  -9060832.37349  -7047747.18847  21912282.9804   21912278.2624
      -782.8914
  -9961459.76249  -7759170.49247  22244381.9574   22244378.3444
       143.6564
 04  9  3 16 43 45.0040000  0  6G20G11G14G23G25G 1
  -6088003.67549  -4736315.47345  23647792.5824   23647788.3634
      1625.8134
  -4151851.50049  -3228560.67347  22605097.6604   22605092.8794
     -1665.4694
  19985995.07147  15564832.49344  24192012.9184   24192009.0124
     -3794.1874
  -1994880.27248  -1545572.38943  24812672.3244   24812666.5354
      1674.7344
  -9049015.21549  -7038539.00247  21914531.7934   21914527.8554
      -793.1564
  -9963570.80749  -7760815.45847  22243979.7544   22243976.1054
       137.4064
 04  9  3 16 44  0.0040000  0  6G20G11G14G23G25G 1
  -6112370.66849  -4755302.74345  23643155.7624   23643151.1724
      1623.0634
  -4126798.58049  -3209038.93047  22609864.9804   22609860.4454
     -1675.0004
  20042920.59347  15609190.02844  24202845.9804   24202841.4964
     -3795.8754
  -2019978.86347  -1565129.74343  24807896.0594   24807890.3124
      1671.6884
  -9037047.61249  -7029213.60947  21916809.0044   21916805.2034
      -802.5784
  -9965592.58249  -7762390.85847  22243595.0434   22243591.0354
       132.0944
 04  9  3 16 44 15.0040000  0  6G20G11G14G23G25G 1
  -6136692.20548  -4774254.58345  23638527.2774   23638522.5194
      1619.5314
  -4101597.51649  -3189401.74647  22614660.7624   22614656.1604
     -1685.3754
  20099875.87147  15653570.74244  24213684.1994   24213679.9924
     -3798.3914
  -2045026.09046  -1584647.04744  24803129.6994   24803124.2934
      1667.6094
  -9024932.57549  -7019773.31947  21919114.2304   21919110.0354
      -812.9844
  -9967528.19849  -7763899.12647  22243226.6994   22243223.0554
       125.8134
 04  9  3 16 44 30.0040000  0  6G20G11G14G23G25G 1
  -6160963.90748  -4793167.59745  23633908.2304   23633903.3944
      1616.5944
  -4076244.29649  -3169646.01147  22619485.6914   22619480.6914
     -1695.1874
  20156864.83847  15697977.69444  24224528.3874   24224524.1254
     -3800.2504
  -2070017.80146  -1604121.06044  24798374.3244   24798368.5554
      1664.4384
  -9012666.05849  -7010214.99047  21921448.8874   21921444.3444
      -822.6874
  -9969373.62949  -7765337.12147  22242875.4494   22242871.9924
       120.1884
 04  9  3 16 44 45.0040000  0  6G20G11G14G23G25G 1
  -6185189.14248  -4812044.39045  23629298.0744   23629294.1804
      1613.3284
  -4050742.69249  -3149774.62747  22624338.2074   22624333.6844
     -1705.2194
  20213883.81147  15742408.05344  24235379.3944   24235374.5194
     -3802.3754
  -2094957.34546  -1623554.45043  24793628.9494   24793623.0004
      1660.6724
  -9000251.84849  -7000541.58547  21923811.1214   21923806.5784
      -832.6724
  -9971132.50249  -7766707.67147  22242540.7154   22242537.2664
       114.2034
 04  9  3 16 45  0.0040000  0  6G20G11G14G23G25G 1
  -6209362.89749  -4830881.06845  23624698.3794   23624694.0664
      1609.8444
  -4025088.07749  -3129784.03147  22629219.7624   22629214.7464
     -1715.4224
  20270937.49047  15786865.45344  24246235.6524   24246231.8124
     -3804.7034
  -2119840.01747  -1642943.51243  24788892.8164   24788887.9224
      1656.9844
  -8987685.07049  -6990749.28347  21926202.5044   21926198.0704
      -842.8594
  -9972800.12649  -7768007.10947  22242223.6374   22242219.5784
       108.1564
 04  9  3 16 45 15.0040000  0  6G20G11G14G23G25G 1
  -6233489.00449  -4849680.61845  23620106.8014   23620102.7384
      1606.8914
  -3999284.47149  -3109677.32447  22634130.4654   22634125.5864
     -1725.1724
  20328021.90147  15831346.78544  24257098.7384   24257094.9924
     -3806.5164
  -2144669.69847  -1662291.29643  24784169.2234   24784162.5274
      1653.5314
  -8974969.68149  -6980841.18447  21928622.0274   21928617.6644
      -852.6564
  -9974380.35149  -7769238.45347  22241922.8874   22241919.3404
       102.4694
 04  9  3 16 45 30.0040000  0  6G20G11G14G23G25G 1
  -6257565.57548  -4868441.58745  23615525.8324   23615521.1524
      1603.6884
  -3973330.07549  -3089453.14147  22639069.1134   22639064.0274
     -1735.2034
  20385138.45347  15875853.16244  24267967.7624   24267963.5864
     -3808.6564
  -2169444.68047  -1681596.45544  24779454.0354   24779447.8094
      1649.8754
  -8962104.20949  -6970816.14647  21931070.4654   21931065.5514
      -862.5784
  -9975871.62849  -7770400.48347  22241638.7934   22241634.6954
        96.4844
 04  9  3 16 45 45.0040000  0  6G20G11G14G23G25G 1
  -6281592.88749  -4887164.15445  23610953.5514   23610948.8204
      1600.0634
  -3947225.65649  -3069112.04547  22644036.6054   22644031.7384
     -1745.3754
  20442286.30647  15920383.93244  24278842.7774   24278838.7234
     -3810.9694
  -2194165.52847  -1700859.43243  24774749.4734   24774743.9304
      1646.2194
  -8949089.18149  -6960674.57047  21933547.1374   21933542.8404
      -872.7194
  -9977274.55449  -7771493.67847  22241372.1844   22241368.3944
        90.4694
 04  9  3 16 46  0.0040000  0  6G20G11G14G23G25G 1
  -6305569.66249  -4905847.36445  23606390.8794   23606386.2154
      1596.9224
  -3920969.96549  -3048653.07147  22649032.9104   22649028.5554
     -1755.1414
  20499466.86447  15964940.19044  24289723.7694   24289719.9024
     -3812.9374
  -2218830.83848  -1720079.12444  24770055.4804   24770050.0394
      1642.7344
  -8935923.17049  -6950415.34447  21936052.3164   21936047.7974
      -882.5474
  -9978587.87549  -7772517.04347  22241121.8404   22241118.2694
        84.8134
 04  9  3 16 46 15.0040000  0  6G20G11G14G23G25G 1
  -6329494.65249  -4924490.19545  23601837.9964   23601833.8244
      1593.1414
  -3894562.46349  -3028075.80947  22654058.5594   22654053.9454
     -1765.6254
  20556680.71547  16009522.38744  24300611.1914   24300606.7304
     -3815.4844
  -2243439.74148  -1739254.88244  24765373.1764   24765366.7344
      1638.6254
  -8922605.28649  -6940037.78147  21938586.6914   21938582.6994
      -893.0164
  -9979810.76849  -7773469.93447  22240889.2544   22240885.6684
        78.4384
 04  9  3 16 46 30.0040000  0  6G20G11G14G23G25G 1
  -6353367.57949  -4943092.46645  23597295.3944   23597290.8944
      1589.9064
  -3868003.01649  -3007380.15147  22659112.1294   22659107.8204
     -1775.5944
  20613927.82547  16054130.48844  24311504.9804   24311500.7544
     -3817.5624
  -2267992.13248  -1758386.58943  24760700.4024   24760694.6524
      1635.0474
  -8909135.58749  -6929541.90548  21941149.8794   21941145.4184
      -902.9224
  -9980943.23949  -7774352.37547  22240673.6054   22240669.8164
        72.5474
 04  9  3 16 46 45.0040000  0  6G20G11G14G23G25G 1
  -6377191.99349  -4961656.94945  23592762.0664   23592757.1024
      1586.8134
  -3841295.56149  -2986569.14847  22664194.7854   22664189.8164
     -1785.3444
  20671204.32947  16098761.50844  24322404.0594   24322400.4264
     -3819.3124
  -2292491.55948  -1777477.00443  24756038.5594   24756032.9844
      1631.6094
  -8895517.87349  -6918930.70248  21943741.3094   21943737.0274
      -912.6414
  -9981988.99449  -7775167.24347  22240475.1524   22240471.0124
        66.9384
 04  9  3 16 47  0.0040000  0  6G20G11G14G23G25G 1
  -6400966.02249  -4980182.14845  23588237.5274   23588232.9454
      1583.2344
  -3814438.40349  -2965641.50447  22669305.5434   22669300.8634
     -1795.4844
  20728511.86147  16143416.71144  24333310.1294   24333304.8914
     -3821.6094
  -2316936.29248  -1796524.83044  24751386.7624   24751381.4804
      1627.8134
  -8881750.48149  -6908202.87047  21946361.2774   21946356.6254
      -922.8444
  -9982946.35149  -7775913.23447  22240292.3634   22240289.1684
        60.8594
 04  9  3 16 47 15.0040000  0  6G20G11G14G23G25G 1
  -6424686.29249  -4998665.47845  23583723.5514   23583719.4804
      1579.9064
  -3787428.39549  -2944594.75947  22674445.3014   22674440.5474
     -1805.4534
  20785853.46648  16188098.44844  24344221.3874   24344217.1874
     -3823.5164
  -2341323.22948  -1815527.62244  24746746.2624   24746740.1954
      1624.2034
  -8867830.24349  -6897355.92547  21949009.9414   21949005.6844
      -932.7814
  -9983812.22049  -7776587.93747  22240128.3324   22240124.3554
        54.9064
 04  9  3 16 47 30.0040000  0  6G20G11G14G23G25G 1
  -6448357.24349  -5017110.37345  23579219.3404   23579214.6844
      1576.3444
  -3760270.60449  -2923432.85847  22679613.2464   22679608.4104
     -1815.5474
  20843224.31147  16232802.97544  24355139.3484   24355135.3014
     -3825.6724
  -2365656.93248  -1834488.92943  24742115.9344   24742109.8444
      1620.4224
  -8853761.86449  -6886393.55747  21951687.1294   21951683.1414
      -942.9534
  -9984591.36749  -7777195.05447  22239979.5124   22239975.7194
        49.0634
 04  9  3 16 47 45.0040000  0  6G20G11G14G23G25G 1
  -6471975.23049  -5035513.98845  23574725.0044   23574720.8834
      1573.1414
  -3732961.55549  -2902153.09047  22684809.9344   22684805.2694
     -1825.2664
  20900627.78548  16277532.92344  24366062.1214   24366058.2584
     -3827.6564
  -2389933.97348  -1853406.08644  24737496.1444   24737490.9414
      1616.9694
  -8839541.93549  -6875313.10647  21954393.3404   21954388.8754
      -952.7194
  -9985280.31549  -7777731.90247  22239847.9804   22239844.8874
        43.3134
 04  9  3 16 48  0.0040000  0  6G20G11G14G23G25G 1
  -6495543.10949  -5053878.56645  23570240.1604   23570235.8754
      1569.5784
  -3705504.40449  -2880757.91547  22690035.0664   22690030.1094
     -1835.4694
  20958060.78647  16322285.89544  24376991.2464   24376987.2424
     -3829.8594
  -2414157.16748  -1872281.27444  24732886.1764   24732880.9734
      1613.0634
  -8825173.58049  -6864116.98847  21957127.0824   21957122.9374
      -962.8284
  -9985882.13249  -7778200.84547  22239734.4494   22239730.1444
        37.1564
 04  9  3 16 48 15.0040000  0  6G20G11G14G23G25G 1
  -6519057.17349  -5072201.21145  23565765.3714   23565760.7504
      1565.8594
  -3677895.82049  -2859244.74347  22695288.6444   22695283.8364
     -1845.5004
  21015526.53648  16367064.38244  24387926.7154   24387922.6804
     -3832.0474
  -2438323.04948  -1891111.79344  24728287.6914   24728281.7384
      1609.2034
  -8810653.35749  -6852802.52247  21959890.7154   21959885.9964
      -973.0474
  -9986393.43349  -7778599.26047  22239636.7384   22239632.9304
        31.1414
 04  9  3 16 48 30.0040000  0  6G20G11G14G23G25G 1
  -6542522.56249  -5090485.91245  23561300.4804   23561295.9024
      1562.5474
  -3650141.19049  -2837617.76647  22700570.3164   22700565.9344
     -1855.3124
  21073019.66748  16411864.18344  24398867.1684   24398863.3554
     -3833.8444
  -2462436.87148  -1909901.78544  24723698.4494   24723693.4144
      1605.6884
  -8795986.66249  -6841373.93447  21962681.4964   21962676.9654
      -982.8124
  -9986819.52549  -7778931.27047  22239555.7384   22239551.9534
        25.4384
 04  9  3 16 48 45.0040000  0  6G20G11G14G23G25G 1
  -6565936.92849  -5108730.87245  23556844.2544   23556840.1414
      1559.4224
  -3622238.49249  -2815875.41447  22705879.8014   22705875.3404
     -1864.9374
  21130542.09147  16456686.84643  24409814.1684   24409809.0004
     -3835.5944
  -2486496.52648  -1928649.53444  24719120.2384   24719115.1564
      1602.3754
  -8781171.39349  -6829829.56647  21965500.4964   21965495.9654
      -992.5004
  -9987158.39449  -7779195.31747  22239491.0904   22239487.2814
        19.9384
 04  9  3 16 49  0.0040000  0  6G20G11G14G23G25G 1
  -6589299.34949  -5126935.34545  23552398.8554   23552394.3094
      1555.8134
  -3594187.08049  -2794017.18747  22711217.6684   22711213.3244
     -1874.9844
  21188094.43047  16501532.80943  24420765.6524   24420761.2854
     -3837.7664
  -2510501.17448  -1947354.44144  24714552.4574   24714547.1914
      1598.5474
  -8766206.82649  -6818168.87447  21968348.3634   21968343.7074
     -1002.5944
  -9987409.33749  -7779390.85847  22239443.5824   22239439.1994
        13.8754
 04  9  3 16 49 15.0040000  0  6G20G11G14G23G25G 1
  -6612610.34048  -5145099.75645  23547962.8244   23547958.2934
      1552.4064
  -3565987.82449  -2772043.75047  22716584.0194   22716579.3014
     -1884.8754
  21245675.90247  16546401.45144  24431722.6844   24431719.4104
     -3839.6874
  -2534451.46347  -1966016.98444  24709994.6994   24709989.1604
      1594.8594
  -8751093.72649  -6806392.42647  21971224.4574   21971220.0664
     -1012.4374
  -9987573.12149  -7779518.48047  22239412.2234   22239408.4184
         8.0634
 04  9  3 16 49 30.0040000  0  6G20G11G14G23G25G 1
  -6635869.17448  -5163223.50145  23543537.1994   23543532.7774
      1548.8284
  -3537640.47949  -2749954.91147  22721978.3714   22721973.7234
     -1894.7974
  21303286.78947  16591293.01344  24442686.1294   24442681.7894
     -3841.7034
  -2558346.85947  -1984636.75144  24705447.9654   24705442.9414
      1591.0944
  -8735831.54449  -6794499.82247  21974128.5904   21974123.9924
     -1022.5314
  -9987649.37349  -7779577.88547  22239397.6054   22239394.2384
         2.0784
 04  9  3 16 49 45.0040000  0  6G20G11G14G23G25G 1
  -6659075.10449  -5181306.05745  23539120.8714   23539116.4344
      1545.1414
  -3509144.49449  -2727750.25747  22727400.9654   22727396.6024
     -1904.7974
  21360927.55447  16636207.88943  24453654.8714   24453650.9144
     -3843.8124
  -2582186.86247  -2003213.33244  24700911.2694   24700906.0124
      1587.4064
  -8720419.85549  -6782490.72247  21977061.4184   21977057.1524
     -1032.5314
  -9987637.54749  -7779568.67147  22239400.1444   22239396.0274
        -3.8444
 04  9  3 16 50  0.0040000  0  6G20G11G14G23G25G 1
  -6682232.63849  -5199350.88345  23534714.2544   23534709.6524
      1542.0314
  -3480504.80049  -2705433.63047  22732850.9654   22732846.2544
     -1914.2814
  21418593.32847  16681142.22944  24464627.8164   24464624.1524
     -3845.4224
  -2605976.07248  -2021750.35643  24696384.2774   24696378.0194
      1584.0634
  -8704863.51149  -6770368.90347  21980021.6294   21980017.3524
     -1042.0944
  -9987542.44049  -7779494.55147  22239417.9574   22239414.0164
        -9.3444
 04  9  3 16 50 15.0040000  0  6G20G11G14G23G25G 1
  -6705339.06049  -5217355.87645  23530316.9184   23530312.5274
      1538.9224
  -3451718.88749  -2683003.05647  22738328.9104   22738324.3054
     -1923.7504
  21476286.61948  16726098.00644  24475606.9024   24475602.7154
     -3846.8444
  -2629712.02648  -2040245.90944  24691867.4104   24691861.7034
      1580.7664
  -8689159.96449  -6758132.36847  21983009.8404   21983005.4924
     -1051.6094
  -9987361.50449  -7779353.55047  22239452.4574   22239448.6874
       -14.6564
 04  9  3 16 50 30.0040000  0  6G20G11G14G23G25G 1
  -6728395.77949  -5235322.13445  23525929.3094   23525925.2034
      1535.3284
  -3422788.56549  -2660459.96047  22743834.0824   22743829.3284
     -1933.5624
  21534005.67248  16771073.86644  24486591.1684   24486586.4104
     -3848.9064
  -2653396.12748  -2058701.02844  24687360.8164   24687354.5824
      1577.0784
  -8673310.98649  -6745782.52147  21986025.9104   21986021.8754
     -1061.5314
  -9987096.47849  -7779147.03347  22239502.5664   22239499.3484
       -20.5944
 04  9  3 16 50 45.0040000  0  6G20G11G14G23G25G 1
  -6751396.92649  -5253245.08645  23521552.3634   23521548.1724
      1531.9694
  -3393708.28849  -2637800.00747  22749367.4104   22749363.1444
     -1943.2974
  21591755.97248  16816074.08543  24497579.6994   24497575.4574
     -3850.6564
  -2677022.84048  -2077111.42344  24682864.8094   24682858.9064
      1573.5634
  -8657310.76049  -6733314.81747  21989070.6844   21989066.3944
     -1071.3594
  -9986741.65549  -7778870.53947  22239570.4024   22239566.8324
       -26.2664
 04  9  3 16 51  0.0040000  0  6G20G11G14G23G25G 1
  -6774347.74149  -5271128.85845  23517184.9884   23517180.6524
      1527.9224
  -3364483.61249  -2615027.54447  22754928.9344   22754924.1684
     -1953.5474
  21649531.97148  16861094.30243  24508573.9574   24508570.7194
     -3853.0624
  -2700597.41148  -2095481.21444  24678378.2624   24678372.3404
      1569.4844
  -8641164.91049  -6720733.63847  21992143.0984   21992138.8594
     -1081.6414
  -9986302.51449  -7778528.35547  22239654.0434   22239650.2234
       -32.5314
 04  9  3 16 51 15.0040000  0  6G20G11G14G23G25G 1
  -6797248.19549  -5288973.35345  23512827.4964   23512823.0744
      1525.3594
  -3335114.67749  -2592142.66447  22760517.8554   22760513.2424
     -1962.3444
  21707333.43248  16906134.38043  24519573.3714   24519569.9844
     -3853.9374
  -2724120.02048  -2113810.50944  24673901.4654   24673895.8874
      1566.7974
  -8624873.64349  -6708039.14447  21995243.0434   21995239.0004
     -1090.6254
  -9985779.35549  -7778120.68247  22239753.5354   22239749.5784
       -37.2814
 04  9  3 16 51 30.0040000  0  6G20G11G14G23G25G 1
  -6820097.25549  -5306777.80645  23508479.1214   23508475.1724
      1521.3914
  -3305601.10449  -2569145.08147  22766134.1684   22766129.4414
     -1972.5944
  21765160.97448  16951194.78343  24530577.5594   24530573.9534
     -3856.2344
  -2747589.85648  -2132098.66244  24669436.4494   24669430.6804
      1562.6724
  -8608436.36549  -6695230.87147  21998370.8874   21998366.8674
     -1100.8754
  -9985171.47049  -7777647.00247  22239869.5124   22239865.6684
       -43.5784
 04  9  3 16 51 45.0040000  0  6G20G11G14G23G25G 1
  -6842893.74349  -5324541.28945  23504141.3554   23504136.4654
      1517.9534
  -3275942.00549  -2546034.10847  22771777.8324   22771773.5084
     -1982.2194
  21823015.42548  16996276.14944  24541587.4734   24541583.2934
     -3857.9064
  -2771005.75648  -2150344.79844  24664979.9184   24664974.1644
      1559.1884
  -8591851.97749  -6682307.98847  22001527.0044   22001523.0314
     -1110.6094
  -9984477.77549  -7777106.44747  22240001.0434   22239997.8244
       -49.1874
 04  9  3 16 52  0.0040000  0  6G20G11G14G23G25G 1
  -6865638.10049  -5342264.16645  23499812.8014   23499808.3794
      1514.8594
  -3246138.15649  -2522810.33847  22777449.3404   22777444.9844
     -1991.4224
  21880896.15348  17041377.97143  24552601.6684   24552597.8634
     -3859.3124
  -2794368.49248  -2168549.50844  24660534.5194   24660529.0594
      1556.0004
  -8575121.20749  -6669271.01947  22004710.8164   22004706.6564
     -1119.9694
  -9983698.97448  -7776499.59747  22240149.0514   22240146.0314
       -54.4694
 04  9  3 16 52 15.0040000  0  6G20G11G14G23G25G 1
  -6888334.74649  -5359949.86245  23495493.5194   23495489.6564
      1511.2814
  -3216194.33849  -2499477.50247  22783147.7544   22783143.0904
     -2001.2344
  21938798.39148  17086496.58543  24563620.3014   24563615.9734
     -3861.1094
  -2817682.66648  -2186716.37944  24656097.6214   24656091.9304
      1552.3754
  -8558248.90149  -6656123.78147  22007921.3554   22007916.8834
     -1129.7664
  -9982839.85449  -7775830.15147  22240313.0664   22240309.0904
       -60.2034
 04  9  3 16 52 30.0050000  0  6G20G11G14G23G25G 1
  -6910978.38249  -5377594.24545  23491185.5094   23491180.7904
      1507.5164
  -3186102.02649  -2476028.95747  22788874.1424   22788869.5054
     -2011.0474
  21996732.37548  17131639.92643  24574644.4314   24574640.3724
     -3863.0314
  -2840942.99848  -2204841.28744  24651671.0244   24651665.9154
      1548.6094
  -8541227.30349  -6642860.19347  22011160.7744   22011156.4784
     -1139.7344
  -9981893.78449  -7775092.94747  22240493.1654   22240488.9424
       -66.0624
 04  9  3 16 52 45.0050000  0  6G20G11G14G23G25G 1
  -6933566.29049  -5395195.20445  23486886.9624   23486882.8494
      1504.0944
  -3155865.99649  -2452468.42447  22794627.4384   22794623.0404
     -2020.5784
  22054689.69848  17176801.43943  24585673.4234   24585669.7984
     -3864.6414
  -2864146.99748  -2222922.29744  24647255.8294   24647250.3724
      1545.0784
  -8524059.25449  -6629482.50047  22014427.6264   22014423.1224
     -1149.4694
  -9980861.49349  -7774288.56047  22240689.1104   22240685.6694
       -71.6564
 04  9  3 16 53  0.0050000  0  6G20G11G14G23G25G 1
  -6956103.34149  -5412756.54146  23482598.1424   23482594.0364
      1500.7194
  -3125488.01048  -2428797.28847  22800408.5014   22800403.9114
     -2029.9064
  22112670.58948  17221981.33043  24596706.2744   24596703.3254
     -3866.2344
  -2887299.80548  -2240963.43844  24642850.0714   24642844.1344
      1541.7814
  -8506747.28149  -6615992.66047  22017721.9384   22017717.4814
     -1159.0314
  -9979746.55649  -7773419.77647  22240901.8534   22240898.1264
       -77.1094
 04  9  3 16 53 15.0050000  0  6G20G11G14G23G25G 1
  -6978588.49949  -5430277.42545  23478319.4314   23478314.7204
      1497.5314
  -3094967.04849  -2405014.72647  22806216.5484   22806211.8604
     -2039.2814
  22170675.81148  17267180.17343  24607744.8684   24607741.1924
     -3867.6414
  -2910400.43848  -2258963.90944  24638454.2354   24638448.2674
      1538.5164
  -8489290.52749  -6602389.98847  22021043.8534   22021039.5174
     -1168.3914
  -9978548.07849  -7772485.90247  22241129.6264   22241125.9504
       -82.4374
 04  9  3 16 53 30.0050000  0  6G20G11G14G23G25G 1
  -7001024.51149  -5447760.03445  23474050.2514   23474045.4894
      1493.8444
  -3064306.47449  -2381123.37847  22812050.7514   22812046.4074
     -2049.0164
  22228702.25648  17312395.56743  24618786.9314   24618782.9504
     -3869.4064
  -2933451.89648  -2276926.06744  24634067.5954   24634060.8884
      1534.8284
  -8471692.21449  -6588677.01947  22024392.8214   22024388.5284
     -1178.2814
  -9977269.24549  -7771489.40647  22241372.8294   22241369.1614
       -88.2814
